<?xml version="1.0" encoding="UTF-8" standalone="no" ?>
<gpx xmlns="http://www.topografix.com/GPX/1/1" xmlns:xsi="http://www.w3.org/2001/XMLSchema-instance" xsi:schemaLocation="http://www.topografix.com/GPX/1/1 http://www.topografix.com/GPX/1/1/gpx.xsd" version="1.1" creator="VisuGPX - https://www.visugpx.com">
  <metadata>
    <name>2018-03-12-46-Mercues</name>
    <desc><![CDATA[Randonnée de 11,5km avec 300m de dénivelé positif. Tourné autour du Chateau de Mercues, ce circuit emprunte des sentiers en milieu forestier]]></desc>
  </metadata>
  <trk>
    <name><![CDATA[Tracé 12 mars 2018 14:02:44]]></name>
    <trkseg>
      <trkpt lat="44.49685" lon="1.38705">
        <ele>116.5764068413</ele>
        <time>2018-03-12T13:02:44Z</time>
      </trkpt>
      <trkpt lat="44.49685" lon="1.38709">
        <ele>125.57065562159</ele>
        <time>2018-03-12T13:02:57Z</time>
      </trkpt>
      <trkpt lat="44.49689" lon="1.38722">
        <ele>136.7541138439</ele>
        <time>2018-03-12T13:03:02Z</time>
      </trkpt>
      <trkpt lat="44.49689" lon="1.38722">
        <ele>145.66016052301</ele>
        <time>2018-03-12T13:03:06Z</time>
      </trkpt>
      <trkpt lat="44.49692" lon="1.38735">
        <ele>146.78447975217</ele>
        <time>2018-03-12T13:03:10Z</time>
      </trkpt>
      <trkpt lat="44.49692" lon="1.38735">
        <ele>141.71487149001</ele>
        <time>2018-03-12T13:03:14Z</time>
      </trkpt>
      <trkpt lat="44.49697" lon="1.38747">
        <ele>142.74102549756</ele>
        <time>2018-03-12T13:03:18Z</time>
      </trkpt>
      <trkpt lat="44.49702" lon="1.38756">
        <ele>143.04025958779</ele>
        <time>2018-03-12T13:03:23Z</time>
      </trkpt>
      <trkpt lat="44.49703" lon="1.3876">
        <ele>143.31670921524</ele>
        <time>2018-03-12T13:03:29Z</time>
      </trkpt>
      <trkpt lat="44.49719" lon="1.38767">
        <ele>144.05807890973</ele>
        <time>2018-03-12T13:03:33Z</time>
      </trkpt>
      <trkpt lat="44.49731" lon="1.38769">
        <ele>144.78583910399</ele>
        <time>2018-03-12T13:03:37Z</time>
      </trkpt>
      <trkpt lat="44.49736" lon="1.38772">
        <ele>145.40926246649</ele>
        <time>2018-03-12T13:03:42Z</time>
      </trkpt>
      <trkpt lat="44.4974" lon="1.38774">
        <ele>145.82643025079</ele>
        <time>2018-03-12T13:03:46Z</time>
      </trkpt>
      <trkpt lat="44.49744" lon="1.38775">
        <ele>146.24380795726</ele>
        <time>2018-03-12T13:03:49Z</time>
      </trkpt>
      <trkpt lat="44.49746" lon="1.38776">
        <ele>146.36784691907</ele>
        <time>2018-03-12T13:03:51Z</time>
      </trkpt>
      <trkpt lat="44.49751" lon="1.38778">
        <ele>146.19309861733</ele>
        <time>2018-03-12T13:03:56Z</time>
      </trkpt>
      <trkpt lat="44.49752" lon="1.38779">
        <ele>146.15161515032</ele>
        <time>2018-03-12T13:03:58Z</time>
      </trkpt>
      <trkpt lat="44.49761" lon="1.3878">
        <ele>146.53941052628</ele>
        <time>2018-03-12T13:04:03Z</time>
      </trkpt>
      <trkpt lat="44.49765" lon="1.38782">
        <ele>146.5710172422</ele>
        <time>2018-03-12T13:04:07Z</time>
      </trkpt>
      <trkpt lat="44.49774" lon="1.38786">
        <ele>146.45125234328</ele>
        <time>2018-03-12T13:04:11Z</time>
      </trkpt>
      <trkpt lat="44.49784" lon="1.38789">
        <ele>146.96632058201</ele>
        <time>2018-03-12T13:04:16Z</time>
      </trkpt>
      <trkpt lat="44.49787" lon="1.3879">
        <ele>146.41689145789</ele>
        <time>2018-03-12T13:04:22Z</time>
      </trkpt>
      <trkpt lat="44.49793" lon="1.38792">
        <ele>145.84697884099</ele>
        <time>2018-03-12T13:04:26Z</time>
      </trkpt>
      <trkpt lat="44.49799" lon="1.38792">
        <ele>145.62306648783</ele>
        <time>2018-03-12T13:04:31Z</time>
      </trkpt>
      <trkpt lat="44.49807" lon="1.3879">
        <ele>145.00656125662</ele>
        <time>2018-03-12T13:04:36Z</time>
      </trkpt>
      <trkpt lat="44.49811" lon="1.38789">
        <ele>144.78220022634</ele>
        <time>2018-03-12T13:04:40Z</time>
      </trkpt>
      <trkpt lat="44.49814" lon="1.38788">
        <ele>144.68758252826</ele>
        <time>2018-03-12T13:04:44Z</time>
      </trkpt>
      <trkpt lat="44.49818" lon="1.38788">
        <ele>144.5656172203</ele>
        <time>2018-03-12T13:04:48Z</time>
      </trkpt>
      <trkpt lat="44.49821" lon="1.38788">
        <ele>144.62786531087</ele>
        <time>2018-03-12T13:04:51Z</time>
      </trkpt>
      <trkpt lat="44.49826" lon="1.38789">
        <ele>144.94687931405</ele>
        <time>2018-03-12T13:04:56Z</time>
      </trkpt>
      <trkpt lat="44.49835" lon="1.38792">
        <ele>144.37456440378</ele>
        <time>2018-03-12T13:05:05Z</time>
      </trkpt>
      <trkpt lat="44.49839" lon="1.38792">
        <ele>144.28246880252</ele>
        <time>2018-03-12T13:05:09Z</time>
      </trkpt>
      <trkpt lat="44.4984" lon="1.38792">
        <ele>144.14171602445</ele>
        <time>2018-03-12T13:05:10Z</time>
      </trkpt>
      <trkpt lat="44.49845" lon="1.38796">
        <ele>143.32076648672</ele>
        <time>2018-03-12T13:05:16Z</time>
      </trkpt>
      <trkpt lat="44.49848" lon="1.38801">
        <ele>143.8019684007</ele>
        <time>2018-03-12T13:05:21Z</time>
      </trkpt>
      <trkpt lat="44.4985" lon="1.38807">
        <ele>144.22546677996</ele>
        <time>2018-03-12T13:05:26Z</time>
      </trkpt>
      <trkpt lat="44.49854" lon="1.38809">
        <ele>144.27806991199</ele>
        <time>2018-03-12T13:05:32Z</time>
      </trkpt>
      <trkpt lat="44.4986" lon="1.38815">
        <ele>144.36096469278</ele>
        <time>2018-03-12T13:05:37Z</time>
      </trkpt>
      <trkpt lat="44.49863" lon="1.38819">
        <ele>144.52873765134</ele>
        <time>2018-03-12T13:05:40Z</time>
      </trkpt>
      <trkpt lat="44.49869" lon="1.38827">
        <ele>144.46964635975</ele>
        <time>2018-03-12T13:05:45Z</time>
      </trkpt>
      <trkpt lat="44.49873" lon="1.38835">
        <ele>144.35630135768</ele>
        <time>2018-03-12T13:05:50Z</time>
      </trkpt>
      <trkpt lat="44.49874" lon="1.3884">
        <ele>144.24761975932</ele>
        <time>2018-03-12T13:05:55Z</time>
      </trkpt>
      <trkpt lat="44.49875" lon="1.38842">
        <ele>144.19097270653</ele>
        <time>2018-03-12T13:05:56Z</time>
      </trkpt>
      <trkpt lat="44.49878" lon="1.38847">
        <ele>144.11851020393</ele>
        <time>2018-03-12T13:06:00Z</time>
      </trkpt>
      <trkpt lat="44.49881" lon="1.38854">
        <ele>143.89133118298</ele>
        <time>2018-03-12T13:06:04Z</time>
      </trkpt>
      <trkpt lat="44.49883" lon="1.38871">
        <ele>142.9455256889</ele>
        <time>2018-03-12T13:06:12Z</time>
      </trkpt>
      <trkpt lat="44.49881" lon="1.38882">
        <ele>142.60612344803</ele>
        <time>2018-03-12T13:06:17Z</time>
      </trkpt>
      <trkpt lat="44.49883" lon="1.38908">
        <ele>142.96860957491</ele>
        <time>2018-03-12T13:06:28Z</time>
      </trkpt>
      <trkpt lat="44.49883" lon="1.38913">
        <ele>143.48996982581</ele>
        <time>2018-03-12T13:06:31Z</time>
      </trkpt>
      <trkpt lat="44.49892" lon="1.38946">
        <ele>147.47056645157</ele>
        <time>2018-03-12T13:06:44Z</time>
      </trkpt>
      <trkpt lat="44.49894" lon="1.38953">
        <ele>148.23510615887</ele>
        <time>2018-03-12T13:06:48Z</time>
      </trkpt>
      <trkpt lat="44.49895" lon="1.38965">
        <ele>149.23479189087</ele>
        <time>2018-03-12T13:06:53Z</time>
      </trkpt>
      <trkpt lat="44.49895" lon="1.38975">
        <ele>150.08116235845</ele>
        <time>2018-03-12T13:06:57Z</time>
      </trkpt>
      <trkpt lat="44.49888" lon="1.38987">
        <ele>151.74882166015</ele>
        <time>2018-03-12T13:07:02Z</time>
      </trkpt>
      <trkpt lat="44.49886" lon="1.38996">
        <ele>152.98674982839</ele>
        <time>2018-03-12T13:07:06Z</time>
      </trkpt>
      <trkpt lat="44.49886" lon="1.39">
        <ele>153.63968337177</ele>
        <time>2018-03-12T13:07:10Z</time>
      </trkpt>
      <trkpt lat="44.49888" lon="1.39004">
        <ele>152.35530086254</ele>
        <time>2018-03-12T13:07:16Z</time>
      </trkpt>
      <trkpt lat="44.49893" lon="1.39015">
        <ele>151.81679307373</ele>
        <time>2018-03-12T13:07:21Z</time>
      </trkpt>
      <trkpt lat="44.49896" lon="1.39027">
        <ele>151.53152409381</ele>
        <time>2018-03-12T13:07:26Z</time>
      </trkpt>
      <trkpt lat="44.499" lon="1.39026">
        <ele>151.412601681</ele>
        <time>2018-03-12T13:07:30Z</time>
      </trkpt>
      <trkpt lat="44.49904" lon="1.39032">
        <ele>151.45959034839</ele>
        <time>2018-03-12T13:07:35Z</time>
      </trkpt>
      <trkpt lat="44.49906" lon="1.39034">
        <ele>151.34122498048</ele>
        <time>2018-03-12T13:07:37Z</time>
      </trkpt>
      <trkpt lat="44.49912" lon="1.39041">
        <ele>151.76592225919</ele>
        <time>2018-03-12T13:07:42Z</time>
      </trkpt>
      <trkpt lat="44.49915" lon="1.39046">
        <ele>152.36973675281</ele>
        <time>2018-03-12T13:07:47Z</time>
      </trkpt>
      <trkpt lat="44.49917" lon="1.39051">
        <ele>152.66933719943</ele>
        <time>2018-03-12T13:07:56Z</time>
      </trkpt>
      <trkpt lat="44.49917" lon="1.39057">
        <ele>153.08378065752</ele>
        <time>2018-03-12T13:08:02Z</time>
      </trkpt>
      <trkpt lat="44.49918" lon="1.39066">
        <ele>153.39994866552</ele>
        <time>2018-03-12T13:08:07Z</time>
      </trkpt>
      <trkpt lat="44.49916" lon="1.39073">
        <ele>153.08074415104</ele>
        <time>2018-03-12T13:08:11Z</time>
      </trkpt>
      <trkpt lat="44.49913" lon="1.39078">
        <ele>152.73096733716</ele>
        <time>2018-03-12T13:08:15Z</time>
      </trkpt>
      <trkpt lat="44.49908" lon="1.39082">
        <ele>152.22932638456</ele>
        <time>2018-03-12T13:08:20Z</time>
      </trkpt>
      <trkpt lat="44.49903" lon="1.39086">
        <ele>151.88340791628</ele>
        <time>2018-03-12T13:08:24Z</time>
      </trkpt>
      <trkpt lat="44.49896" lon="1.39091">
        <ele>151.65691768525</ele>
        <time>2018-03-12T13:08:29Z</time>
      </trkpt>
      <trkpt lat="44.49891" lon="1.39094">
        <ele>151.42461864215</ele>
        <time>2018-03-12T13:08:33Z</time>
      </trkpt>
      <trkpt lat="44.49885" lon="1.39097">
        <ele>150.8976548392</ele>
        <time>2018-03-12T13:08:37Z</time>
      </trkpt>
      <trkpt lat="44.49881" lon="1.39098">
        <ele>150.59516651617</ele>
        <time>2018-03-12T13:08:41Z</time>
      </trkpt>
      <trkpt lat="44.49877" lon="1.391">
        <ele>150.33127148996</ele>
        <time>2018-03-12T13:08:48Z</time>
      </trkpt>
      <trkpt lat="44.49873" lon="1.39104">
        <ele>150.12820969297</ele>
        <time>2018-03-12T13:08:53Z</time>
      </trkpt>
      <trkpt lat="44.49868" lon="1.39116">
        <ele>149.77689565954</ele>
        <time>2018-03-12T13:08:58Z</time>
      </trkpt>
      <trkpt lat="44.49865" lon="1.39121">
        <ele>149.92945467475</ele>
        <time>2018-03-12T13:09:06Z</time>
      </trkpt>
      <trkpt lat="44.49864" lon="1.39127">
        <ele>149.67870739938</ele>
        <time>2018-03-12T13:09:14Z</time>
      </trkpt>
      <trkpt lat="44.49864" lon="1.39133">
        <ele>149.42763373291</ele>
        <time>2018-03-12T13:09:18Z</time>
      </trkpt>
      <trkpt lat="44.49868" lon="1.39135">
        <ele>146.66333438623</ele>
        <time>2018-03-12T13:09:36Z</time>
      </trkpt>
      <trkpt lat="44.49872" lon="1.39143">
        <ele>144.23123794204</ele>
        <time>2018-03-12T13:09:41Z</time>
      </trkpt>
      <trkpt lat="44.49879" lon="1.39155">
        <ele>142.11060192029</ele>
        <time>2018-03-12T13:09:46Z</time>
      </trkpt>
      <trkpt lat="44.49883" lon="1.39166">
        <ele>140.62563115503</ele>
        <time>2018-03-12T13:09:50Z</time>
      </trkpt>
      <trkpt lat="44.49885" lon="1.39173">
        <ele>139.8688883863</ele>
        <time>2018-03-12T13:09:54Z</time>
      </trkpt>
      <trkpt lat="44.49889" lon="1.39184">
        <ele>139.26280730385</ele>
        <time>2018-03-12T13:09:59Z</time>
      </trkpt>
      <trkpt lat="44.49891" lon="1.39192">
        <ele>139.11213885775</ele>
        <time>2018-03-12T13:10:03Z</time>
      </trkpt>
      <trkpt lat="44.49896" lon="1.39202">
        <ele>139.69962902034</ele>
        <time>2018-03-12T13:10:08Z</time>
      </trkpt>
      <trkpt lat="44.499" lon="1.39209">
        <ele>140.72011263167</ele>
        <time>2018-03-12T13:10:12Z</time>
      </trkpt>
      <trkpt lat="44.49905" lon="1.39213">
        <ele>141.91945324933</ele>
        <time>2018-03-12T13:10:17Z</time>
      </trkpt>
      <trkpt lat="44.4991" lon="1.39216">
        <ele>142.69474870511</ele>
        <time>2018-03-12T13:10:21Z</time>
      </trkpt>
      <trkpt lat="44.49917" lon="1.39222">
        <ele>143.49420722783</ele>
        <time>2018-03-12T13:10:26Z</time>
      </trkpt>
      <trkpt lat="44.49922" lon="1.39223">
        <ele>144.04896113464</ele>
        <time>2018-03-12T13:10:30Z</time>
      </trkpt>
      <trkpt lat="44.49927" lon="1.39226">
        <ele>144.57356338506</ele>
        <time>2018-03-12T13:10:35Z</time>
      </trkpt>
      <trkpt lat="44.49932" lon="1.39227">
        <ele>145.04198487278</ele>
        <time>2018-03-12T13:10:39Z</time>
      </trkpt>
      <trkpt lat="44.49936" lon="1.39229">
        <ele>145.38824760398</ele>
        <time>2018-03-12T13:10:43Z</time>
      </trkpt>
      <trkpt lat="44.49942" lon="1.39231">
        <ele>145.80427704226</ele>
        <time>2018-03-12T13:10:47Z</time>
      </trkpt>
      <trkpt lat="44.49947" lon="1.39234">
        <ele>146.04926357373</ele>
        <time>2018-03-12T13:10:52Z</time>
      </trkpt>
      <trkpt lat="44.49955" lon="1.39237">
        <ele>146.38692190715</ele>
        <time>2018-03-12T13:10:57Z</time>
      </trkpt>
      <trkpt lat="44.49959" lon="1.39239">
        <ele>146.69174885154</ele>
        <time>2018-03-12T13:11:01Z</time>
      </trkpt>
      <trkpt lat="44.49964" lon="1.39239">
        <ele>146.73114714047</ele>
        <time>2018-03-12T13:11:05Z</time>
      </trkpt>
      <trkpt lat="44.49972" lon="1.39243">
        <ele>146.89381731514</ele>
        <time>2018-03-12T13:11:09Z</time>
      </trkpt>
      <trkpt lat="44.49981" lon="1.39247">
        <ele>147.3311606279</ele>
        <time>2018-03-12T13:11:14Z</time>
      </trkpt>
      <trkpt lat="44.49985" lon="1.39247">
        <ele>147.80459472627</ele>
        <time>2018-03-12T13:11:18Z</time>
      </trkpt>
      <trkpt lat="44.4999" lon="1.39248">
        <ele>148.38565093367</ele>
        <time>2018-03-12T13:11:22Z</time>
      </trkpt>
      <trkpt lat="44.49995" lon="1.39249">
        <ele>148.92583677119</ele>
        <time>2018-03-12T13:11:27Z</time>
      </trkpt>
      <trkpt lat="44.5" lon="1.39251">
        <ele>149.49023899992</ele>
        <time>2018-03-12T13:11:31Z</time>
      </trkpt>
      <trkpt lat="44.50004" lon="1.39253">
        <ele>149.62684804835</ele>
        <time>2018-03-12T13:11:35Z</time>
      </trkpt>
      <trkpt lat="44.50009" lon="1.39254">
        <ele>149.58136524693</ele>
        <time>2018-03-12T13:11:39Z</time>
      </trkpt>
      <trkpt lat="44.50013" lon="1.39256">
        <ele>149.40824218076</ele>
        <time>2018-03-12T13:11:43Z</time>
      </trkpt>
      <trkpt lat="44.50019" lon="1.39258">
        <ele>149.70701989083</ele>
        <time>2018-03-12T13:11:48Z</time>
      </trkpt>
      <trkpt lat="44.50024" lon="1.3926">
        <ele>149.78884871239</ele>
        <time>2018-03-12T13:11:52Z</time>
      </trkpt>
      <trkpt lat="44.50027" lon="1.39262">
        <ele>150.31093666892</ele>
        <time>2018-03-12T13:11:56Z</time>
      </trkpt>
      <trkpt lat="44.50032" lon="1.39264">
        <ele>150.90842935369</ele>
        <time>2018-03-12T13:12:01Z</time>
      </trkpt>
      <trkpt lat="44.50036" lon="1.39265">
        <ele>150.95894802733</ele>
        <time>2018-03-12T13:12:05Z</time>
      </trkpt>
      <trkpt lat="44.50041" lon="1.39265">
        <ele>151.10897514155</ele>
        <time>2018-03-12T13:12:09Z</time>
      </trkpt>
      <trkpt lat="44.50044" lon="1.39268">
        <ele>151.09174158025</ele>
        <time>2018-03-12T13:12:13Z</time>
      </trkpt>
      <trkpt lat="44.50047" lon="1.39271">
        <ele>151.07059816034</ele>
        <time>2018-03-12T13:12:17Z</time>
      </trkpt>
      <trkpt lat="44.50052" lon="1.39273">
        <ele>151.04935393314</ele>
        <time>2018-03-12T13:12:22Z</time>
      </trkpt>
      <trkpt lat="44.50057" lon="1.39275">
        <ele>150.79372967574</ele>
        <time>2018-03-12T13:12:26Z</time>
      </trkpt>
      <trkpt lat="44.50064" lon="1.39279">
        <ele>150.80134482619</ele>
        <time>2018-03-12T13:12:31Z</time>
      </trkpt>
      <trkpt lat="44.50069" lon="1.39282">
        <ele>150.63557090796</ele>
        <time>2018-03-12T13:12:35Z</time>
      </trkpt>
      <trkpt lat="44.50076" lon="1.39284">
        <ele>150.74296741503</ele>
        <time>2018-03-12T13:12:39Z</time>
      </trkpt>
      <trkpt lat="44.50079" lon="1.39285">
        <ele>150.59786540992</ele>
        <time>2018-03-12T13:12:43Z</time>
      </trkpt>
      <trkpt lat="44.50087" lon="1.3929">
        <ele>150.49016661741</ele>
        <time>2018-03-12T13:12:47Z</time>
      </trkpt>
      <trkpt lat="44.50095" lon="1.39292">
        <ele>150.57133997287</ele>
        <time>2018-03-12T13:12:52Z</time>
      </trkpt>
      <trkpt lat="44.50101" lon="1.39294">
        <ele>150.03615974277</ele>
        <time>2018-03-12T13:12:57Z</time>
      </trkpt>
      <trkpt lat="44.50107" lon="1.39294">
        <ele>149.82934054768</ele>
        <time>2018-03-12T13:13:02Z</time>
      </trkpt>
      <trkpt lat="44.50113" lon="1.39296">
        <ele>150.03280881883</ele>
        <time>2018-03-12T13:13:06Z</time>
      </trkpt>
      <trkpt lat="44.50118" lon="1.39299">
        <ele>150.20792570741</ele>
        <time>2018-03-12T13:13:11Z</time>
      </trkpt>
      <trkpt lat="44.50126" lon="1.39301">
        <ele>150.11775947878</ele>
        <time>2018-03-12T13:13:16Z</time>
      </trkpt>
      <trkpt lat="44.50131" lon="1.39303">
        <ele>150.36267001165</ele>
        <time>2018-03-12T13:13:20Z</time>
      </trkpt>
      <trkpt lat="44.50135" lon="1.39304">
        <ele>150.23941787327</ele>
        <time>2018-03-12T13:13:24Z</time>
      </trkpt>
      <trkpt lat="44.50141" lon="1.39307">
        <ele>150.70679717008</ele>
        <time>2018-03-12T13:13:28Z</time>
      </trkpt>
      <trkpt lat="44.50147" lon="1.39309">
        <ele>151.13374922505</ele>
        <time>2018-03-12T13:13:32Z</time>
      </trkpt>
      <trkpt lat="44.50152" lon="1.39311">
        <ele>151.75901771744</ele>
        <time>2018-03-12T13:13:37Z</time>
      </trkpt>
      <trkpt lat="44.50156" lon="1.39312">
        <ele>151.9845382731</ele>
        <time>2018-03-12T13:13:41Z</time>
      </trkpt>
      <trkpt lat="44.50161" lon="1.39313">
        <ele>152.22214742257</ele>
        <time>2018-03-12T13:13:46Z</time>
      </trkpt>
      <trkpt lat="44.50164" lon="1.39315">
        <ele>152.25286146729</ele>
        <time>2018-03-12T13:13:50Z</time>
      </trkpt>
      <trkpt lat="44.50169" lon="1.39315">
        <ele>152.17151012802</ele>
        <time>2018-03-12T13:13:54Z</time>
      </trkpt>
      <trkpt lat="44.50177" lon="1.39316">
        <ele>152.00059225928</ele>
        <time>2018-03-12T13:13:58Z</time>
      </trkpt>
      <trkpt lat="44.50182" lon="1.39316">
        <ele>151.95467363272</ele>
        <time>2018-03-12T13:14:02Z</time>
      </trkpt>
      <trkpt lat="44.50186" lon="1.39318">
        <ele>151.6870161144</ele>
        <time>2018-03-12T13:14:07Z</time>
      </trkpt>
      <trkpt lat="44.50193" lon="1.39319">
        <ele>152.03474472227</ele>
        <time>2018-03-12T13:14:12Z</time>
      </trkpt>
      <trkpt lat="44.50198" lon="1.39319">
        <ele>152.32345314126</ele>
        <time>2018-03-12T13:14:16Z</time>
      </trkpt>
      <trkpt lat="44.50203" lon="1.39321">
        <ele>152.7743799464</ele>
        <time>2018-03-12T13:14:21Z</time>
      </trkpt>
      <trkpt lat="44.50209" lon="1.39322">
        <ele>152.90731708294</ele>
        <time>2018-03-12T13:14:25Z</time>
      </trkpt>
      <trkpt lat="44.50213" lon="1.39323">
        <ele>153.1532975171</ele>
        <time>2018-03-12T13:14:29Z</time>
      </trkpt>
      <trkpt lat="44.50221" lon="1.39325">
        <ele>153.3528928877</ele>
        <time>2018-03-12T13:14:34Z</time>
      </trkpt>
      <trkpt lat="44.50225" lon="1.39326">
        <ele>153.79250908183</ele>
        <time>2018-03-12T13:14:38Z</time>
      </trkpt>
      <trkpt lat="44.5023" lon="1.39327">
        <ele>153.82096305058</ele>
        <time>2018-03-12T13:14:42Z</time>
      </trkpt>
      <trkpt lat="44.50235" lon="1.39329">
        <ele>153.73880269959</ele>
        <time>2018-03-12T13:14:47Z</time>
      </trkpt>
      <trkpt lat="44.5024" lon="1.39329">
        <ele>153.83589579359</ele>
        <time>2018-03-12T13:14:52Z</time>
      </trkpt>
      <trkpt lat="44.50245" lon="1.39331">
        <ele>153.47448221277</ele>
        <time>2018-03-12T13:14:56Z</time>
      </trkpt>
      <trkpt lat="44.5025" lon="1.39332">
        <ele>153.32641649865</ele>
        <time>2018-03-12T13:15:01Z</time>
      </trkpt>
      <trkpt lat="44.50255" lon="1.39333">
        <ele>153.66262174929</ele>
        <time>2018-03-12T13:15:05Z</time>
      </trkpt>
      <trkpt lat="44.50261" lon="1.39335">
        <ele>154.41357395168</ele>
        <time>2018-03-12T13:15:10Z</time>
      </trkpt>
      <trkpt lat="44.50263" lon="1.39336">
        <ele>154.80260239891</ele>
        <time>2018-03-12T13:15:14Z</time>
      </trkpt>
      <trkpt lat="44.50272" lon="1.39338">
        <ele>155.30184577176</ele>
        <time>2018-03-12T13:15:19Z</time>
      </trkpt>
      <trkpt lat="44.50275" lon="1.39339">
        <ele>155.47039655477</ele>
        <time>2018-03-12T13:15:23Z</time>
      </trkpt>
      <trkpt lat="44.50282" lon="1.3934">
        <ele>156.00562623243</ele>
        <time>2018-03-12T13:15:28Z</time>
      </trkpt>
      <trkpt lat="44.50287" lon="1.39342">
        <ele>156.08549167168</ele>
        <time>2018-03-12T13:15:32Z</time>
      </trkpt>
      <trkpt lat="44.50291" lon="1.39343">
        <ele>156.35362865684</ele>
        <time>2018-03-12T13:15:36Z</time>
      </trkpt>
      <trkpt lat="44.50296" lon="1.39346">
        <ele>156.33723697299</ele>
        <time>2018-03-12T13:15:40Z</time>
      </trkpt>
      <trkpt lat="44.50301" lon="1.39348">
        <ele>156.3588252559</ele>
        <time>2018-03-12T13:15:44Z</time>
      </trkpt>
      <trkpt lat="44.50306" lon="1.3935">
        <ele>156.68380178992</ele>
        <time>2018-03-12T13:15:49Z</time>
      </trkpt>
      <trkpt lat="44.50313" lon="1.39352">
        <ele>156.98266229482</ele>
        <time>2018-03-12T13:15:53Z</time>
      </trkpt>
      <trkpt lat="44.50318" lon="1.39353">
        <ele>157.53263332205</ele>
        <time>2018-03-12T13:15:57Z</time>
      </trkpt>
      <trkpt lat="44.50325" lon="1.39353">
        <ele>158.07244809193</ele>
        <time>2018-03-12T13:16:02Z</time>
      </trkpt>
      <trkpt lat="44.50328" lon="1.39353">
        <ele>158.137101929</ele>
        <time>2018-03-12T13:16:06Z</time>
      </trkpt>
      <trkpt lat="44.50334" lon="1.39351">
        <ele>158.1507335228</ele>
        <time>2018-03-12T13:16:10Z</time>
      </trkpt>
      <trkpt lat="44.50341" lon="1.39349">
        <ele>158.08966753832</ele>
        <time>2018-03-12T13:16:15Z</time>
      </trkpt>
      <trkpt lat="44.50347" lon="1.39347">
        <ele>157.90035418027</ele>
        <time>2018-03-12T13:16:20Z</time>
      </trkpt>
      <trkpt lat="44.50351" lon="1.39344">
        <ele>157.84276769455</ele>
        <time>2018-03-12T13:16:24Z</time>
      </trkpt>
      <trkpt lat="44.50355" lon="1.39341">
        <ele>157.88339604766</ele>
        <time>2018-03-12T13:16:28Z</time>
      </trkpt>
      <trkpt lat="44.50362" lon="1.39339">
        <ele>158.24004136365</ele>
        <time>2018-03-12T13:16:33Z</time>
      </trkpt>
      <trkpt lat="44.50369" lon="1.39336">
        <ele>158.64078564644</ele>
        <time>2018-03-12T13:16:38Z</time>
      </trkpt>
      <trkpt lat="44.50373" lon="1.39336">
        <ele>158.68882453913</ele>
        <time>2018-03-12T13:16:42Z</time>
      </trkpt>
      <trkpt lat="44.50377" lon="1.39336">
        <ele>158.51921533062</ele>
        <time>2018-03-12T13:16:46Z</time>
      </trkpt>
      <trkpt lat="44.50381" lon="1.39336">
        <ele>158.50089724022</ele>
        <time>2018-03-12T13:16:50Z</time>
      </trkpt>
      <trkpt lat="44.50385" lon="1.39335">
        <ele>158.62246345935</ele>
        <time>2018-03-12T13:16:54Z</time>
      </trkpt>
      <trkpt lat="44.50393" lon="1.39336">
        <ele>158.94703656631</ele>
        <time>2018-03-12T13:16:59Z</time>
      </trkpt>
      <trkpt lat="44.50399" lon="1.39336">
        <ele>159.13404713311</ele>
        <time>2018-03-12T13:17:04Z</time>
      </trkpt>
      <trkpt lat="44.50405" lon="1.39337">
        <ele>158.94979718905</ele>
        <time>2018-03-12T13:17:08Z</time>
      </trkpt>
      <trkpt lat="44.50408" lon="1.39337">
        <ele>158.66875649636</ele>
        <time>2018-03-12T13:17:12Z</time>
      </trkpt>
      <trkpt lat="44.50413" lon="1.39337">
        <ele>158.42628101454</ele>
        <time>2018-03-12T13:17:17Z</time>
      </trkpt>
      <trkpt lat="44.50417" lon="1.39339">
        <ele>158.38207822814</ele>
        <time>2018-03-12T13:17:21Z</time>
      </trkpt>
      <trkpt lat="44.50422" lon="1.3934">
        <ele>157.99321673135</ele>
        <time>2018-03-12T13:17:25Z</time>
      </trkpt>
      <trkpt lat="44.50428" lon="1.39343">
        <ele>157.70282630157</ele>
        <time>2018-03-12T13:17:30Z</time>
      </trkpt>
      <trkpt lat="44.50432" lon="1.39344">
        <ele>157.41249340837</ele>
        <time>2018-03-12T13:17:34Z</time>
      </trkpt>
      <trkpt lat="44.50436" lon="1.39347">
        <ele>157.27422148846</ele>
        <time>2018-03-12T13:17:38Z</time>
      </trkpt>
      <trkpt lat="44.50444" lon="1.39353">
        <ele>157.35423983496</ele>
        <time>2018-03-12T13:17:43Z</time>
      </trkpt>
      <trkpt lat="44.50451" lon="1.39358">
        <ele>157.40066934506</ele>
        <time>2018-03-12T13:17:48Z</time>
      </trkpt>
      <trkpt lat="44.50456" lon="1.39364">
        <ele>157.42025722373</ele>
        <time>2018-03-12T13:17:52Z</time>
      </trkpt>
      <trkpt lat="44.50459" lon="1.39366">
        <ele>157.26851332574</ele>
        <time>2018-03-12T13:17:56Z</time>
      </trkpt>
      <trkpt lat="44.50464" lon="1.3937">
        <ele>157.10401114298</ele>
        <time>2018-03-12T13:18:00Z</time>
      </trkpt>
      <trkpt lat="44.5047" lon="1.39374">
        <ele>156.84219368876</ele>
        <time>2018-03-12T13:18:05Z</time>
      </trkpt>
      <trkpt lat="44.50477" lon="1.39378">
        <ele>156.6891255849</ele>
        <time>2018-03-12T13:18:10Z</time>
      </trkpt>
      <trkpt lat="44.50482" lon="1.39382">
        <ele>156.65557533859</ele>
        <time>2018-03-12T13:18:15Z</time>
      </trkpt>
      <trkpt lat="44.50485" lon="1.39387">
        <ele>156.24799431507</ele>
        <time>2018-03-12T13:18:19Z</time>
      </trkpt>
      <trkpt lat="44.50487" lon="1.39393">
        <ele>155.74046863159</ele>
        <time>2018-03-12T13:18:23Z</time>
      </trkpt>
      <trkpt lat="44.50493" lon="1.39397">
        <ele>155.49102714293</ele>
        <time>2018-03-12T13:18:28Z</time>
      </trkpt>
      <trkpt lat="44.50498" lon="1.394">
        <ele>155.63590555635</ele>
        <time>2018-03-12T13:18:32Z</time>
      </trkpt>
      <trkpt lat="44.50503" lon="1.394">
        <ele>155.54975807552</ele>
        <time>2018-03-12T13:18:36Z</time>
      </trkpt>
      <trkpt lat="44.50509" lon="1.39395">
        <ele>155.89418814362</ele>
        <time>2018-03-12T13:18:41Z</time>
      </trkpt>
      <trkpt lat="44.50512" lon="1.3939">
        <ele>156.14754614626</ele>
        <time>2018-03-12T13:18:45Z</time>
      </trkpt>
      <trkpt lat="44.50515" lon="1.39385">
        <ele>156.08327557968</ele>
        <time>2018-03-12T13:18:49Z</time>
      </trkpt>
      <trkpt lat="44.50518" lon="1.39379">
        <ele>156.14711923218</ele>
        <time>2018-03-12T13:18:53Z</time>
      </trkpt>
      <trkpt lat="44.50525" lon="1.39371">
        <ele>156.1594808473</ele>
        <time>2018-03-12T13:18:58Z</time>
      </trkpt>
      <trkpt lat="44.50528" lon="1.39364">
        <ele>156.4569102875</ele>
        <time>2018-03-12T13:19:02Z</time>
      </trkpt>
      <trkpt lat="44.50532" lon="1.39358">
        <ele>156.63583058809</ele>
        <time>2018-03-12T13:19:06Z</time>
      </trkpt>
      <trkpt lat="44.50535" lon="1.39353">
        <ele>156.89588807124</ele>
        <time>2018-03-12T13:19:10Z</time>
      </trkpt>
      <trkpt lat="44.50539" lon="1.39348">
        <ele>157.73912966586</ele>
        <time>2018-03-12T13:19:15Z</time>
      </trkpt>
      <trkpt lat="44.50542" lon="1.39343">
        <ele>158.18788958699</ele>
        <time>2018-03-12T13:19:19Z</time>
      </trkpt>
      <trkpt lat="44.50545" lon="1.39337">
        <ele>158.68550341863</ele>
        <time>2018-03-12T13:19:23Z</time>
      </trkpt>
      <trkpt lat="44.50549" lon="1.39331">
        <ele>158.82785005026</ele>
        <time>2018-03-12T13:19:27Z</time>
      </trkpt>
      <trkpt lat="44.50554" lon="1.39324">
        <ele>159.02704505282</ele>
        <time>2018-03-12T13:19:32Z</time>
      </trkpt>
      <trkpt lat="44.50556" lon="1.39319">
        <ele>158.95028758253</ele>
        <time>2018-03-12T13:19:37Z</time>
      </trkpt>
      <trkpt lat="44.50559" lon="1.39314">
        <ele>159.07069701901</ele>
        <time>2018-03-12T13:19:41Z</time>
      </trkpt>
      <trkpt lat="44.50561" lon="1.39308">
        <ele>159.41718022186</ele>
        <time>2018-03-12T13:19:46Z</time>
      </trkpt>
      <trkpt lat="44.50562" lon="1.39304">
        <ele>159.55938433362</ele>
        <time>2018-03-12T13:19:50Z</time>
      </trkpt>
      <trkpt lat="44.50564" lon="1.39295">
        <ele>159.55148412906</ele>
        <time>2018-03-12T13:19:55Z</time>
      </trkpt>
      <trkpt lat="44.50565" lon="1.39286">
        <ele>159.95386656755</ele>
        <time>2018-03-12T13:20:00Z</time>
      </trkpt>
      <trkpt lat="44.50565" lon="1.39277">
        <ele>160.00796249925</ele>
        <time>2018-03-12T13:20:05Z</time>
      </trkpt>
      <trkpt lat="44.50564" lon="1.39271">
        <ele>159.85821848481</ele>
        <time>2018-03-12T13:20:13Z</time>
      </trkpt>
      <trkpt lat="44.50566" lon="1.39265">
        <ele>157.01178614273</ele>
        <time>2018-03-12T13:20:47Z</time>
      </trkpt>
      <trkpt lat="44.50567" lon="1.39259">
        <ele>157.3489988887</ele>
        <time>2018-03-12T13:20:56Z</time>
      </trkpt>
      <trkpt lat="44.50568" lon="1.39253">
        <ele>156.86572923776</ele>
        <time>2018-03-12T13:21:31Z</time>
      </trkpt>
      <trkpt lat="44.50564" lon="1.39249">
        <ele>156.64673665054</ele>
        <time>2018-03-12T13:21:36Z</time>
      </trkpt>
      <trkpt lat="44.50568" lon="1.39247">
        <ele>156.83476783313</ele>
        <time>2018-03-12T13:21:44Z</time>
      </trkpt>
      <trkpt lat="44.50576" lon="1.39245">
        <ele>157.27937076204</ele>
        <time>2018-03-12T13:21:49Z</time>
      </trkpt>
      <trkpt lat="44.5058" lon="1.39242">
        <ele>157.70899192777</ele>
        <time>2018-03-12T13:21:53Z</time>
      </trkpt>
      <trkpt lat="44.50585" lon="1.39239">
        <ele>157.81053157934</ele>
        <time>2018-03-12T13:21:57Z</time>
      </trkpt>
      <trkpt lat="44.50591" lon="1.39232">
        <ele>157.65900800284</ele>
        <time>2018-03-12T13:22:02Z</time>
      </trkpt>
      <trkpt lat="44.50597" lon="1.39231">
        <ele>157.93284819755</ele>
        <time>2018-03-12T13:22:06Z</time>
      </trkpt>
      <trkpt lat="44.506" lon="1.39228">
        <ele>158.06645361185</ele>
        <time>2018-03-12T13:22:10Z</time>
      </trkpt>
      <trkpt lat="44.50604" lon="1.39225">
        <ele>158.49621812835</ele>
        <time>2018-03-12T13:22:16Z</time>
      </trkpt>
      <trkpt lat="44.50607" lon="1.39222">
        <ele>158.13519480738</ele>
        <time>2018-03-12T13:22:22Z</time>
      </trkpt>
      <trkpt lat="44.50612" lon="1.39218">
        <ele>157.97454076658</ele>
        <time>2018-03-12T13:22:27Z</time>
      </trkpt>
      <trkpt lat="44.50615" lon="1.39215">
        <ele>157.89981368098</ele>
        <time>2018-03-12T13:22:31Z</time>
      </trkpt>
      <trkpt lat="44.50621" lon="1.3921">
        <ele>157.53016453684</ele>
        <time>2018-03-12T13:22:36Z</time>
      </trkpt>
      <trkpt lat="44.50625" lon="1.39206">
        <ele>157.60128061854</ele>
        <time>2018-03-12T13:22:40Z</time>
      </trkpt>
      <trkpt lat="44.50629" lon="1.392">
        <ele>157.57844957728</ele>
        <time>2018-03-12T13:22:45Z</time>
      </trkpt>
      <trkpt lat="44.50633" lon="1.39197">
        <ele>157.99359702383</ele>
        <time>2018-03-12T13:22:50Z</time>
      </trkpt>
      <trkpt lat="44.50636" lon="1.39195">
        <ele>158.37474127639</ele>
        <time>2018-03-12T13:22:54Z</time>
      </trkpt>
      <trkpt lat="44.5064" lon="1.39192">
        <ele>158.74533479867</ele>
        <time>2018-03-12T13:22:59Z</time>
      </trkpt>
      <trkpt lat="44.50644" lon="1.3919">
        <ele>158.97137542645</ele>
        <time>2018-03-12T13:23:05Z</time>
      </trkpt>
      <trkpt lat="44.50647" lon="1.39187">
        <ele>159.32274900961</ele>
        <time>2018-03-12T13:23:10Z</time>
      </trkpt>
      <trkpt lat="44.50651" lon="1.39184">
        <ele>158.86654630755</ele>
        <time>2018-03-12T13:23:16Z</time>
      </trkpt>
      <trkpt lat="44.50655" lon="1.39181">
        <ele>158.82637815519</ele>
        <time>2018-03-12T13:23:21Z</time>
      </trkpt>
      <trkpt lat="44.50659" lon="1.39178">
        <ele>159.10495455608</ele>
        <time>2018-03-12T13:23:27Z</time>
      </trkpt>
      <trkpt lat="44.50662" lon="1.39174">
        <ele>159.01764553921</ele>
        <time>2018-03-12T13:23:32Z</time>
      </trkpt>
      <trkpt lat="44.5067" lon="1.39168">
        <ele>158.53531627241</ele>
        <time>2018-03-12T13:23:37Z</time>
      </trkpt>
      <trkpt lat="44.50674" lon="1.39167">
        <ele>158.57014311263</ele>
        <time>2018-03-12T13:23:44Z</time>
      </trkpt>
      <trkpt lat="44.50677" lon="1.39166">
        <ele>158.94737052417</ele>
        <time>2018-03-12T13:23:50Z</time>
      </trkpt>
      <trkpt lat="44.5068" lon="1.39166">
        <ele>158.96792835101</ele>
        <time>2018-03-12T13:23:55Z</time>
      </trkpt>
      <trkpt lat="44.50687" lon="1.39168">
        <ele>159.05069395724</ele>
        <time>2018-03-12T13:23:59Z</time>
      </trkpt>
      <trkpt lat="44.50692" lon="1.39168">
        <ele>159.27611313934</ele>
        <time>2018-03-12T13:24:04Z</time>
      </trkpt>
      <trkpt lat="44.50698" lon="1.39167">
        <ele>159.77654046128</ele>
        <time>2018-03-12T13:24:08Z</time>
      </trkpt>
      <trkpt lat="44.50704" lon="1.39164">
        <ele>160.19365081301</ele>
        <time>2018-03-12T13:24:13Z</time>
      </trkpt>
      <trkpt lat="44.50708" lon="1.39165">
        <ele>160.36247156056</ele>
        <time>2018-03-12T13:24:19Z</time>
      </trkpt>
      <trkpt lat="44.50712" lon="1.39163">
        <ele>160.51850868395</ele>
        <time>2018-03-12T13:24:23Z</time>
      </trkpt>
      <trkpt lat="44.50717" lon="1.39161">
        <ele>160.6850063787</ele>
        <time>2018-03-12T13:24:27Z</time>
      </trkpt>
      <trkpt lat="44.5072" lon="1.39157">
        <ele>160.65479495434</ele>
        <time>2018-03-12T13:24:33Z</time>
      </trkpt>
      <trkpt lat="44.50725" lon="1.39157">
        <ele>160.78542931992</ele>
        <time>2018-03-12T13:24:37Z</time>
      </trkpt>
      <trkpt lat="44.50729" lon="1.39157">
        <ele>162.71677740551</ele>
        <time>2018-03-12T13:24:52Z</time>
      </trkpt>
      <trkpt lat="44.50732" lon="1.39155">
        <ele>163.84813562383</ele>
        <time>2018-03-12T13:24:57Z</time>
      </trkpt>
      <trkpt lat="44.5074" lon="1.3915">
        <ele>164.49967512844</ele>
        <time>2018-03-12T13:25:02Z</time>
      </trkpt>
      <trkpt lat="44.50743" lon="1.39149">
        <ele>165.00378793469</ele>
        <time>2018-03-12T13:25:07Z</time>
      </trkpt>
      <trkpt lat="44.50754" lon="1.39149">
        <ele>165.22776291494</ele>
        <time>2018-03-12T13:25:11Z</time>
      </trkpt>
      <trkpt lat="44.50758" lon="1.39146">
        <ele>165.39326742356</ele>
        <time>2018-03-12T13:25:18Z</time>
      </trkpt>
      <trkpt lat="44.50762" lon="1.39142">
        <ele>165.00348488651</ele>
        <time>2018-03-12T13:25:22Z</time>
      </trkpt>
      <trkpt lat="44.50765" lon="1.3914">
        <ele>164.82768838933</ele>
        <time>2018-03-12T13:25:27Z</time>
      </trkpt>
      <trkpt lat="44.50769" lon="1.39139">
        <ele>164.46264714543</ele>
        <time>2018-03-12T13:25:35Z</time>
      </trkpt>
      <trkpt lat="44.50777" lon="1.39137">
        <ele>164.66096264134</ele>
        <time>2018-03-12T13:25:40Z</time>
      </trkpt>
      <trkpt lat="44.50786" lon="1.39133">
        <ele>165.28182261269</ele>
        <time>2018-03-12T13:25:44Z</time>
      </trkpt>
      <trkpt lat="44.50792" lon="1.3913">
        <ele>165.60568661788</ele>
        <time>2018-03-12T13:25:48Z</time>
      </trkpt>
      <trkpt lat="44.50801" lon="1.39126">
        <ele>165.68864421867</ele>
        <time>2018-03-12T13:25:52Z</time>
      </trkpt>
      <trkpt lat="44.50805" lon="1.39123">
        <ele>166.34977760698</ele>
        <time>2018-03-12T13:25:58Z</time>
      </trkpt>
      <trkpt lat="44.50808" lon="1.39121">
        <ele>166.82592891755</ele>
        <time>2018-03-12T13:26:03Z</time>
      </trkpt>
      <trkpt lat="44.50813" lon="1.39118">
        <ele>167.27678495472</ele>
        <time>2018-03-12T13:26:08Z</time>
      </trkpt>
      <trkpt lat="44.50818" lon="1.39117">
        <ele>167.51736290373</ele>
        <time>2018-03-12T13:26:12Z</time>
      </trkpt>
      <trkpt lat="44.50822" lon="1.39114">
        <ele>167.65121766227</ele>
        <time>2018-03-12T13:26:16Z</time>
      </trkpt>
      <trkpt lat="44.50828" lon="1.39111">
        <ele>168.04706836523</ele>
        <time>2018-03-12T13:26:21Z</time>
      </trkpt>
      <trkpt lat="44.50833" lon="1.39109">
        <ele>168.78687643497</ele>
        <time>2018-03-12T13:26:26Z</time>
      </trkpt>
      <trkpt lat="44.50837" lon="1.39107">
        <ele>169.05582590992</ele>
        <time>2018-03-12T13:26:30Z</time>
      </trkpt>
      <trkpt lat="44.50841" lon="1.39105">
        <ele>169.38424821691</ele>
        <time>2018-03-12T13:26:34Z</time>
      </trkpt>
      <trkpt lat="44.50846" lon="1.39103">
        <ele>170.15826074903</ele>
        <time>2018-03-12T13:26:39Z</time>
      </trkpt>
      <trkpt lat="44.50851" lon="1.39102">
        <ele>170.43122342944</ele>
        <time>2018-03-12T13:26:43Z</time>
      </trkpt>
      <trkpt lat="44.50855" lon="1.39101">
        <ele>170.61432324791</ele>
        <time>2018-03-12T13:26:47Z</time>
      </trkpt>
      <trkpt lat="44.50863" lon="1.39097">
        <ele>170.74269195497</ele>
        <time>2018-03-12T13:26:51Z</time>
      </trkpt>
      <trkpt lat="44.50868" lon="1.39095">
        <ele>171.17187867031</ele>
        <time>2018-03-12T13:26:56Z</time>
      </trkpt>
      <trkpt lat="44.50872" lon="1.39092">
        <ele>171.93062455002</ele>
        <time>2018-03-12T13:27:01Z</time>
      </trkpt>
      <trkpt lat="44.50876" lon="1.3909">
        <ele>172.29992232904</ele>
        <time>2018-03-12T13:27:06Z</time>
      </trkpt>
      <trkpt lat="44.50881" lon="1.39088">
        <ele>172.4184855024</ele>
        <time>2018-03-12T13:27:11Z</time>
      </trkpt>
      <trkpt lat="44.50888" lon="1.39085">
        <ele>172.7602471901</ele>
        <time>2018-03-12T13:27:16Z</time>
      </trkpt>
      <trkpt lat="44.50892" lon="1.39082">
        <ele>173.18178112873</ele>
        <time>2018-03-12T13:27:20Z</time>
      </trkpt>
      <trkpt lat="44.50896" lon="1.39081">
        <ele>173.13279056359</ele>
        <time>2018-03-12T13:27:24Z</time>
      </trkpt>
      <trkpt lat="44.509" lon="1.39077">
        <ele>173.41856866471</ele>
        <time>2018-03-12T13:27:29Z</time>
      </trkpt>
      <trkpt lat="44.50904" lon="1.39079">
        <ele>173.5836553725</ele>
        <time>2018-03-12T13:27:37Z</time>
      </trkpt>
      <trkpt lat="44.50908" lon="1.39076">
        <ele>173.85193843444</ele>
        <time>2018-03-12T13:27:41Z</time>
      </trkpt>
      <trkpt lat="44.50914" lon="1.39071">
        <ele>174.57797472467</ele>
        <time>2018-03-12T13:27:46Z</time>
      </trkpt>
      <trkpt lat="44.50919" lon="1.39071">
        <ele>175.25443132909</ele>
        <time>2018-03-12T13:27:50Z</time>
      </trkpt>
      <trkpt lat="44.50924" lon="1.39071">
        <ele>175.53263217346</ele>
        <time>2018-03-12T13:27:54Z</time>
      </trkpt>
      <trkpt lat="44.50929" lon="1.39072">
        <ele>175.7832578441</ele>
        <time>2018-03-12T13:27:59Z</time>
      </trkpt>
      <trkpt lat="44.50934" lon="1.39075">
        <ele>175.41881935376</ele>
        <time>2018-03-12T13:28:07Z</time>
      </trkpt>
      <trkpt lat="44.50937" lon="1.39078">
        <ele>175.21783447353</ele>
        <time>2018-03-12T13:28:47Z</time>
      </trkpt>
      <trkpt lat="44.50943" lon="1.39075">
        <ele>175.58841827067</ele>
        <time>2018-03-12T13:28:52Z</time>
      </trkpt>
      <trkpt lat="44.50946" lon="1.39071">
        <ele>175.69679453986</ele>
        <time>2018-03-12T13:28:58Z</time>
      </trkpt>
      <trkpt lat="44.50949" lon="1.39066">
        <ele>175.88881524001</ele>
        <time>2018-03-12T13:29:03Z</time>
      </trkpt>
      <trkpt lat="44.50952" lon="1.39063">
        <ele>175.94178668992</ele>
        <time>2018-03-12T13:29:08Z</time>
      </trkpt>
      <trkpt lat="44.50957" lon="1.3906">
        <ele>175.6751383987</ele>
        <time>2018-03-12T13:29:13Z</time>
      </trkpt>
      <trkpt lat="44.5096" lon="1.39058">
        <ele>175.28309270095</ele>
        <time>2018-03-12T13:29:20Z</time>
      </trkpt>
      <trkpt lat="44.50964" lon="1.39056">
        <ele>174.76417841592</ele>
        <time>2018-03-12T13:29:26Z</time>
      </trkpt>
      <trkpt lat="44.50968" lon="1.39054">
        <ele>174.65775754386</ele>
        <time>2018-03-12T13:29:32Z</time>
      </trkpt>
      <trkpt lat="44.50973" lon="1.3905">
        <ele>174.55191397242</ele>
        <time>2018-03-12T13:29:36Z</time>
      </trkpt>
      <trkpt lat="44.50977" lon="1.39048">
        <ele>174.37386754296</ele>
        <time>2018-03-12T13:29:41Z</time>
      </trkpt>
      <trkpt lat="44.50983" lon="1.39045">
        <ele>174.07887743978</ele>
        <time>2018-03-12T13:29:46Z</time>
      </trkpt>
      <trkpt lat="44.5099" lon="1.39043">
        <ele>174.07293899457</ele>
        <time>2018-03-12T13:29:51Z</time>
      </trkpt>
      <trkpt lat="44.50996" lon="1.39042">
        <ele>173.7660438869</ele>
        <time>2018-03-12T13:29:56Z</time>
      </trkpt>
      <trkpt lat="44.51" lon="1.39039">
        <ele>173.15648495547</ele>
        <time>2018-03-12T13:30:01Z</time>
      </trkpt>
      <trkpt lat="44.51004" lon="1.39037">
        <ele>172.79663024354</ele>
        <time>2018-03-12T13:30:05Z</time>
      </trkpt>
      <trkpt lat="44.51008" lon="1.39033">
        <ele>172.59596879689</ele>
        <time>2018-03-12T13:30:10Z</time>
      </trkpt>
      <trkpt lat="44.51012" lon="1.39031">
        <ele>172.27305339974</ele>
        <time>2018-03-12T13:30:16Z</time>
      </trkpt>
      <trkpt lat="44.51018" lon="1.39029">
        <ele>171.84130760165</ele>
        <time>2018-03-12T13:30:21Z</time>
      </trkpt>
      <trkpt lat="44.51023" lon="1.39027">
        <ele>171.49207305997</ele>
        <time>2018-03-12T13:30:25Z</time>
      </trkpt>
      <trkpt lat="44.51029" lon="1.39024">
        <ele>170.70749817251</ele>
        <time>2018-03-12T13:30:30Z</time>
      </trkpt>
      <trkpt lat="44.51033" lon="1.39021">
        <ele>170.02125583699</ele>
        <time>2018-03-12T13:30:34Z</time>
      </trkpt>
      <trkpt lat="44.51038" lon="1.3902">
        <ele>169.45202073638</ele>
        <time>2018-03-12T13:30:38Z</time>
      </trkpt>
      <trkpt lat="44.51042" lon="1.39017">
        <ele>168.94304844047</ele>
        <time>2018-03-12T13:30:45Z</time>
      </trkpt>
      <trkpt lat="44.51045" lon="1.39015">
        <ele>168.24525952454</ele>
        <time>2018-03-12T13:30:50Z</time>
      </trkpt>
      <trkpt lat="44.51051" lon="1.39013">
        <ele>167.44610449161</ele>
        <time>2018-03-12T13:30:55Z</time>
      </trkpt>
      <trkpt lat="44.51056" lon="1.39011">
        <ele>167.00702895387</ele>
        <time>2018-03-12T13:30:59Z</time>
      </trkpt>
      <trkpt lat="44.51061" lon="1.3901">
        <ele>166.31961068967</ele>
        <time>2018-03-12T13:31:03Z</time>
      </trkpt>
      <trkpt lat="44.51066" lon="1.39009">
        <ele>165.62167344754</ele>
        <time>2018-03-12T13:31:08Z</time>
      </trkpt>
      <trkpt lat="44.51071" lon="1.39008">
        <ele>164.99150744138</ele>
        <time>2018-03-12T13:31:12Z</time>
      </trkpt>
      <trkpt lat="44.51075" lon="1.39006">
        <ele>164.32631164297</ele>
        <time>2018-03-12T13:31:18Z</time>
      </trkpt>
      <trkpt lat="44.5108" lon="1.39004">
        <ele>164.10956167089</ele>
        <time>2018-03-12T13:31:22Z</time>
      </trkpt>
      <trkpt lat="44.51086" lon="1.39003">
        <ele>163.40674945697</ele>
        <time>2018-03-12T13:31:27Z</time>
      </trkpt>
      <trkpt lat="44.5109" lon="1.39003">
        <ele>162.935369367</ele>
        <time>2018-03-12T13:31:31Z</time>
      </trkpt>
      <trkpt lat="44.51094" lon="1.39002">
        <ele>162.175803582</ele>
        <time>2018-03-12T13:31:36Z</time>
      </trkpt>
      <trkpt lat="44.511" lon="1.39001">
        <ele>161.47988696163</ele>
        <time>2018-03-12T13:31:41Z</time>
      </trkpt>
      <trkpt lat="44.51103" lon="1.39001">
        <ele>160.9916591229</ele>
        <time>2018-03-12T13:31:46Z</time>
      </trkpt>
      <trkpt lat="44.5111" lon="1.39">
        <ele>160.62021635869</ele>
        <time>2018-03-12T13:31:51Z</time>
      </trkpt>
      <trkpt lat="44.51114" lon="1.38999">
        <ele>160.41853943472</ele>
        <time>2018-03-12T13:31:56Z</time>
      </trkpt>
      <trkpt lat="44.51119" lon="1.38999">
        <ele>159.7343567921</ele>
        <time>2018-03-12T13:32:01Z</time>
      </trkpt>
      <trkpt lat="44.51122" lon="1.38998">
        <ele>158.72293670721</ele>
        <time>2018-03-12T13:32:05Z</time>
      </trkpt>
      <trkpt lat="44.51127" lon="1.38998">
        <ele>158.02168893012</ele>
        <time>2018-03-12T13:32:10Z</time>
      </trkpt>
      <trkpt lat="44.51132" lon="1.38997">
        <ele>157.19737293303</ele>
        <time>2018-03-12T13:32:15Z</time>
      </trkpt>
      <trkpt lat="44.51138" lon="1.38997">
        <ele>156.40252001259</ele>
        <time>2018-03-12T13:32:20Z</time>
      </trkpt>
      <trkpt lat="44.51142" lon="1.38998">
        <ele>155.96760891497</ele>
        <time>2018-03-12T13:32:24Z</time>
      </trkpt>
      <trkpt lat="44.51147" lon="1.38998">
        <ele>154.93016315222</ele>
        <time>2018-03-12T13:32:29Z</time>
      </trkpt>
      <trkpt lat="44.51151" lon="1.39002">
        <ele>154.16535778395</ele>
        <time>2018-03-12T13:32:33Z</time>
      </trkpt>
      <trkpt lat="44.51154" lon="1.39007">
        <ele>153.28643382494</ele>
        <time>2018-03-12T13:32:37Z</time>
      </trkpt>
      <trkpt lat="44.51158" lon="1.39012">
        <ele>152.56309618866</ele>
        <time>2018-03-12T13:32:42Z</time>
      </trkpt>
      <trkpt lat="44.5116" lon="1.39017">
        <ele>151.76690214493</ele>
        <time>2018-03-12T13:32:46Z</time>
      </trkpt>
      <trkpt lat="44.51163" lon="1.39022">
        <ele>151.19416197363</ele>
        <time>2018-03-12T13:32:50Z</time>
      </trkpt>
      <trkpt lat="44.51166" lon="1.39028">
        <ele>150.73010611528</ele>
        <time>2018-03-12T13:32:55Z</time>
      </trkpt>
      <trkpt lat="44.5117" lon="1.39033">
        <ele>150.31155197889</ele>
        <time>2018-03-12T13:32:59Z</time>
      </trkpt>
      <trkpt lat="44.51174" lon="1.39038">
        <ele>149.6727252971</ele>
        <time>2018-03-12T13:33:04Z</time>
      </trkpt>
      <trkpt lat="44.5118" lon="1.39042">
        <ele>149.19592859584</ele>
        <time>2018-03-12T13:33:09Z</time>
      </trkpt>
      <trkpt lat="44.51184" lon="1.39045">
        <ele>148.59965293168</ele>
        <time>2018-03-12T13:33:13Z</time>
      </trkpt>
      <trkpt lat="44.51187" lon="1.39047">
        <ele>147.91370375237</ele>
        <time>2018-03-12T13:33:18Z</time>
      </trkpt>
      <trkpt lat="44.51191" lon="1.39049">
        <ele>147.94018539004</ele>
        <time>2018-03-12T13:33:26Z</time>
      </trkpt>
      <trkpt lat="44.51195" lon="1.39049">
        <ele>147.83169516835</ele>
        <time>2018-03-12T13:33:31Z</time>
      </trkpt>
      <trkpt lat="44.51199" lon="1.3905">
        <ele>147.54056850805</ele>
        <time>2018-03-12T13:33:36Z</time>
      </trkpt>
      <trkpt lat="44.51203" lon="1.3905">
        <ele>147.60194253839</ele>
        <time>2018-03-12T13:33:40Z</time>
      </trkpt>
      <trkpt lat="44.51208" lon="1.39051">
        <ele>147.45035013178</ele>
        <time>2018-03-12T13:33:44Z</time>
      </trkpt>
      <trkpt lat="44.51212" lon="1.39052">
        <ele>147.26987843256</ele>
        <time>2018-03-12T13:33:50Z</time>
      </trkpt>
      <trkpt lat="44.51216" lon="1.39054">
        <ele>147.1676117899</ele>
        <time>2018-03-12T13:33:55Z</time>
      </trkpt>
      <trkpt lat="44.5122" lon="1.39058">
        <ele>147.58071721582</ele>
        <time>2018-03-12T13:33:59Z</time>
      </trkpt>
      <trkpt lat="44.51223" lon="1.39063">
        <ele>148.09729889654</ele>
        <time>2018-03-12T13:34:04Z</time>
      </trkpt>
      <trkpt lat="44.51226" lon="1.39067">
        <ele>148.59913972566</ele>
        <time>2018-03-12T13:34:10Z</time>
      </trkpt>
      <trkpt lat="44.51229" lon="1.39072">
        <ele>148.45759721013</ele>
        <time>2018-03-12T13:34:15Z</time>
      </trkpt>
      <trkpt lat="44.51233" lon="1.39079">
        <ele>148.80657472405</ele>
        <time>2018-03-12T13:34:20Z</time>
      </trkpt>
      <trkpt lat="44.51236" lon="1.39082">
        <ele>150.03687916224</ele>
        <time>2018-03-12T13:34:26Z</time>
      </trkpt>
      <trkpt lat="44.51239" lon="1.39087">
        <ele>150.98720335853</ele>
        <time>2018-03-12T13:34:30Z</time>
      </trkpt>
      <trkpt lat="44.51244" lon="1.39093">
        <ele>151.49357275517</ele>
        <time>2018-03-12T13:34:35Z</time>
      </trkpt>
      <trkpt lat="44.51246" lon="1.391">
        <ele>151.54270696282</ele>
        <time>2018-03-12T13:34:39Z</time>
      </trkpt>
      <trkpt lat="44.51249" lon="1.39107">
        <ele>151.68968745334</ele>
        <time>2018-03-12T13:34:43Z</time>
      </trkpt>
      <trkpt lat="44.51252" lon="1.39115">
        <ele>151.92130226157</ele>
        <time>2018-03-12T13:34:48Z</time>
      </trkpt>
      <trkpt lat="44.51254" lon="1.39123">
        <ele>151.88397134872</ele>
        <time>2018-03-12T13:34:53Z</time>
      </trkpt>
      <trkpt lat="44.51256" lon="1.39128">
        <ele>152.02750190367</ele>
        <time>2018-03-12T13:34:57Z</time>
      </trkpt>
      <trkpt lat="44.51259" lon="1.39136">
        <ele>152.02466055696</ele>
        <time>2018-03-12T13:35:02Z</time>
      </trkpt>
      <trkpt lat="44.51262" lon="1.39142">
        <ele>152.04527956644</ele>
        <time>2018-03-12T13:35:07Z</time>
      </trkpt>
      <trkpt lat="44.51264" lon="1.39147">
        <ele>151.85847036113</ele>
        <time>2018-03-12T13:35:11Z</time>
      </trkpt>
      <trkpt lat="44.51266" lon="1.39154">
        <ele>151.94163957033</ele>
        <time>2018-03-12T13:35:16Z</time>
      </trkpt>
      <trkpt lat="44.51268" lon="1.3916">
        <ele>152.14861031348</ele>
        <time>2018-03-12T13:35:20Z</time>
      </trkpt>
      <trkpt lat="44.5127" lon="1.39166">
        <ele>152.06683621977</ele>
        <time>2018-03-12T13:35:24Z</time>
      </trkpt>
      <trkpt lat="44.51272" lon="1.39171">
        <ele>152.38970193055</ele>
        <time>2018-03-12T13:35:30Z</time>
      </trkpt>
      <trkpt lat="44.51273" lon="1.39178">
        <ele>152.37985577602</ele>
        <time>2018-03-12T13:35:35Z</time>
      </trkpt>
      <trkpt lat="44.51275" lon="1.39185">
        <ele>152.26240221277</ele>
        <time>2018-03-12T13:35:39Z</time>
      </trkpt>
      <trkpt lat="44.51275" lon="1.3919">
        <ele>151.98508767075</ele>
        <time>2018-03-12T13:35:43Z</time>
      </trkpt>
      <trkpt lat="44.51276" lon="1.39196">
        <ele>151.37226539362</ele>
        <time>2018-03-12T13:35:47Z</time>
      </trkpt>
      <trkpt lat="44.51277" lon="1.39201">
        <ele>150.87632127245</ele>
        <time>2018-03-12T13:35:51Z</time>
      </trkpt>
      <trkpt lat="44.51278" lon="1.39208">
        <ele>150.60390296381</ele>
        <time>2018-03-12T13:35:55Z</time>
      </trkpt>
      <trkpt lat="44.51279" lon="1.39215">
        <ele>150.28494339675</ele>
        <time>2018-03-12T13:36:00Z</time>
      </trkpt>
      <trkpt lat="44.51279" lon="1.39222">
        <ele>150.01990229904</ele>
        <time>2018-03-12T13:36:04Z</time>
      </trkpt>
      <trkpt lat="44.51279" lon="1.39229">
        <ele>149.52754267362</ele>
        <time>2018-03-12T13:36:09Z</time>
      </trkpt>
      <trkpt lat="44.51279" lon="1.39235">
        <ele>149.65865120703</ele>
        <time>2018-03-12T13:36:13Z</time>
      </trkpt>
      <trkpt lat="44.5128" lon="1.39242">
        <ele>149.06985095087</ele>
        <time>2018-03-12T13:36:17Z</time>
      </trkpt>
      <trkpt lat="44.51281" lon="1.39253">
        <ele>148.45626904494</ele>
        <time>2018-03-12T13:36:22Z</time>
      </trkpt>
      <trkpt lat="44.51283" lon="1.3926">
        <ele>148.39140750728</ele>
        <time>2018-03-12T13:36:26Z</time>
      </trkpt>
      <trkpt lat="44.51285" lon="1.39266">
        <ele>148.37146369319</ele>
        <time>2018-03-12T13:36:30Z</time>
      </trkpt>
      <trkpt lat="44.51286" lon="1.39273">
        <ele>148.41322729117</ele>
        <time>2018-03-12T13:36:34Z</time>
      </trkpt>
      <trkpt lat="44.51286" lon="1.39278">
        <ele>148.29444471597</ele>
        <time>2018-03-12T13:36:38Z</time>
      </trkpt>
      <trkpt lat="44.51288" lon="1.39283">
        <ele>148.39732580117</ele>
        <time>2018-03-12T13:36:42Z</time>
      </trkpt>
      <trkpt lat="44.51289" lon="1.3929">
        <ele>148.50971522209</ele>
        <time>2018-03-12T13:36:46Z</time>
      </trkpt>
      <trkpt lat="44.51293" lon="1.39299">
        <ele>148.57237993063</ele>
        <time>2018-03-12T13:36:51Z</time>
      </trkpt>
      <trkpt lat="44.51297" lon="1.39307">
        <ele>149.0032818071</ele>
        <time>2018-03-12T13:36:56Z</time>
      </trkpt>
      <trkpt lat="44.51299" lon="1.39312">
        <ele>149.34403783381</ele>
        <time>2018-03-12T13:37:02Z</time>
      </trkpt>
      <trkpt lat="44.51302" lon="1.39319">
        <ele>149.76359659516</ele>
        <time>2018-03-12T13:37:07Z</time>
      </trkpt>
      <trkpt lat="44.51305" lon="1.39326">
        <ele>149.78638690883</ele>
        <time>2018-03-12T13:37:11Z</time>
      </trkpt>
      <trkpt lat="44.51308" lon="1.39333">
        <ele>149.5128342739</ele>
        <time>2018-03-12T13:37:15Z</time>
      </trkpt>
      <trkpt lat="44.51311" lon="1.3934">
        <ele>149.51143486636</ele>
        <time>2018-03-12T13:37:19Z</time>
      </trkpt>
      <trkpt lat="44.51314" lon="1.39347">
        <ele>149.76444638959</ele>
        <time>2018-03-12T13:37:24Z</time>
      </trkpt>
      <trkpt lat="44.51314" lon="1.39348">
        <ele>150.05464161122</ele>
        <time>2018-03-12T13:37:25Z</time>
      </trkpt>
      <trkpt lat="44.51315" lon="1.39356">
        <ele>150.74998497093</ele>
        <time>2018-03-12T13:37:34Z</time>
      </trkpt>
      <trkpt lat="44.51319" lon="1.39369">
        <ele>150.81402142834</ele>
        <time>2018-03-12T13:37:40Z</time>
      </trkpt>
      <trkpt lat="44.51321" lon="1.39375">
        <ele>151.77711669865</ele>
        <time>2018-03-12T13:37:46Z</time>
      </trkpt>
      <trkpt lat="44.51324" lon="1.39381">
        <ele>152.5555684918</ele>
        <time>2018-03-12T13:37:50Z</time>
      </trkpt>
      <trkpt lat="44.51326" lon="1.39394">
        <ele>153.34276567543</ele>
        <time>2018-03-12T13:37:55Z</time>
      </trkpt>
      <trkpt lat="44.51328" lon="1.39398">
        <ele>154.06318936528</ele>
        <time>2018-03-12T13:37:59Z</time>
      </trkpt>
      <trkpt lat="44.5133" lon="1.39405">
        <ele>154.73557490132</ele>
        <time>2018-03-12T13:38:04Z</time>
      </trkpt>
      <trkpt lat="44.51331" lon="1.39411">
        <ele>156.14124201908</ele>
        <time>2018-03-12T13:38:10Z</time>
      </trkpt>
      <trkpt lat="44.51333" lon="1.39424">
        <ele>157.94011260779</ele>
        <time>2018-03-12T13:38:15Z</time>
      </trkpt>
      <trkpt lat="44.51343" lon="1.39441">
        <ele>159.01917894646</ele>
        <time>2018-03-12T13:38:20Z</time>
      </trkpt>
      <trkpt lat="44.51346" lon="1.39446">
        <ele>159.46924394281</ele>
        <time>2018-03-12T13:38:24Z</time>
      </trkpt>
      <trkpt lat="44.5135" lon="1.3945">
        <ele>159.87844538289</ele>
        <time>2018-03-12T13:38:28Z</time>
      </trkpt>
      <trkpt lat="44.51352" lon="1.39455">
        <ele>160.50236416325</ele>
        <time>2018-03-12T13:38:33Z</time>
      </trkpt>
      <trkpt lat="44.51355" lon="1.3946">
        <ele>161.11286338788</ele>
        <time>2018-03-12T13:38:38Z</time>
      </trkpt>
      <trkpt lat="44.51357" lon="1.39464">
        <ele>161.76222253116</ele>
        <time>2018-03-12T13:38:42Z</time>
      </trkpt>
      <trkpt lat="44.51357" lon="1.3947">
        <ele>162.11125063329</ele>
        <time>2018-03-12T13:38:46Z</time>
      </trkpt>
      <trkpt lat="44.51361" lon="1.39476">
        <ele>162.18255671539</ele>
        <time>2018-03-12T13:38:51Z</time>
      </trkpt>
      <trkpt lat="44.51362" lon="1.39481">
        <ele>162.38512329905</ele>
        <time>2018-03-12T13:38:56Z</time>
      </trkpt>
      <trkpt lat="44.51365" lon="1.39487">
        <ele>162.20040664866</ele>
        <time>2018-03-12T13:39:01Z</time>
      </trkpt>
      <trkpt lat="44.5137" lon="1.39494">
        <ele>161.9014661616</ele>
        <time>2018-03-12T13:39:06Z</time>
      </trkpt>
      <trkpt lat="44.51373" lon="1.39499">
        <ele>161.7317006931</ele>
        <time>2018-03-12T13:39:10Z</time>
      </trkpt>
      <trkpt lat="44.51377" lon="1.39505">
        <ele>161.46044634812</ele>
        <time>2018-03-12T13:39:15Z</time>
      </trkpt>
      <trkpt lat="44.5138" lon="1.39517">
        <ele>161.13288479739</ele>
        <time>2018-03-12T13:39:19Z</time>
      </trkpt>
      <trkpt lat="44.51382" lon="1.39523">
        <ele>161.1774318418</ele>
        <time>2018-03-12T13:39:24Z</time>
      </trkpt>
      <trkpt lat="44.51385" lon="1.39529">
        <ele>161.13372975568</ele>
        <time>2018-03-12T13:39:29Z</time>
      </trkpt>
      <trkpt lat="44.51386" lon="1.39534">
        <ele>161.58927407978</ele>
        <time>2018-03-12T13:39:33Z</time>
      </trkpt>
      <trkpt lat="44.51388" lon="1.3954">
        <ele>162.10259269662</ele>
        <time>2018-03-12T13:39:38Z</time>
      </trkpt>
      <trkpt lat="44.51387" lon="1.39549">
        <ele>163.19186976069</ele>
        <time>2018-03-12T13:39:42Z</time>
      </trkpt>
      <trkpt lat="44.5139" lon="1.39559">
        <ele>164.17486641083</ele>
        <time>2018-03-12T13:39:46Z</time>
      </trkpt>
      <trkpt lat="44.51393" lon="1.39564">
        <ele>165.30149086218</ele>
        <time>2018-03-12T13:39:50Z</time>
      </trkpt>
      <trkpt lat="44.51395" lon="1.3957">
        <ele>166.18332899324</ele>
        <time>2018-03-12T13:39:55Z</time>
      </trkpt>
      <trkpt lat="44.51397" lon="1.39575">
        <ele>166.01395787246</ele>
        <time>2018-03-12T13:39:59Z</time>
      </trkpt>
      <trkpt lat="44.51398" lon="1.39584">
        <ele>165.77333898799</ele>
        <time>2018-03-12T13:40:03Z</time>
      </trkpt>
      <trkpt lat="44.514" lon="1.39589">
        <ele>165.91720929331</ele>
        <time>2018-03-12T13:40:10Z</time>
      </trkpt>
      <trkpt lat="44.51401" lon="1.396">
        <ele>165.70981163441</ele>
        <time>2018-03-12T13:40:14Z</time>
      </trkpt>
      <trkpt lat="44.51402" lon="1.39604">
        <ele>165.75846680692</ele>
        <time>2018-03-12T13:40:19Z</time>
      </trkpt>
      <trkpt lat="44.51404" lon="1.39613">
        <ele>166.0848699368</ele>
        <time>2018-03-12T13:40:23Z</time>
      </trkpt>
      <trkpt lat="44.51405" lon="1.39622">
        <ele>166.42979071199</ele>
        <time>2018-03-12T13:40:27Z</time>
      </trkpt>
      <trkpt lat="44.51407" lon="1.39628">
        <ele>166.87473946076</ele>
        <time>2018-03-12T13:40:34Z</time>
      </trkpt>
      <trkpt lat="44.51408" lon="1.39636">
        <ele>166.54193830968</ele>
        <time>2018-03-12T13:40:39Z</time>
      </trkpt>
      <trkpt lat="44.51409" lon="1.39645">
        <ele>166.4202538469</ele>
        <time>2018-03-12T13:40:43Z</time>
      </trkpt>
      <trkpt lat="44.5141" lon="1.39653">
        <ele>166.31637808313</ele>
        <time>2018-03-12T13:40:47Z</time>
      </trkpt>
      <trkpt lat="44.51411" lon="1.39659">
        <ele>166.59000138358</ele>
        <time>2018-03-12T13:40:51Z</time>
      </trkpt>
      <trkpt lat="44.51412" lon="1.39667">
        <ele>167.22243147228</ele>
        <time>2018-03-12T13:40:56Z</time>
      </trkpt>
      <trkpt lat="44.51412" lon="1.39674">
        <ele>167.77899810986</ele>
        <time>2018-03-12T13:41:00Z</time>
      </trkpt>
      <trkpt lat="44.51412" lon="1.3968">
        <ele>168.24789440298</ele>
        <time>2018-03-12T13:41:05Z</time>
      </trkpt>
      <trkpt lat="44.51412" lon="1.39686">
        <ele>168.39583274823</ele>
        <time>2018-03-12T13:41:09Z</time>
      </trkpt>
      <trkpt lat="44.51413" lon="1.39692">
        <ele>168.44210740023</ele>
        <time>2018-03-12T13:41:13Z</time>
      </trkpt>
      <trkpt lat="44.51415" lon="1.39698">
        <ele>168.61560005454</ele>
        <time>2018-03-12T13:41:17Z</time>
      </trkpt>
      <trkpt lat="44.51418" lon="1.39705">
        <ele>168.71320264078</ele>
        <time>2018-03-12T13:41:21Z</time>
      </trkpt>
      <trkpt lat="44.51419" lon="1.39711">
        <ele>168.33196778762</ele>
        <time>2018-03-12T13:41:29Z</time>
      </trkpt>
      <trkpt lat="44.5142" lon="1.39715">
        <ele>168.04224842863</ele>
        <time>2018-03-12T13:41:33Z</time>
      </trkpt>
      <trkpt lat="44.5142" lon="1.39722">
        <ele>167.36609113968</ele>
        <time>2018-03-12T13:41:38Z</time>
      </trkpt>
      <trkpt lat="44.51421" lon="1.39728">
        <ele>167.11810425232</ele>
        <time>2018-03-12T13:41:43Z</time>
      </trkpt>
      <trkpt lat="44.51422" lon="1.39735">
        <ele>167.36108607216</ele>
        <time>2018-03-12T13:41:48Z</time>
      </trkpt>
      <trkpt lat="44.5142" lon="1.39745">
        <ele>167.4098468811</ele>
        <time>2018-03-12T13:41:52Z</time>
      </trkpt>
      <trkpt lat="44.51421" lon="1.39753">
        <ele>167.35858800431</ele>
        <time>2018-03-12T13:41:57Z</time>
      </trkpt>
      <trkpt lat="44.5142" lon="1.39771">
        <ele>167.48635890765</ele>
        <time>2018-03-12T13:42:01Z</time>
      </trkpt>
      <trkpt lat="44.51421" lon="1.39778">
        <ele>167.81016037775</ele>
        <time>2018-03-12T13:42:05Z</time>
      </trkpt>
      <trkpt lat="44.51422" lon="1.39784">
        <ele>167.28919107442</ele>
        <time>2018-03-12T13:42:12Z</time>
      </trkpt>
      <trkpt lat="44.51424" lon="1.39791">
        <ele>167.22294738889</ele>
        <time>2018-03-12T13:42:17Z</time>
      </trkpt>
      <trkpt lat="44.51425" lon="1.39797">
        <ele>167.18804494007</ele>
        <time>2018-03-12T13:42:21Z</time>
      </trkpt>
      <trkpt lat="44.51425" lon="1.39804">
        <ele>167.23293253868</ele>
        <time>2018-03-12T13:42:25Z</time>
      </trkpt>
      <trkpt lat="44.51426" lon="1.3981">
        <ele>167.40063498595</ele>
        <time>2018-03-12T13:42:31Z</time>
      </trkpt>
      <trkpt lat="44.51425" lon="1.3982">
        <ele>166.999849633</ele>
        <time>2018-03-12T13:42:36Z</time>
      </trkpt>
      <trkpt lat="44.51423" lon="1.39824">
        <ele>166.7820572737</ele>
        <time>2018-03-12T13:42:40Z</time>
      </trkpt>
      <trkpt lat="44.51422" lon="1.39831">
        <ele>166.47165999083</ele>
        <time>2018-03-12T13:42:45Z</time>
      </trkpt>
      <trkpt lat="44.5142" lon="1.39836">
        <ele>166.2115300472</ele>
        <time>2018-03-12T13:42:51Z</time>
      </trkpt>
      <trkpt lat="44.51419" lon="1.39845">
        <ele>166.48161493523</ele>
        <time>2018-03-12T13:42:56Z</time>
      </trkpt>
      <trkpt lat="44.51418" lon="1.39852">
        <ele>166.75887806738</ele>
        <time>2018-03-12T13:43:01Z</time>
      </trkpt>
      <trkpt lat="44.51416" lon="1.39859">
        <ele>167.15890950666</ele>
        <time>2018-03-12T13:43:05Z</time>
      </trkpt>
      <trkpt lat="44.51414" lon="1.39866">
        <ele>166.93126562362</ele>
        <time>2018-03-12T13:43:10Z</time>
      </trkpt>
      <trkpt lat="44.51413" lon="1.39873">
        <ele>166.53966076807</ele>
        <time>2018-03-12T13:43:14Z</time>
      </trkpt>
      <trkpt lat="44.51412" lon="1.39885">
        <ele>166.69833400158</ele>
        <time>2018-03-12T13:43:19Z</time>
      </trkpt>
      <trkpt lat="44.5141" lon="1.39895">
        <ele>166.85514868825</ele>
        <time>2018-03-12T13:43:23Z</time>
      </trkpt>
      <trkpt lat="44.51406" lon="1.39902">
        <ele>167.10841964636</ele>
        <time>2018-03-12T13:43:28Z</time>
      </trkpt>
      <trkpt lat="44.51403" lon="1.39908">
        <ele>167.47499334962</ele>
        <time>2018-03-12T13:43:33Z</time>
      </trkpt>
      <trkpt lat="44.51402" lon="1.39914">
        <ele>167.83343359176</ele>
        <time>2018-03-12T13:43:37Z</time>
      </trkpt>
      <trkpt lat="44.514" lon="1.39919">
        <ele>167.606387862</ele>
        <time>2018-03-12T13:43:42Z</time>
      </trkpt>
      <trkpt lat="44.51399" lon="1.39925">
        <ele>167.10532932447</ele>
        <time>2018-03-12T13:43:47Z</time>
      </trkpt>
      <trkpt lat="44.51397" lon="1.39936">
        <ele>167.05958921659</ele>
        <time>2018-03-12T13:43:52Z</time>
      </trkpt>
      <trkpt lat="44.51396" lon="1.39942">
        <ele>167.30922086279</ele>
        <time>2018-03-12T13:43:56Z</time>
      </trkpt>
      <trkpt lat="44.51394" lon="1.39948">
        <ele>167.48820792921</ele>
        <time>2018-03-12T13:44:01Z</time>
      </trkpt>
      <trkpt lat="44.51394" lon="1.39955">
        <ele>167.86200221996</ele>
        <time>2018-03-12T13:44:05Z</time>
      </trkpt>
      <trkpt lat="44.51392" lon="1.3996">
        <ele>168.66639242783</ele>
        <time>2018-03-12T13:44:09Z</time>
      </trkpt>
      <trkpt lat="44.5139" lon="1.39968">
        <ele>169.52073818159</ele>
        <time>2018-03-12T13:44:13Z</time>
      </trkpt>
      <trkpt lat="44.51388" lon="1.39977">
        <ele>169.9351647702</ele>
        <time>2018-03-12T13:44:18Z</time>
      </trkpt>
      <trkpt lat="44.51387" lon="1.39985">
        <ele>169.89723648638</ele>
        <time>2018-03-12T13:44:22Z</time>
      </trkpt>
      <trkpt lat="44.51387" lon="1.3999">
        <ele>169.96525009365</ele>
        <time>2018-03-12T13:44:26Z</time>
      </trkpt>
      <trkpt lat="44.51383" lon="1.4">
        <ele>169.97150691766</ele>
        <time>2018-03-12T13:44:31Z</time>
      </trkpt>
      <trkpt lat="44.5138" lon="1.40006">
        <ele>170.02949032273</ele>
        <time>2018-03-12T13:44:35Z</time>
      </trkpt>
      <trkpt lat="44.51377" lon="1.40016">
        <ele>169.48194532609</ele>
        <time>2018-03-12T13:44:40Z</time>
      </trkpt>
      <trkpt lat="44.51373" lon="1.40024">
        <ele>169.19595559748</ele>
        <time>2018-03-12T13:44:45Z</time>
      </trkpt>
      <trkpt lat="44.51372" lon="1.40029">
        <ele>169.10040129953</ele>
        <time>2018-03-12T13:44:49Z</time>
      </trkpt>
      <trkpt lat="44.51369" lon="1.40036">
        <ele>169.15392371469</ele>
        <time>2018-03-12T13:44:54Z</time>
      </trkpt>
      <trkpt lat="44.51367" lon="1.40042">
        <ele>169.76087540325</ele>
        <time>2018-03-12T13:44:59Z</time>
      </trkpt>
      <trkpt lat="44.51365" lon="1.40052">
        <ele>170.40645207365</ele>
        <time>2018-03-12T13:45:03Z</time>
      </trkpt>
      <trkpt lat="44.51363" lon="1.40064">
        <ele>171.79019392606</ele>
        <time>2018-03-12T13:45:08Z</time>
      </trkpt>
      <trkpt lat="44.51361" lon="1.40072">
        <ele>172.53018964912</ele>
        <time>2018-03-12T13:45:12Z</time>
      </trkpt>
      <trkpt lat="44.51358" lon="1.40079">
        <ele>172.96297478642</ele>
        <time>2018-03-12T13:45:17Z</time>
      </trkpt>
      <trkpt lat="44.51355" lon="1.40087">
        <ele>173.03641367194</ele>
        <time>2018-03-12T13:45:22Z</time>
      </trkpt>
      <trkpt lat="44.51354" lon="1.40092">
        <ele>173.57297119665</ele>
        <time>2018-03-12T13:45:29Z</time>
      </trkpt>
      <trkpt lat="44.51352" lon="1.40097">
        <ele>173.36730454542</ele>
        <time>2018-03-12T13:45:36Z</time>
      </trkpt>
      <trkpt lat="44.5135" lon="1.40103">
        <ele>173.20399561932</ele>
        <time>2018-03-12T13:45:40Z</time>
      </trkpt>
      <trkpt lat="44.51349" lon="1.40112">
        <ele>174.14788842336</ele>
        <time>2018-03-12T13:45:45Z</time>
      </trkpt>
      <trkpt lat="44.51348" lon="1.40121">
        <ele>174.77938107583</ele>
        <time>2018-03-12T13:45:50Z</time>
      </trkpt>
      <trkpt lat="44.51347" lon="1.4013">
        <ele>174.94985273682</ele>
        <time>2018-03-12T13:45:54Z</time>
      </trkpt>
      <trkpt lat="44.51347" lon="1.40137">
        <ele>175.44529913423</ele>
        <time>2018-03-12T13:45:59Z</time>
      </trkpt>
      <trkpt lat="44.51346" lon="1.40143">
        <ele>175.99643824052</ele>
        <time>2018-03-12T13:46:05Z</time>
      </trkpt>
      <trkpt lat="44.51346" lon="1.40149">
        <ele>176.12519767187</ele>
        <time>2018-03-12T13:46:11Z</time>
      </trkpt>
      <trkpt lat="44.51346" lon="1.40156">
        <ele>176.35827069233</ele>
        <time>2018-03-12T13:46:16Z</time>
      </trkpt>
      <trkpt lat="44.51346" lon="1.40161">
        <ele>176.36037622417</ele>
        <time>2018-03-12T13:46:21Z</time>
      </trkpt>
      <trkpt lat="44.51346" lon="1.40166">
        <ele>176.62885970241</ele>
        <time>2018-03-12T13:46:26Z</time>
      </trkpt>
      <trkpt lat="44.51345" lon="1.40174">
        <ele>177.18014475739</ele>
        <time>2018-03-12T13:46:30Z</time>
      </trkpt>
      <trkpt lat="44.51343" lon="1.40182">
        <ele>177.88550202963</ele>
        <time>2018-03-12T13:46:35Z</time>
      </trkpt>
      <trkpt lat="44.51341" lon="1.40192">
        <ele>178.46821048608</ele>
        <time>2018-03-12T13:46:40Z</time>
      </trkpt>
      <trkpt lat="44.5134" lon="1.40201">
        <ele>178.88001156779</ele>
        <time>2018-03-12T13:46:44Z</time>
      </trkpt>
      <trkpt lat="44.51338" lon="1.40206">
        <ele>179.31721939706</ele>
        <time>2018-03-12T13:46:49Z</time>
      </trkpt>
      <trkpt lat="44.51336" lon="1.4022">
        <ele>179.93582526555</ele>
        <time>2018-03-12T13:46:53Z</time>
      </trkpt>
      <trkpt lat="44.51332" lon="1.40235">
        <ele>181.14466547112</ele>
        <time>2018-03-12T13:46:58Z</time>
      </trkpt>
      <trkpt lat="44.51333" lon="1.40241">
        <ele>182.31684952618</ele>
        <time>2018-03-12T13:47:02Z</time>
      </trkpt>
      <trkpt lat="44.51334" lon="1.40248">
        <ele>184.01375107033</ele>
        <time>2018-03-12T13:47:07Z</time>
      </trkpt>
      <trkpt lat="44.51334" lon="1.40254">
        <ele>185.54279119633</ele>
        <time>2018-03-12T13:47:13Z</time>
      </trkpt>
      <trkpt lat="44.51332" lon="1.4026">
        <ele>187.3363554251</ele>
        <time>2018-03-12T13:47:18Z</time>
      </trkpt>
      <trkpt lat="44.51331" lon="1.40266">
        <ele>188.14599546257</ele>
        <time>2018-03-12T13:47:22Z</time>
      </trkpt>
      <trkpt lat="44.51331" lon="1.40273">
        <ele>188.9172179653</ele>
        <time>2018-03-12T13:47:27Z</time>
      </trkpt>
      <trkpt lat="44.51332" lon="1.40278">
        <ele>190.19176468519</ele>
        <time>2018-03-12T13:47:33Z</time>
      </trkpt>
      <trkpt lat="44.51333" lon="1.40284">
        <ele>191.09087844416</ele>
        <time>2018-03-12T13:47:38Z</time>
      </trkpt>
      <trkpt lat="44.51333" lon="1.40289">
        <ele>192.13407496561</ele>
        <time>2018-03-12T13:47:43Z</time>
      </trkpt>
      <trkpt lat="44.51334" lon="1.40295">
        <ele>193.28157448403</ele>
        <time>2018-03-12T13:47:48Z</time>
      </trkpt>
      <trkpt lat="44.51333" lon="1.40302">
        <ele>194.34423532663</ele>
        <time>2018-03-12T13:47:52Z</time>
      </trkpt>
      <trkpt lat="44.51334" lon="1.40313">
        <ele>195.01865462027</ele>
        <time>2018-03-12T13:47:56Z</time>
      </trkpt>
      <trkpt lat="44.51331" lon="1.40322">
        <ele>196.21995025756</ele>
        <time>2018-03-12T13:48:01Z</time>
      </trkpt>
      <trkpt lat="44.51331" lon="1.40328">
        <ele>197.32698373053</ele>
        <time>2018-03-12T13:48:07Z</time>
      </trkpt>
      <trkpt lat="44.51331" lon="1.40338">
        <ele>198.1444779108</ele>
        <time>2018-03-12T13:48:12Z</time>
      </trkpt>
      <trkpt lat="44.5133" lon="1.40346">
        <ele>198.36551168008</ele>
        <time>2018-03-12T13:48:17Z</time>
      </trkpt>
      <trkpt lat="44.5133" lon="1.40352">
        <ele>198.52821449757</ele>
        <time>2018-03-12T13:48:24Z</time>
      </trkpt>
      <trkpt lat="44.51329" lon="1.40359">
        <ele>199.83874695688</ele>
        <time>2018-03-12T13:48:29Z</time>
      </trkpt>
      <trkpt lat="44.51325" lon="1.40362">
        <ele>202.1762304538</ele>
        <time>2018-03-12T13:48:35Z</time>
      </trkpt>
      <trkpt lat="44.51322" lon="1.40371">
        <ele>203.65271548023</ele>
        <time>2018-03-12T13:48:40Z</time>
      </trkpt>
      <trkpt lat="44.5132" lon="1.4038">
        <ele>204.19341077513</ele>
        <time>2018-03-12T13:48:44Z</time>
      </trkpt>
      <trkpt lat="44.5132" lon="1.40383">
        <ele>204.5315649369</ele>
        <time>2018-03-12T13:48:49Z</time>
      </trkpt>
      <trkpt lat="44.51321" lon="1.40391">
        <ele>204.48311429105</ele>
        <time>2018-03-12T13:48:54Z</time>
      </trkpt>
      <trkpt lat="44.51322" lon="1.40397">
        <ele>204.76167634024</ele>
        <time>2018-03-12T13:48:59Z</time>
      </trkpt>
      <trkpt lat="44.51323" lon="1.40403">
        <ele>204.93679684205</ele>
        <time>2018-03-12T13:49:05Z</time>
      </trkpt>
      <trkpt lat="44.51323" lon="1.40409">
        <ele>205.80595538047</ele>
        <time>2018-03-12T13:49:09Z</time>
      </trkpt>
      <trkpt lat="44.51321" lon="1.40403">
        <ele>210.31663728029</ele>
        <time>2018-03-12T13:49:38Z</time>
      </trkpt>
      <trkpt lat="44.51321" lon="1.40398">
        <ele>211.22188765288</ele>
        <time>2018-03-12T13:49:43Z</time>
      </trkpt>
      <trkpt lat="44.51316" lon="1.40394">
        <ele>212.13424255058</ele>
        <time>2018-03-12T13:49:48Z</time>
      </trkpt>
      <trkpt lat="44.51316" lon="1.40389">
        <ele>213.39593884483</ele>
        <time>2018-03-12T13:49:53Z</time>
      </trkpt>
      <trkpt lat="44.51314" lon="1.40384">
        <ele>214.27988521093</ele>
        <time>2018-03-12T13:49:58Z</time>
      </trkpt>
      <trkpt lat="44.51313" lon="1.40376">
        <ele>215.45351921156</ele>
        <time>2018-03-12T13:50:02Z</time>
      </trkpt>
      <trkpt lat="44.51312" lon="1.40371">
        <ele>217.38823878164</ele>
        <time>2018-03-12T13:50:10Z</time>
      </trkpt>
      <trkpt lat="44.51311" lon="1.40366">
        <ele>218.07619381546</ele>
        <time>2018-03-12T13:50:14Z</time>
      </trkpt>
      <trkpt lat="44.51306" lon="1.40361">
        <ele>218.30219854941</ele>
        <time>2018-03-12T13:50:18Z</time>
      </trkpt>
      <trkpt lat="44.51304" lon="1.40356">
        <ele>217.61588639661</ele>
        <time>2018-03-12T13:50:24Z</time>
      </trkpt>
      <trkpt lat="44.51299" lon="1.40353">
        <ele>217.86877330857</ele>
        <time>2018-03-12T13:50:28Z</time>
      </trkpt>
      <trkpt lat="44.51295" lon="1.40351">
        <ele>217.75483991702</ele>
        <time>2018-03-12T13:50:33Z</time>
      </trkpt>
      <trkpt lat="44.5129" lon="1.4035">
        <ele>217.8449924128</ele>
        <time>2018-03-12T13:50:38Z</time>
      </trkpt>
      <trkpt lat="44.51287" lon="1.40349">
        <ele>217.64094282843</ele>
        <time>2018-03-12T13:50:42Z</time>
      </trkpt>
      <trkpt lat="44.51281" lon="1.40349">
        <ele>217.5771385615</ele>
        <time>2018-03-12T13:50:46Z</time>
      </trkpt>
      <trkpt lat="44.51277" lon="1.40348">
        <ele>217.83681007399</ele>
        <time>2018-03-12T13:50:50Z</time>
      </trkpt>
      <trkpt lat="44.51272" lon="1.40348">
        <ele>218.05724719105</ele>
        <time>2018-03-12T13:50:54Z</time>
      </trkpt>
      <trkpt lat="44.51268" lon="1.40346">
        <ele>218.69095667283</ele>
        <time>2018-03-12T13:51:03Z</time>
      </trkpt>
      <trkpt lat="44.51265" lon="1.40343">
        <ele>219.40760552244</ele>
        <time>2018-03-12T13:51:10Z</time>
      </trkpt>
      <trkpt lat="44.51261" lon="1.40341">
        <ele>219.7625284318</ele>
        <time>2018-03-12T13:51:17Z</time>
      </trkpt>
      <trkpt lat="44.51256" lon="1.40339">
        <ele>220.48693856447</ele>
        <time>2018-03-12T13:51:23Z</time>
      </trkpt>
      <trkpt lat="44.51257" lon="1.40345">
        <ele>225.56679333806</ele>
        <time>2018-03-12T13:51:46Z</time>
      </trkpt>
      <trkpt lat="44.5126" lon="1.40349">
        <ele>226.37765174037</ele>
        <time>2018-03-12T13:51:54Z</time>
      </trkpt>
      <trkpt lat="44.51261" lon="1.40355">
        <ele>227.26338620868</ele>
        <time>2018-03-12T13:52:00Z</time>
      </trkpt>
      <trkpt lat="44.51262" lon="1.4036">
        <ele>227.89253524874</ele>
        <time>2018-03-12T13:52:04Z</time>
      </trkpt>
      <trkpt lat="44.51264" lon="1.40366">
        <ele>228.491419398</ele>
        <time>2018-03-12T13:52:09Z</time>
      </trkpt>
      <trkpt lat="44.51268" lon="1.40371">
        <ele>229.31440947396</ele>
        <time>2018-03-12T13:52:14Z</time>
      </trkpt>
      <trkpt lat="44.5127" lon="1.40376">
        <ele>229.9953233041</ele>
        <time>2018-03-12T13:52:18Z</time>
      </trkpt>
      <trkpt lat="44.51271" lon="1.40382">
        <ele>230.85650889123</ele>
        <time>2018-03-12T13:52:23Z</time>
      </trkpt>
      <trkpt lat="44.51272" lon="1.40391">
        <ele>231.27737945921</ele>
        <time>2018-03-12T13:52:28Z</time>
      </trkpt>
      <trkpt lat="44.51273" lon="1.40396">
        <ele>231.42230583921</ele>
        <time>2018-03-12T13:52:32Z</time>
      </trkpt>
      <trkpt lat="44.51275" lon="1.40401">
        <ele>232.0233488206</ele>
        <time>2018-03-12T13:52:37Z</time>
      </trkpt>
      <trkpt lat="44.51276" lon="1.40406">
        <ele>234.03024460677</ele>
        <time>2018-03-12T13:52:45Z</time>
      </trkpt>
      <trkpt lat="44.51276" lon="1.40411">
        <ele>234.83166515306</ele>
        <time>2018-03-12T13:52:49Z</time>
      </trkpt>
      <trkpt lat="44.51278" lon="1.40417">
        <ele>235.82972824445</ele>
        <time>2018-03-12T13:52:54Z</time>
      </trkpt>
      <trkpt lat="44.51278" lon="1.40424">
        <ele>236.23858822146</ele>
        <time>2018-03-12T13:52:59Z</time>
      </trkpt>
      <trkpt lat="44.5128" lon="1.4043">
        <ele>237.16292700425</ele>
        <time>2018-03-12T13:53:06Z</time>
      </trkpt>
      <trkpt lat="44.51281" lon="1.40436">
        <ele>237.23722644928</ele>
        <time>2018-03-12T13:53:13Z</time>
      </trkpt>
      <trkpt lat="44.51283" lon="1.40441">
        <ele>237.55281057634</ele>
        <time>2018-03-12T13:53:18Z</time>
      </trkpt>
      <trkpt lat="44.51284" lon="1.40447">
        <ele>238.816695272</ele>
        <time>2018-03-12T13:53:26Z</time>
      </trkpt>
      <trkpt lat="44.51286" lon="1.40452">
        <ele>240.01591784359</ele>
        <time>2018-03-12T13:53:32Z</time>
      </trkpt>
      <trkpt lat="44.51287" lon="1.40455">
        <ele>240.82907619123</ele>
        <time>2018-03-12T13:53:36Z</time>
      </trkpt>
      <trkpt lat="44.51291" lon="1.40465">
        <ele>241.82890228789</ele>
        <time>2018-03-12T13:53:41Z</time>
      </trkpt>
      <trkpt lat="44.51294" lon="1.4047">
        <ele>242.89561055231</ele>
        <time>2018-03-12T13:53:47Z</time>
      </trkpt>
      <trkpt lat="44.51297" lon="1.40472">
        <ele>243.45138986059</ele>
        <time>2018-03-12T13:53:53Z</time>
      </trkpt>
      <trkpt lat="44.51301" lon="1.40475">
        <ele>244.18193055709</ele>
        <time>2018-03-12T13:54:00Z</time>
      </trkpt>
      <trkpt lat="44.51305" lon="1.40478">
        <ele>245.14800987289</ele>
        <time>2018-03-12T13:54:06Z</time>
      </trkpt>
      <trkpt lat="44.51309" lon="1.40478">
        <ele>246.94249131755</ele>
        <time>2018-03-12T13:54:14Z</time>
      </trkpt>
      <trkpt lat="44.51313" lon="1.40481">
        <ele>248.50979308094</ele>
        <time>2018-03-12T13:54:22Z</time>
      </trkpt>
      <trkpt lat="44.51318" lon="1.40483">
        <ele>249.19019230632</ele>
        <time>2018-03-12T13:54:26Z</time>
      </trkpt>
      <trkpt lat="44.51322" lon="1.40488">
        <ele>250.03182531117</ele>
        <time>2018-03-12T13:54:31Z</time>
      </trkpt>
      <trkpt lat="44.51326" lon="1.40487">
        <ele>250.43808623713</ele>
        <time>2018-03-12T13:54:37Z</time>
      </trkpt>
      <trkpt lat="44.51332" lon="1.40489">
        <ele>250.81420950852</ele>
        <time>2018-03-12T13:54:41Z</time>
      </trkpt>
      <trkpt lat="44.51336" lon="1.40489">
        <ele>251.05956417507</ele>
        <time>2018-03-12T13:54:46Z</time>
      </trkpt>
      <trkpt lat="44.51341" lon="1.40489">
        <ele>251.22697650715</ele>
        <time>2018-03-12T13:54:50Z</time>
      </trkpt>
      <trkpt lat="44.51345" lon="1.40489">
        <ele>251.80737323114</ele>
        <time>2018-03-12T13:54:56Z</time>
      </trkpt>
      <trkpt lat="44.5135" lon="1.40489">
        <ele>252.2061071476</ele>
        <time>2018-03-12T13:55:02Z</time>
      </trkpt>
      <trkpt lat="44.51353" lon="1.40487">
        <ele>252.21582694268</ele>
        <time>2018-03-12T13:55:07Z</time>
      </trkpt>
      <trkpt lat="44.51359" lon="1.40487">
        <ele>252.15530569148</ele>
        <time>2018-03-12T13:55:11Z</time>
      </trkpt>
      <trkpt lat="44.51363" lon="1.40487">
        <ele>252.30310541882</ele>
        <time>2018-03-12T13:55:15Z</time>
      </trkpt>
      <trkpt lat="44.51367" lon="1.40487">
        <ele>249.01840213965</ele>
        <time>2018-03-12T13:56:10Z</time>
      </trkpt>
      <trkpt lat="44.51371" lon="1.40484">
        <ele>247.95560969253</ele>
        <time>2018-03-12T13:56:29Z</time>
      </trkpt>
      <trkpt lat="44.51375" lon="1.40481">
        <ele>248.18170650664</ele>
        <time>2018-03-12T13:56:39Z</time>
      </trkpt>
      <trkpt lat="44.51372" lon="1.40484">
        <ele>249.94745942268</ele>
        <time>2018-03-12T13:57:27Z</time>
      </trkpt>
      <trkpt lat="44.51374" lon="1.40489">
        <ele>252.08306254178</ele>
        <time>2018-03-12T13:58:24Z</time>
      </trkpt>
      <trkpt lat="44.51378" lon="1.40491">
        <ele>251.59583631804</ele>
        <time>2018-03-12T13:58:41Z</time>
      </trkpt>
      <trkpt lat="44.51379" lon="1.40486">
        <ele>252.64594390006</ele>
        <time>2018-03-12T13:59:23Z</time>
      </trkpt>
      <trkpt lat="44.51382" lon="1.40482">
        <ele>251.82369128248</ele>
        <time>2018-03-12T13:59:37Z</time>
      </trkpt>
      <trkpt lat="44.51387" lon="1.40482">
        <ele>250.4193446825</ele>
        <time>2018-03-12T14:00:00Z</time>
      </trkpt>
      <trkpt lat="44.51382" lon="1.40482">
        <ele>250.96310813606</ele>
        <time>2018-03-12T14:00:12Z</time>
      </trkpt>
      <trkpt lat="44.51379" lon="1.40483">
        <ele>251.04417777811</ele>
        <time>2018-03-12T14:00:18Z</time>
      </trkpt>
      <trkpt lat="44.51375" lon="1.40485">
        <ele>251.98167797338</ele>
        <time>2018-03-12T14:00:42Z</time>
      </trkpt>
      <trkpt lat="44.51371" lon="1.40485">
        <ele>252.09604575585</ele>
        <time>2018-03-12T14:00:58Z</time>
      </trkpt>
      <trkpt lat="44.51367" lon="1.40487">
        <ele>247.31043265761</ele>
        <time>2018-03-12T14:02:06Z</time>
      </trkpt>
      <trkpt lat="44.51365" lon="1.40491">
        <ele>248.1084507497</ele>
        <time>2018-03-12T14:02:16Z</time>
      </trkpt>
      <trkpt lat="44.51359" lon="1.40495">
        <ele>248.45904280464</ele>
        <time>2018-03-12T14:02:20Z</time>
      </trkpt>
      <trkpt lat="44.51354" lon="1.40499">
        <ele>248.84163864773</ele>
        <time>2018-03-12T14:02:24Z</time>
      </trkpt>
      <trkpt lat="44.5135" lon="1.40503">
        <ele>249.24316733152</ele>
        <time>2018-03-12T14:02:28Z</time>
      </trkpt>
      <trkpt lat="44.51347" lon="1.40506">
        <ele>249.62322635121</ele>
        <time>2018-03-12T14:02:32Z</time>
      </trkpt>
      <trkpt lat="44.51341" lon="1.40511">
        <ele>249.85736554622</ele>
        <time>2018-03-12T14:02:37Z</time>
      </trkpt>
      <trkpt lat="44.51336" lon="1.40514">
        <ele>250.07645297318</ele>
        <time>2018-03-12T14:02:41Z</time>
      </trkpt>
      <trkpt lat="44.51328" lon="1.40515">
        <ele>250.49960162513</ele>
        <time>2018-03-12T14:02:46Z</time>
      </trkpt>
      <trkpt lat="44.51322" lon="1.40516">
        <ele>250.54731796052</ele>
        <time>2018-03-12T14:02:50Z</time>
      </trkpt>
      <trkpt lat="44.51316" lon="1.40516">
        <ele>250.44087670872</ele>
        <time>2018-03-12T14:02:55Z</time>
      </trkpt>
      <trkpt lat="44.51309" lon="1.40517">
        <ele>250.58702256758</ele>
        <time>2018-03-12T14:03:00Z</time>
      </trkpt>
      <trkpt lat="44.51301" lon="1.40517">
        <ele>250.3036272436</ele>
        <time>2018-03-12T14:03:04Z</time>
      </trkpt>
      <trkpt lat="44.51294" lon="1.40516">
        <ele>250.46600707668</ele>
        <time>2018-03-12T14:03:08Z</time>
      </trkpt>
      <trkpt lat="44.5129" lon="1.40514">
        <ele>250.97089938888</ele>
        <time>2018-03-12T14:03:12Z</time>
      </trkpt>
      <trkpt lat="44.51286" lon="1.40511">
        <ele>251.56991133143</ele>
        <time>2018-03-12T14:03:16Z</time>
      </trkpt>
      <trkpt lat="44.51281" lon="1.40509">
        <ele>252.01666267488</ele>
        <time>2018-03-12T14:03:21Z</time>
      </trkpt>
      <trkpt lat="44.51278" lon="1.40505">
        <ele>252.37630123689</ele>
        <time>2018-03-12T14:03:25Z</time>
      </trkpt>
      <trkpt lat="44.51275" lon="1.40502">
        <ele>252.97563637617</ele>
        <time>2018-03-12T14:03:30Z</time>
      </trkpt>
      <trkpt lat="44.51269" lon="1.40499">
        <ele>253.68989238442</ele>
        <time>2018-03-12T14:03:35Z</time>
      </trkpt>
      <trkpt lat="44.51267" lon="1.40495">
        <ele>254.52890240027</ele>
        <time>2018-03-12T14:03:40Z</time>
      </trkpt>
      <trkpt lat="44.51261" lon="1.40497">
        <ele>254.98005369183</ele>
        <time>2018-03-12T14:03:44Z</time>
      </trkpt>
      <trkpt lat="44.51255" lon="1.40496">
        <ele>255.64178464394</ele>
        <time>2018-03-12T14:03:49Z</time>
      </trkpt>
      <trkpt lat="44.5125" lon="1.40499">
        <ele>256.09613301559</ele>
        <time>2018-03-12T14:03:53Z</time>
      </trkpt>
      <trkpt lat="44.5125" lon="1.40505">
        <ele>256.65922724879</ele>
        <time>2018-03-12T14:04:04Z</time>
      </trkpt>
      <trkpt lat="44.51247" lon="1.40513">
        <ele>256.67049639436</ele>
        <time>2018-03-12T14:04:09Z</time>
      </trkpt>
      <trkpt lat="44.51248" lon="1.4052">
        <ele>256.39091225246</ele>
        <time>2018-03-12T14:04:13Z</time>
      </trkpt>
      <trkpt lat="44.51248" lon="1.40527">
        <ele>256.49844001052</ele>
        <time>2018-03-12T14:04:17Z</time>
      </trkpt>
      <trkpt lat="44.51248" lon="1.40533">
        <ele>256.52061455278</ele>
        <time>2018-03-12T14:04:21Z</time>
      </trkpt>
      <trkpt lat="44.5125" lon="1.4054">
        <ele>256.43839614259</ele>
        <time>2018-03-12T14:04:25Z</time>
      </trkpt>
      <trkpt lat="44.5125" lon="1.40548">
        <ele>256.3725482459</ele>
        <time>2018-03-12T14:04:30Z</time>
      </trkpt>
      <trkpt lat="44.51251" lon="1.40554">
        <ele>256.41410974251</ele>
        <time>2018-03-12T14:04:35Z</time>
      </trkpt>
      <trkpt lat="44.51252" lon="1.40561">
        <ele>256.25779803461</ele>
        <time>2018-03-12T14:04:39Z</time>
      </trkpt>
      <trkpt lat="44.51251" lon="1.40569">
        <ele>256.21141078557</ele>
        <time>2018-03-12T14:04:44Z</time>
      </trkpt>
      <trkpt lat="44.51251" lon="1.40576">
        <ele>256.10991233259</ele>
        <time>2018-03-12T14:04:49Z</time>
      </trkpt>
      <trkpt lat="44.5125" lon="1.40586">
        <ele>255.77699602689</ele>
        <time>2018-03-12T14:04:53Z</time>
      </trkpt>
      <trkpt lat="44.51249" lon="1.40595">
        <ele>255.17278619756</ele>
        <time>2018-03-12T14:04:58Z</time>
      </trkpt>
      <trkpt lat="44.51249" lon="1.40605">
        <ele>255.07308033237</ele>
        <time>2018-03-12T14:05:03Z</time>
      </trkpt>
      <trkpt lat="44.51248" lon="1.40611">
        <ele>254.65988809554</ele>
        <time>2018-03-12T14:05:08Z</time>
      </trkpt>
      <trkpt lat="44.51247" lon="1.4062">
        <ele>254.28024875205</ele>
        <time>2018-03-12T14:05:13Z</time>
      </trkpt>
      <trkpt lat="44.51248" lon="1.40626">
        <ele>253.72468730592</ele>
        <time>2018-03-12T14:05:17Z</time>
      </trkpt>
      <trkpt lat="44.51248" lon="1.40635">
        <ele>253.24435244773</ele>
        <time>2018-03-12T14:05:21Z</time>
      </trkpt>
      <trkpt lat="44.51248" lon="1.40643">
        <ele>253.15282250132</ele>
        <time>2018-03-12T14:05:25Z</time>
      </trkpt>
      <trkpt lat="44.51249" lon="1.40651">
        <ele>252.41622320779</ele>
        <time>2018-03-12T14:05:30Z</time>
      </trkpt>
      <trkpt lat="44.5125" lon="1.40657">
        <ele>251.63459226765</ele>
        <time>2018-03-12T14:05:34Z</time>
      </trkpt>
      <trkpt lat="44.5125" lon="1.40667">
        <ele>250.9891704116</ele>
        <time>2018-03-12T14:05:38Z</time>
      </trkpt>
      <trkpt lat="44.51249" lon="1.40674">
        <ele>250.70287942328</ele>
        <time>2018-03-12T14:05:42Z</time>
      </trkpt>
      <trkpt lat="44.51248" lon="1.40686">
        <ele>250.23506985846</ele>
        <time>2018-03-12T14:05:47Z</time>
      </trkpt>
      <trkpt lat="44.51248" lon="1.40691">
        <ele>249.88440884643</ele>
        <time>2018-03-12T14:05:51Z</time>
      </trkpt>
      <trkpt lat="44.51249" lon="1.407">
        <ele>249.4535468518</ele>
        <time>2018-03-12T14:05:56Z</time>
      </trkpt>
      <trkpt lat="44.5125" lon="1.40709">
        <ele>249.16443858113</ele>
        <time>2018-03-12T14:06:00Z</time>
      </trkpt>
      <trkpt lat="44.51251" lon="1.40714">
        <ele>248.88413833016</ele>
        <time>2018-03-12T14:06:05Z</time>
      </trkpt>
      <trkpt lat="44.51252" lon="1.40723">
        <ele>248.25667665837</ele>
        <time>2018-03-12T14:06:10Z</time>
      </trkpt>
      <trkpt lat="44.51253" lon="1.4073">
        <ele>247.70468852895</ele>
        <time>2018-03-12T14:06:14Z</time>
      </trkpt>
      <trkpt lat="44.51253" lon="1.4074">
        <ele>246.99327545492</ele>
        <time>2018-03-12T14:06:19Z</time>
      </trkpt>
      <trkpt lat="44.51254" lon="1.40749">
        <ele>246.39112471871</ele>
        <time>2018-03-12T14:06:24Z</time>
      </trkpt>
      <trkpt lat="44.51255" lon="1.40756">
        <ele>246.09489167641</ele>
        <time>2018-03-12T14:06:29Z</time>
      </trkpt>
      <trkpt lat="44.51256" lon="1.40762">
        <ele>245.86764760285</ele>
        <time>2018-03-12T14:06:33Z</time>
      </trkpt>
      <trkpt lat="44.51256" lon="1.4077">
        <ele>245.6638017322</ele>
        <time>2018-03-12T14:06:37Z</time>
      </trkpt>
      <trkpt lat="44.51257" lon="1.40779">
        <ele>245.45266496741</ele>
        <time>2018-03-12T14:06:41Z</time>
      </trkpt>
      <trkpt lat="44.51257" lon="1.40786">
        <ele>245.18431267647</ele>
        <time>2018-03-12T14:06:45Z</time>
      </trkpt>
      <trkpt lat="44.51258" lon="1.40796">
        <ele>244.92895651475</ele>
        <time>2018-03-12T14:06:49Z</time>
      </trkpt>
      <trkpt lat="44.51258" lon="1.40802">
        <ele>244.74336193372</ele>
        <time>2018-03-12T14:06:54Z</time>
      </trkpt>
      <trkpt lat="44.51258" lon="1.40809">
        <ele>244.51234110421</ele>
        <time>2018-03-12T14:06:59Z</time>
      </trkpt>
      <trkpt lat="44.51259" lon="1.40816">
        <ele>244.31851561731</ele>
        <time>2018-03-12T14:07:03Z</time>
      </trkpt>
      <trkpt lat="44.51259" lon="1.40822">
        <ele>244.16979754849</ele>
        <time>2018-03-12T14:07:08Z</time>
      </trkpt>
      <trkpt lat="44.5126" lon="1.40828">
        <ele>243.78952452963</ele>
        <time>2018-03-12T14:07:12Z</time>
      </trkpt>
      <trkpt lat="44.51261" lon="1.40836">
        <ele>243.2180374483</ele>
        <time>2018-03-12T14:07:17Z</time>
      </trkpt>
      <trkpt lat="44.51261" lon="1.40842">
        <ele>242.502917716</ele>
        <time>2018-03-12T14:07:24Z</time>
      </trkpt>
      <trkpt lat="44.51263" lon="1.40848">
        <ele>242.24091436327</ele>
        <time>2018-03-12T14:07:29Z</time>
      </trkpt>
      <trkpt lat="44.51265" lon="1.40853">
        <ele>241.9727052403</ele>
        <time>2018-03-12T14:07:33Z</time>
      </trkpt>
      <trkpt lat="44.51265" lon="1.40862">
        <ele>242.189777761</ele>
        <time>2018-03-12T14:07:38Z</time>
      </trkpt>
      <trkpt lat="44.51264" lon="1.40871">
        <ele>242.20107879033</ele>
        <time>2018-03-12T14:07:43Z</time>
      </trkpt>
      <trkpt lat="44.51263" lon="1.40881">
        <ele>241.8308574057</ele>
        <time>2018-03-12T14:07:47Z</time>
      </trkpt>
      <trkpt lat="44.51264" lon="1.4089">
        <ele>241.916617817</ele>
        <time>2018-03-12T14:07:52Z</time>
      </trkpt>
      <trkpt lat="44.51265" lon="1.40898">
        <ele>241.97439929665</ele>
        <time>2018-03-12T14:07:56Z</time>
      </trkpt>
      <trkpt lat="44.51264" lon="1.40905">
        <ele>242.01657650966</ele>
        <time>2018-03-12T14:08:01Z</time>
      </trkpt>
      <trkpt lat="44.51264" lon="1.40915">
        <ele>242.07596177012</ele>
        <time>2018-03-12T14:08:05Z</time>
      </trkpt>
      <trkpt lat="44.51264" lon="1.40922">
        <ele>242.55754221291</ele>
        <time>2018-03-12T14:08:10Z</time>
      </trkpt>
      <trkpt lat="44.51264" lon="1.40929">
        <ele>243.01914586724</ele>
        <time>2018-03-12T14:08:14Z</time>
      </trkpt>
      <trkpt lat="44.51265" lon="1.40936">
        <ele>242.91366523922</ele>
        <time>2018-03-12T14:08:18Z</time>
      </trkpt>
      <trkpt lat="44.51265" lon="1.40944">
        <ele>242.85503983455</ele>
        <time>2018-03-12T14:08:23Z</time>
      </trkpt>
      <trkpt lat="44.51265" lon="1.40951">
        <ele>242.83072582909</ele>
        <time>2018-03-12T14:08:27Z</time>
      </trkpt>
      <trkpt lat="44.51265" lon="1.40963">
        <ele>242.97785214424</ele>
        <time>2018-03-12T14:08:32Z</time>
      </trkpt>
      <trkpt lat="44.51265" lon="1.4097">
        <ele>243.26975942502</ele>
        <time>2018-03-12T14:08:36Z</time>
      </trkpt>
      <trkpt lat="44.51264" lon="1.40978">
        <ele>243.70471533262</ele>
        <time>2018-03-12T14:08:41Z</time>
      </trkpt>
      <trkpt lat="44.51265" lon="1.40986">
        <ele>243.95820435244</ele>
        <time>2018-03-12T14:08:45Z</time>
      </trkpt>
      <trkpt lat="44.51265" lon="1.40991">
        <ele>244.07933992528</ele>
        <time>2018-03-12T14:08:49Z</time>
      </trkpt>
      <trkpt lat="44.51265" lon="1.40999">
        <ele>244.2431965086</ele>
        <time>2018-03-12T14:08:53Z</time>
      </trkpt>
      <trkpt lat="44.51266" lon="1.41009">
        <ele>244.2270221224</ele>
        <time>2018-03-12T14:08:58Z</time>
      </trkpt>
      <trkpt lat="44.51267" lon="1.41017">
        <ele>244.38161356394</ele>
        <time>2018-03-12T14:09:02Z</time>
      </trkpt>
      <trkpt lat="44.51268" lon="1.41024">
        <ele>244.70554082295</ele>
        <time>2018-03-12T14:09:06Z</time>
      </trkpt>
      <trkpt lat="44.51269" lon="1.4103">
        <ele>245.56500450081</ele>
        <time>2018-03-12T14:09:11Z</time>
      </trkpt>
      <trkpt lat="44.5127" lon="1.41037">
        <ele>246.08252161827</ele>
        <time>2018-03-12T14:09:15Z</time>
      </trkpt>
      <trkpt lat="44.5127" lon="1.41047">
        <ele>246.92813843841</ele>
        <time>2018-03-12T14:09:20Z</time>
      </trkpt>
      <trkpt lat="44.51269" lon="1.41056">
        <ele>247.77511102057</ele>
        <time>2018-03-12T14:09:25Z</time>
      </trkpt>
      <trkpt lat="44.51268" lon="1.41061">
        <ele>248.3103473769</ele>
        <time>2018-03-12T14:09:31Z</time>
      </trkpt>
      <trkpt lat="44.51268" lon="1.4107">
        <ele>248.33973377674</ele>
        <time>2018-03-12T14:09:35Z</time>
      </trkpt>
      <trkpt lat="44.51269" lon="1.41079">
        <ele>248.47447539978</ele>
        <time>2018-03-12T14:09:40Z</time>
      </trkpt>
      <trkpt lat="44.51268" lon="1.41085">
        <ele>248.5606402552</ele>
        <time>2018-03-12T14:09:44Z</time>
      </trkpt>
      <trkpt lat="44.51264" lon="1.41094">
        <ele>248.44856694457</ele>
        <time>2018-03-12T14:09:48Z</time>
      </trkpt>
      <trkpt lat="44.51262" lon="1.41101">
        <ele>248.41726772457</ele>
        <time>2018-03-12T14:09:53Z</time>
      </trkpt>
      <trkpt lat="44.51261" lon="1.41107">
        <ele>248.49112921218</ele>
        <time>2018-03-12T14:09:57Z</time>
      </trkpt>
      <trkpt lat="44.51258" lon="1.41116">
        <ele>248.40786263166</ele>
        <time>2018-03-12T14:10:02Z</time>
      </trkpt>
      <trkpt lat="44.51258" lon="1.41123">
        <ele>248.23271931267</ele>
        <time>2018-03-12T14:10:06Z</time>
      </trkpt>
      <trkpt lat="44.51257" lon="1.41131">
        <ele>248.02337098121</ele>
        <time>2018-03-12T14:10:10Z</time>
      </trkpt>
      <trkpt lat="44.51256" lon="1.41137">
        <ele>247.75094460538</ele>
        <time>2018-03-12T14:10:14Z</time>
      </trkpt>
      <trkpt lat="44.51256" lon="1.41145">
        <ele>247.59947855647</ele>
        <time>2018-03-12T14:10:19Z</time>
      </trkpt>
      <trkpt lat="44.51253" lon="1.41151">
        <ele>247.48883781883</ele>
        <time>2018-03-12T14:10:23Z</time>
      </trkpt>
      <trkpt lat="44.51252" lon="1.4116">
        <ele>247.28644101254</ele>
        <time>2018-03-12T14:10:28Z</time>
      </trkpt>
      <trkpt lat="44.5125" lon="1.41166">
        <ele>247.13869423423</ele>
        <time>2018-03-12T14:10:32Z</time>
      </trkpt>
      <trkpt lat="44.5125" lon="1.41174">
        <ele>247.28110800289</ele>
        <time>2018-03-12T14:10:37Z</time>
      </trkpt>
      <trkpt lat="44.5125" lon="1.41181">
        <ele>247.51269746218</ele>
        <time>2018-03-12T14:10:41Z</time>
      </trkpt>
      <trkpt lat="44.51248" lon="1.41189">
        <ele>247.71723875033</ele>
        <time>2018-03-12T14:10:45Z</time>
      </trkpt>
      <trkpt lat="44.51246" lon="1.41197">
        <ele>247.69097788452</ele>
        <time>2018-03-12T14:10:49Z</time>
      </trkpt>
      <trkpt lat="44.51246" lon="1.41205">
        <ele>247.62564374227</ele>
        <time>2018-03-12T14:10:53Z</time>
      </trkpt>
      <trkpt lat="44.51245" lon="1.41211">
        <ele>247.513580231</ele>
        <time>2018-03-12T14:10:57Z</time>
      </trkpt>
      <trkpt lat="44.51244" lon="1.41219">
        <ele>247.69493679916</ele>
        <time>2018-03-12T14:11:02Z</time>
      </trkpt>
      <trkpt lat="44.51244" lon="1.41226">
        <ele>247.81842377226</ele>
        <time>2018-03-12T14:11:06Z</time>
      </trkpt>
      <trkpt lat="44.51242" lon="1.41233">
        <ele>247.87381631914</ele>
        <time>2018-03-12T14:11:11Z</time>
      </trkpt>
      <trkpt lat="44.51242" lon="1.41241">
        <ele>247.97336304557</ele>
        <time>2018-03-12T14:11:15Z</time>
      </trkpt>
      <trkpt lat="44.51243" lon="1.41249">
        <ele>248.38839839538</ele>
        <time>2018-03-12T14:11:20Z</time>
      </trkpt>
      <trkpt lat="44.51243" lon="1.41257">
        <ele>248.84270774884</ele>
        <time>2018-03-12T14:11:24Z</time>
      </trkpt>
      <trkpt lat="44.51243" lon="1.41265">
        <ele>249.31689469178</ele>
        <time>2018-03-12T14:11:28Z</time>
      </trkpt>
      <trkpt lat="44.51243" lon="1.4127">
        <ele>249.51491213886</ele>
        <time>2018-03-12T14:11:33Z</time>
      </trkpt>
      <trkpt lat="44.51243" lon="1.41278">
        <ele>249.88198390884</ele>
        <time>2018-03-12T14:11:38Z</time>
      </trkpt>
      <trkpt lat="44.51243" lon="1.41284">
        <ele>250.12973085172</ele>
        <time>2018-03-12T14:11:42Z</time>
      </trkpt>
      <trkpt lat="44.51243" lon="1.4129">
        <ele>250.43300455668</ele>
        <time>2018-03-12T14:11:48Z</time>
      </trkpt>
      <trkpt lat="44.51242" lon="1.41298">
        <ele>250.38373736292</ele>
        <time>2018-03-12T14:11:53Z</time>
      </trkpt>
      <trkpt lat="44.51242" lon="1.41306">
        <ele>250.72728848895</ele>
        <time>2018-03-12T14:11:57Z</time>
      </trkpt>
      <trkpt lat="44.51241" lon="1.41313">
        <ele>251.07758025713</ele>
        <time>2018-03-12T14:12:01Z</time>
      </trkpt>
      <trkpt lat="44.51241" lon="1.41322">
        <ele>251.45927176912</ele>
        <time>2018-03-12T14:12:06Z</time>
      </trkpt>
      <trkpt lat="44.5124" lon="1.41328">
        <ele>251.69948049197</ele>
        <time>2018-03-12T14:12:10Z</time>
      </trkpt>
      <trkpt lat="44.51239" lon="1.41336">
        <ele>251.89247069183</ele>
        <time>2018-03-12T14:12:14Z</time>
      </trkpt>
      <trkpt lat="44.51238" lon="1.41343">
        <ele>252.2201859063</ele>
        <time>2018-03-12T14:12:18Z</time>
      </trkpt>
      <trkpt lat="44.51238" lon="1.41349">
        <ele>252.28959352283</ele>
        <time>2018-03-12T14:12:22Z</time>
      </trkpt>
      <trkpt lat="44.51238" lon="1.41355">
        <ele>252.26416113784</ele>
        <time>2018-03-12T14:12:26Z</time>
      </trkpt>
      <trkpt lat="44.51237" lon="1.41364">
        <ele>252.48364885688</ele>
        <time>2018-03-12T14:12:30Z</time>
      </trkpt>
      <trkpt lat="44.51236" lon="1.41374">
        <ele>252.78633936404</ele>
        <time>2018-03-12T14:12:34Z</time>
      </trkpt>
      <trkpt lat="44.51235" lon="1.4138">
        <ele>253.14659884686</ele>
        <time>2018-03-12T14:12:38Z</time>
      </trkpt>
      <trkpt lat="44.51234" lon="1.41385">
        <ele>253.3876962668</ele>
        <time>2018-03-12T14:12:42Z</time>
      </trkpt>
      <trkpt lat="44.51234" lon="1.4139">
        <ele>253.80567802775</ele>
        <time>2018-03-12T14:12:46Z</time>
      </trkpt>
      <trkpt lat="44.51234" lon="1.41398">
        <ele>254.25744784259</ele>
        <time>2018-03-12T14:12:51Z</time>
      </trkpt>
      <trkpt lat="44.51232" lon="1.41407">
        <ele>254.79573575927</ele>
        <time>2018-03-12T14:12:56Z</time>
      </trkpt>
      <trkpt lat="44.51231" lon="1.41414">
        <ele>255.16236283786</ele>
        <time>2018-03-12T14:13:00Z</time>
      </trkpt>
      <trkpt lat="44.51229" lon="1.41421">
        <ele>255.53652834853</ele>
        <time>2018-03-12T14:13:04Z</time>
      </trkpt>
      <trkpt lat="44.51228" lon="1.41426">
        <ele>256.01306956873</ele>
        <time>2018-03-12T14:13:09Z</time>
      </trkpt>
      <trkpt lat="44.51226" lon="1.41436">
        <ele>256.07289532212</ele>
        <time>2018-03-12T14:13:14Z</time>
      </trkpt>
      <trkpt lat="44.51225" lon="1.41444">
        <ele>256.40280548984</ele>
        <time>2018-03-12T14:13:19Z</time>
      </trkpt>
      <trkpt lat="44.51223" lon="1.41451">
        <ele>256.78879480337</ele>
        <time>2018-03-12T14:13:24Z</time>
      </trkpt>
      <trkpt lat="44.51222" lon="1.41458">
        <ele>257.03849883399</ele>
        <time>2018-03-12T14:13:29Z</time>
      </trkpt>
      <trkpt lat="44.5122" lon="1.41466">
        <ele>257.35725501203</ele>
        <time>2018-03-12T14:13:33Z</time>
      </trkpt>
      <trkpt lat="44.5122" lon="1.41472">
        <ele>257.70402232032</ele>
        <time>2018-03-12T14:13:37Z</time>
      </trkpt>
      <trkpt lat="44.51218" lon="1.4148">
        <ele>258.08260927495</ele>
        <time>2018-03-12T14:13:42Z</time>
      </trkpt>
      <trkpt lat="44.51217" lon="1.41486">
        <ele>258.73571222787</ele>
        <time>2018-03-12T14:13:47Z</time>
      </trkpt>
      <trkpt lat="44.51216" lon="1.41493">
        <ele>258.9959173312</ele>
        <time>2018-03-12T14:13:51Z</time>
      </trkpt>
      <trkpt lat="44.51215" lon="1.415">
        <ele>259.26978986657</ele>
        <time>2018-03-12T14:13:56Z</time>
      </trkpt>
      <trkpt lat="44.51214" lon="1.41507">
        <ele>259.53586528095</ele>
        <time>2018-03-12T14:14:00Z</time>
      </trkpt>
      <trkpt lat="44.51212" lon="1.41514">
        <ele>259.82670626646</ele>
        <time>2018-03-12T14:14:05Z</time>
      </trkpt>
      <trkpt lat="44.51212" lon="1.41521">
        <ele>260.75506592534</ele>
        <time>2018-03-12T14:14:10Z</time>
      </trkpt>
      <trkpt lat="44.51211" lon="1.41528">
        <ele>261.33465071073</ele>
        <time>2018-03-12T14:14:14Z</time>
      </trkpt>
      <trkpt lat="44.51209" lon="1.41537">
        <ele>261.91584133701</ele>
        <time>2018-03-12T14:14:19Z</time>
      </trkpt>
      <trkpt lat="44.51208" lon="1.41542">
        <ele>262.57739324084</ele>
        <time>2018-03-12T14:14:24Z</time>
      </trkpt>
      <trkpt lat="44.51207" lon="1.41549">
        <ele>263.05143948039</ele>
        <time>2018-03-12T14:14:28Z</time>
      </trkpt>
      <trkpt lat="44.51205" lon="1.41557">
        <ele>263.48598434825</ele>
        <time>2018-03-12T14:14:33Z</time>
      </trkpt>
      <trkpt lat="44.51204" lon="1.41563">
        <ele>263.71480623754</ele>
        <time>2018-03-12T14:14:38Z</time>
      </trkpt>
      <trkpt lat="44.51204" lon="1.41568">
        <ele>263.97391281784</ele>
        <time>2018-03-12T14:14:42Z</time>
      </trkpt>
      <trkpt lat="44.51203" lon="1.41575">
        <ele>264.37073695903</ele>
        <time>2018-03-12T14:14:46Z</time>
      </trkpt>
      <trkpt lat="44.51203" lon="1.41584">
        <ele>264.81443512756</ele>
        <time>2018-03-12T14:14:51Z</time>
      </trkpt>
      <trkpt lat="44.51202" lon="1.41591">
        <ele>265.13697262653</ele>
        <time>2018-03-12T14:14:55Z</time>
      </trkpt>
      <trkpt lat="44.51202" lon="1.41597">
        <ele>265.58585097495</ele>
        <time>2018-03-12T14:15:00Z</time>
      </trkpt>
      <trkpt lat="44.51201" lon="1.41604">
        <ele>266.24454990405</ele>
        <time>2018-03-12T14:15:05Z</time>
      </trkpt>
      <trkpt lat="44.51199" lon="1.41611">
        <ele>266.56674087002</ele>
        <time>2018-03-12T14:15:09Z</time>
      </trkpt>
      <trkpt lat="44.51198" lon="1.41616">
        <ele>266.82355866106</ele>
        <time>2018-03-12T14:15:14Z</time>
      </trkpt>
      <trkpt lat="44.51197" lon="1.41624">
        <ele>267.19109726856</ele>
        <time>2018-03-12T14:15:19Z</time>
      </trkpt>
      <trkpt lat="44.51196" lon="1.41632">
        <ele>267.71097875274</ele>
        <time>2018-03-12T14:15:23Z</time>
      </trkpt>
      <trkpt lat="44.51195" lon="1.4164">
        <ele>268.33620459608</ele>
        <time>2018-03-12T14:15:28Z</time>
      </trkpt>
      <trkpt lat="44.51193" lon="1.41647">
        <ele>268.81511229004</ele>
        <time>2018-03-12T14:15:33Z</time>
      </trkpt>
      <trkpt lat="44.51192" lon="1.41655">
        <ele>269.13159854208</ele>
        <time>2018-03-12T14:15:37Z</time>
      </trkpt>
      <trkpt lat="44.5119" lon="1.41662">
        <ele>269.60800039777</ele>
        <time>2018-03-12T14:15:42Z</time>
      </trkpt>
      <trkpt lat="44.5119" lon="1.41668">
        <ele>269.8375967634</ele>
        <time>2018-03-12T14:15:46Z</time>
      </trkpt>
      <trkpt lat="44.51189" lon="1.41673">
        <ele>269.96074647239</ele>
        <time>2018-03-12T14:15:50Z</time>
      </trkpt>
      <trkpt lat="44.51189" lon="1.4168">
        <ele>270.53655533647</ele>
        <time>2018-03-12T14:15:55Z</time>
      </trkpt>
      <trkpt lat="44.51188" lon="1.41689">
        <ele>270.96974739342</ele>
        <time>2018-03-12T14:15:59Z</time>
      </trkpt>
      <trkpt lat="44.51187" lon="1.41696">
        <ele>271.50233365124</ele>
        <time>2018-03-12T14:16:04Z</time>
      </trkpt>
      <trkpt lat="44.51185" lon="1.41702">
        <ele>271.89856827114</ele>
        <time>2018-03-12T14:16:08Z</time>
      </trkpt>
      <trkpt lat="44.51185" lon="1.41709">
        <ele>272.42142848096</ele>
        <time>2018-03-12T14:16:13Z</time>
      </trkpt>
      <trkpt lat="44.51186" lon="1.41716">
        <ele>272.85669673334</ele>
        <time>2018-03-12T14:16:17Z</time>
      </trkpt>
      <trkpt lat="44.51185" lon="1.41722">
        <ele>273.35880116986</ele>
        <time>2018-03-12T14:16:23Z</time>
      </trkpt>
      <trkpt lat="44.51184" lon="1.41727">
        <ele>274.18581946408</ele>
        <time>2018-03-12T14:16:36Z</time>
      </trkpt>
      <trkpt lat="44.51183" lon="1.41733">
        <ele>275.45486233223</ele>
        <time>2018-03-12T14:16:59Z</time>
      </trkpt>
      <trkpt lat="44.51181" lon="1.41739">
        <ele>274.32434946648</ele>
        <time>2018-03-12T14:18:06Z</time>
      </trkpt>
      <trkpt lat="44.51181" lon="1.41745">
        <ele>274.24631179226</ele>
        <time>2018-03-12T14:18:10Z</time>
      </trkpt>
      <trkpt lat="44.5118" lon="1.41751">
        <ele>273.99632836836</ele>
        <time>2018-03-12T14:18:15Z</time>
      </trkpt>
      <trkpt lat="44.51179" lon="1.41757">
        <ele>274.28256111465</ele>
        <time>2018-03-12T14:18:20Z</time>
      </trkpt>
      <trkpt lat="44.51179" lon="1.41763">
        <ele>274.16331114296</ele>
        <time>2018-03-12T14:18:25Z</time>
      </trkpt>
      <trkpt lat="44.51179" lon="1.41771">
        <ele>274.23027065714</ele>
        <time>2018-03-12T14:18:29Z</time>
      </trkpt>
      <trkpt lat="44.51178" lon="1.41779">
        <ele>274.28457085372</ele>
        <time>2018-03-12T14:18:33Z</time>
      </trkpt>
      <trkpt lat="44.51178" lon="1.41787">
        <ele>274.4498332728</ele>
        <time>2018-03-12T14:18:38Z</time>
      </trkpt>
      <trkpt lat="44.51178" lon="1.41794">
        <ele>274.61487425329</ele>
        <time>2018-03-12T14:18:42Z</time>
      </trkpt>
      <trkpt lat="44.51177" lon="1.418">
        <ele>274.69702403766</ele>
        <time>2018-03-12T14:18:46Z</time>
      </trkpt>
      <trkpt lat="44.51177" lon="1.41805">
        <ele>274.56924242172</ele>
        <time>2018-03-12T14:18:50Z</time>
      </trkpt>
      <trkpt lat="44.51177" lon="1.41814">
        <ele>274.69305261487</ele>
        <time>2018-03-12T14:18:54Z</time>
      </trkpt>
      <trkpt lat="44.51177" lon="1.41822">
        <ele>274.78761679814</ele>
        <time>2018-03-12T14:18:59Z</time>
      </trkpt>
      <trkpt lat="44.51177" lon="1.41828">
        <ele>274.45534427075</ele>
        <time>2018-03-12T14:19:04Z</time>
      </trkpt>
      <trkpt lat="44.51175" lon="1.41836">
        <ele>274.24363738768</ele>
        <time>2018-03-12T14:19:09Z</time>
      </trkpt>
      <trkpt lat="44.51175" lon="1.41845">
        <ele>274.10407107011</ele>
        <time>2018-03-12T14:19:14Z</time>
      </trkpt>
      <trkpt lat="44.51174" lon="1.41852">
        <ele>273.99281300632</ele>
        <time>2018-03-12T14:19:18Z</time>
      </trkpt>
      <trkpt lat="44.51175" lon="1.41859">
        <ele>273.82963914623</ele>
        <time>2018-03-12T14:19:22Z</time>
      </trkpt>
      <trkpt lat="44.51175" lon="1.41866">
        <ele>273.8482973764</ele>
        <time>2018-03-12T14:19:27Z</time>
      </trkpt>
      <trkpt lat="44.51175" lon="1.41874">
        <ele>273.71676150709</ele>
        <time>2018-03-12T14:19:31Z</time>
      </trkpt>
      <trkpt lat="44.51177" lon="1.4188">
        <ele>273.54678629248</ele>
        <time>2018-03-12T14:19:36Z</time>
      </trkpt>
      <trkpt lat="44.51178" lon="1.41889">
        <ele>273.58646991704</ele>
        <time>2018-03-12T14:19:41Z</time>
      </trkpt>
      <trkpt lat="44.51178" lon="1.41897">
        <ele>273.7896425292</ele>
        <time>2018-03-12T14:19:45Z</time>
      </trkpt>
      <trkpt lat="44.51179" lon="1.41904">
        <ele>273.61433056882</ele>
        <time>2018-03-12T14:19:49Z</time>
      </trkpt>
      <trkpt lat="44.5118" lon="1.41914">
        <ele>273.18576477393</ele>
        <time>2018-03-12T14:19:54Z</time>
      </trkpt>
      <trkpt lat="44.51181" lon="1.41919">
        <ele>272.83108338892</ele>
        <time>2018-03-12T14:19:59Z</time>
      </trkpt>
      <trkpt lat="44.51183" lon="1.41928">
        <ele>272.18204203193</ele>
        <time>2018-03-12T14:20:04Z</time>
      </trkpt>
      <trkpt lat="44.51184" lon="1.41934">
        <ele>271.76069215376</ele>
        <time>2018-03-12T14:20:08Z</time>
      </trkpt>
      <trkpt lat="44.51186" lon="1.41941">
        <ele>271.3291657155</ele>
        <time>2018-03-12T14:20:13Z</time>
      </trkpt>
      <trkpt lat="44.51188" lon="1.4195">
        <ele>271.27552606075</ele>
        <time>2018-03-12T14:20:18Z</time>
      </trkpt>
      <trkpt lat="44.5119" lon="1.41956">
        <ele>271.07043675959</ele>
        <time>2018-03-12T14:20:23Z</time>
      </trkpt>
      <trkpt lat="44.51191" lon="1.41964">
        <ele>270.8977456496</ele>
        <time>2018-03-12T14:20:28Z</time>
      </trkpt>
      <trkpt lat="44.51192" lon="1.41973">
        <ele>270.93755929759</ele>
        <time>2018-03-12T14:20:32Z</time>
      </trkpt>
      <trkpt lat="44.51195" lon="1.41981">
        <ele>271.00817342669</ele>
        <time>2018-03-12T14:20:37Z</time>
      </trkpt>
      <trkpt lat="44.51196" lon="1.41989">
        <ele>271.31226746292</ele>
        <time>2018-03-12T14:20:41Z</time>
      </trkpt>
      <trkpt lat="44.51197" lon="1.41995">
        <ele>271.88422900795</ele>
        <time>2018-03-12T14:20:46Z</time>
      </trkpt>
      <trkpt lat="44.51198" lon="1.42002">
        <ele>272.44207126387</ele>
        <time>2018-03-12T14:20:50Z</time>
      </trkpt>
      <trkpt lat="44.51199" lon="1.4201">
        <ele>272.72669852848</ele>
        <time>2018-03-12T14:20:55Z</time>
      </trkpt>
      <trkpt lat="44.512" lon="1.42016">
        <ele>272.95866265288</ele>
        <time>2018-03-12T14:20:59Z</time>
      </trkpt>
      <trkpt lat="44.51202" lon="1.42022">
        <ele>273.18679355674</ele>
        <time>2018-03-12T14:21:03Z</time>
      </trkpt>
      <trkpt lat="44.51203" lon="1.4203">
        <ele>273.48625548461</ele>
        <time>2018-03-12T14:21:07Z</time>
      </trkpt>
      <trkpt lat="44.51204" lon="1.42038">
        <ele>273.85798772365</ele>
        <time>2018-03-12T14:21:12Z</time>
      </trkpt>
      <trkpt lat="44.51205" lon="1.42044">
        <ele>274.17546871759</ele>
        <time>2018-03-12T14:21:16Z</time>
      </trkpt>
      <trkpt lat="44.51207" lon="1.42054">
        <ele>274.99638733946</ele>
        <time>2018-03-12T14:21:21Z</time>
      </trkpt>
      <trkpt lat="44.51209" lon="1.42059">
        <ele>275.60984739573</ele>
        <time>2018-03-12T14:21:25Z</time>
      </trkpt>
      <trkpt lat="44.5121" lon="1.42064">
        <ele>276.13985836951</ele>
        <time>2018-03-12T14:21:30Z</time>
      </trkpt>
      <trkpt lat="44.51213" lon="1.42069">
        <ele>276.48026760732</ele>
        <time>2018-03-12T14:21:35Z</time>
      </trkpt>
      <trkpt lat="44.51214" lon="1.42075">
        <ele>276.5996646473</ele>
        <time>2018-03-12T14:21:39Z</time>
      </trkpt>
      <trkpt lat="44.51217" lon="1.42084">
        <ele>277.02282837265</ele>
        <time>2018-03-12T14:21:44Z</time>
      </trkpt>
      <trkpt lat="44.51218" lon="1.42092">
        <ele>277.16169762663</ele>
        <time>2018-03-12T14:21:48Z</time>
      </trkpt>
      <trkpt lat="44.51219" lon="1.42098">
        <ele>276.96611631509</ele>
        <time>2018-03-12T14:21:53Z</time>
      </trkpt>
      <trkpt lat="44.51222" lon="1.42107">
        <ele>276.42168208877</ele>
        <time>2018-03-12T14:21:58Z</time>
      </trkpt>
      <trkpt lat="44.51224" lon="1.42116">
        <ele>276.12855255981</ele>
        <time>2018-03-12T14:22:03Z</time>
      </trkpt>
      <trkpt lat="44.51224" lon="1.42124">
        <ele>276.38806570442</ele>
        <time>2018-03-12T14:22:07Z</time>
      </trkpt>
      <trkpt lat="44.51225" lon="1.42131">
        <ele>276.43379351054</ele>
        <time>2018-03-12T14:22:11Z</time>
      </trkpt>
      <trkpt lat="44.51227" lon="1.42136">
        <ele>276.1219929666</ele>
        <time>2018-03-12T14:22:16Z</time>
      </trkpt>
      <trkpt lat="44.51231" lon="1.42142">
        <ele>276.00622328669</ele>
        <time>2018-03-12T14:22:20Z</time>
      </trkpt>
      <trkpt lat="44.51235" lon="1.42146">
        <ele>276.04927521748</ele>
        <time>2018-03-12T14:22:24Z</time>
      </trkpt>
      <trkpt lat="44.51238" lon="1.4215">
        <ele>275.87243529203</ele>
        <time>2018-03-12T14:22:29Z</time>
      </trkpt>
      <trkpt lat="44.51239" lon="1.42154">
        <ele>275.70427623163</ele>
        <time>2018-03-12T14:22:33Z</time>
      </trkpt>
      <trkpt lat="44.5124" lon="1.42163">
        <ele>275.74603845525</ele>
        <time>2018-03-12T14:22:37Z</time>
      </trkpt>
      <trkpt lat="44.51239" lon="1.42169">
        <ele>275.71762111622</ele>
        <time>2018-03-12T14:22:41Z</time>
      </trkpt>
      <trkpt lat="44.51236" lon="1.42176">
        <ele>275.7556393681</ele>
        <time>2018-03-12T14:22:46Z</time>
      </trkpt>
      <trkpt lat="44.51235" lon="1.42182">
        <ele>276.02060552517</ele>
        <time>2018-03-12T14:22:50Z</time>
      </trkpt>
      <trkpt lat="44.51234" lon="1.42187">
        <ele>276.41157239021</ele>
        <time>2018-03-12T14:22:55Z</time>
      </trkpt>
      <trkpt lat="44.51231" lon="1.4219">
        <ele>276.67284434797</ele>
        <time>2018-03-12T14:22:59Z</time>
      </trkpt>
      <trkpt lat="44.51229" lon="1.42195">
        <ele>277.06391208351</ele>
        <time>2018-03-12T14:23:04Z</time>
      </trkpt>
      <trkpt lat="44.51227" lon="1.42199">
        <ele>277.15602928992</ele>
        <time>2018-03-12T14:23:08Z</time>
      </trkpt>
      <trkpt lat="44.51223" lon="1.42208">
        <ele>277.35203891591</ele>
        <time>2018-03-12T14:23:13Z</time>
      </trkpt>
      <trkpt lat="44.51221" lon="1.42216">
        <ele>277.5146824238</ele>
        <time>2018-03-12T14:23:17Z</time>
      </trkpt>
      <trkpt lat="44.51219" lon="1.42223">
        <ele>277.3787085898</ele>
        <time>2018-03-12T14:23:21Z</time>
      </trkpt>
      <trkpt lat="44.51217" lon="1.42229">
        <ele>277.68658071568</ele>
        <time>2018-03-12T14:23:26Z</time>
      </trkpt>
      <trkpt lat="44.51215" lon="1.42236">
        <ele>278.12625896611</ele>
        <time>2018-03-12T14:23:30Z</time>
      </trkpt>
      <trkpt lat="44.51212" lon="1.42243">
        <ele>278.55028607907</ele>
        <time>2018-03-12T14:23:35Z</time>
      </trkpt>
      <trkpt lat="44.51209" lon="1.42251">
        <ele>278.95215312113</ele>
        <time>2018-03-12T14:23:40Z</time>
      </trkpt>
      <trkpt lat="44.51208" lon="1.42259">
        <ele>279.39332845532</ele>
        <time>2018-03-12T14:23:44Z</time>
      </trkpt>
      <trkpt lat="44.51207" lon="1.42264">
        <ele>279.38994458987</ele>
        <time>2018-03-12T14:23:49Z</time>
      </trkpt>
      <trkpt lat="44.51206" lon="1.42269">
        <ele>279.85532462521</ele>
        <time>2018-03-12T14:23:54Z</time>
      </trkpt>
      <trkpt lat="44.51205" lon="1.42275">
        <ele>280.27356160464</ele>
        <time>2018-03-12T14:23:58Z</time>
      </trkpt>
      <trkpt lat="44.51202" lon="1.4228">
        <ele>280.46642813329</ele>
        <time>2018-03-12T14:24:02Z</time>
      </trkpt>
      <trkpt lat="44.51199" lon="1.42286">
        <ele>280.59038221549</ele>
        <time>2018-03-12T14:24:06Z</time>
      </trkpt>
      <trkpt lat="44.51197" lon="1.42293">
        <ele>280.79154103493</ele>
        <time>2018-03-12T14:24:10Z</time>
      </trkpt>
      <trkpt lat="44.51194" lon="1.423">
        <ele>281.09091547484</ele>
        <time>2018-03-12T14:24:14Z</time>
      </trkpt>
      <trkpt lat="44.51193" lon="1.42306">
        <ele>281.60657729748</ele>
        <time>2018-03-12T14:24:20Z</time>
      </trkpt>
      <trkpt lat="44.51191" lon="1.42312">
        <ele>282.24993151168</ele>
        <time>2018-03-12T14:24:25Z</time>
      </trkpt>
      <trkpt lat="44.51189" lon="1.42316">
        <ele>282.80890647467</ele>
        <time>2018-03-12T14:24:29Z</time>
      </trkpt>
      <trkpt lat="44.51186" lon="1.42321">
        <ele>283.10596815759</ele>
        <time>2018-03-12T14:24:34Z</time>
      </trkpt>
      <trkpt lat="44.51185" lon="1.42327">
        <ele>283.27870410526</ele>
        <time>2018-03-12T14:24:38Z</time>
      </trkpt>
      <trkpt lat="44.51183" lon="1.42337">
        <ele>283.8097548019</ele>
        <time>2018-03-12T14:24:43Z</time>
      </trkpt>
      <trkpt lat="44.51181" lon="1.42347">
        <ele>284.67193974739</ele>
        <time>2018-03-12T14:24:48Z</time>
      </trkpt>
      <trkpt lat="44.5118" lon="1.42352">
        <ele>285.1212503877</ele>
        <time>2018-03-12T14:24:52Z</time>
      </trkpt>
      <trkpt lat="44.51179" lon="1.42358">
        <ele>285.56469683699</ele>
        <time>2018-03-12T14:24:57Z</time>
      </trkpt>
      <trkpt lat="44.51174" lon="1.42366">
        <ele>285.73105945947</ele>
        <time>2018-03-12T14:25:02Z</time>
      </trkpt>
      <trkpt lat="44.51173" lon="1.42371">
        <ele>285.83172528105</ele>
        <time>2018-03-12T14:25:06Z</time>
      </trkpt>
      <trkpt lat="44.51172" lon="1.42378">
        <ele>286.01506074655</ele>
        <time>2018-03-12T14:25:10Z</time>
      </trkpt>
      <trkpt lat="44.5117" lon="1.42383">
        <ele>286.1884034556</ele>
        <time>2018-03-12T14:25:15Z</time>
      </trkpt>
      <trkpt lat="44.51167" lon="1.42388">
        <ele>286.28285645092</ele>
        <time>2018-03-12T14:25:20Z</time>
      </trkpt>
      <trkpt lat="44.51165" lon="1.42394">
        <ele>286.18472281687</ele>
        <time>2018-03-12T14:25:25Z</time>
      </trkpt>
      <trkpt lat="44.51164" lon="1.42399">
        <ele>286.09832251652</ele>
        <time>2018-03-12T14:25:29Z</time>
      </trkpt>
      <trkpt lat="44.51162" lon="1.42405">
        <ele>285.68389684527</ele>
        <time>2018-03-12T14:25:43Z</time>
      </trkpt>
      <trkpt lat="44.51158" lon="1.42408">
        <ele>285.75042533844</ele>
        <time>2018-03-12T14:25:54Z</time>
      </trkpt>
      <trkpt lat="44.5116" lon="1.42414">
        <ele>285.76154291973</ele>
        <time>2018-03-12T14:27:00Z</time>
      </trkpt>
      <trkpt lat="44.51161" lon="1.42419">
        <ele>285.95134584374</ele>
        <time>2018-03-12T14:27:08Z</time>
      </trkpt>
      <trkpt lat="44.51159" lon="1.42426">
        <ele>285.5134113819</ele>
        <time>2018-03-12T14:27:13Z</time>
      </trkpt>
      <trkpt lat="44.51157" lon="1.42431">
        <ele>285.13381519558</ele>
        <time>2018-03-12T14:27:19Z</time>
      </trkpt>
      <trkpt lat="44.51154" lon="1.42436">
        <ele>285.01460383523</ele>
        <time>2018-03-12T14:27:24Z</time>
      </trkpt>
      <trkpt lat="44.51152" lon="1.42441">
        <ele>284.90958582552</ele>
        <time>2018-03-12T14:27:28Z</time>
      </trkpt>
      <trkpt lat="44.51151" lon="1.42445">
        <ele>284.67158699916</ele>
        <time>2018-03-12T14:27:32Z</time>
      </trkpt>
      <trkpt lat="44.51148" lon="1.42456">
        <ele>284.44629050884</ele>
        <time>2018-03-12T14:27:37Z</time>
      </trkpt>
      <trkpt lat="44.51148" lon="1.42462">
        <ele>284.5902770917</ele>
        <time>2018-03-12T14:27:42Z</time>
      </trkpt>
      <trkpt lat="44.51148" lon="1.42469">
        <ele>284.89302647573</ele>
        <time>2018-03-12T14:27:47Z</time>
      </trkpt>
      <trkpt lat="44.5115" lon="1.42478">
        <ele>285.27269488058</ele>
        <time>2018-03-12T14:27:52Z</time>
      </trkpt>
      <trkpt lat="44.51149" lon="1.42483">
        <ele>285.21578037603</ele>
        <time>2018-03-12T14:27:58Z</time>
      </trkpt>
      <trkpt lat="44.5115" lon="1.4249">
        <ele>285.23446103167</ele>
        <time>2018-03-12T14:28:02Z</time>
      </trkpt>
      <trkpt lat="44.51152" lon="1.42495">
        <ele>285.49763114012</ele>
        <time>2018-03-12T14:28:07Z</time>
      </trkpt>
      <trkpt lat="44.51152" lon="1.42504">
        <ele>285.41584719253</ele>
        <time>2018-03-12T14:28:11Z</time>
      </trkpt>
      <trkpt lat="44.51152" lon="1.42514">
        <ele>285.30929711193</ele>
        <time>2018-03-12T14:28:15Z</time>
      </trkpt>
      <trkpt lat="44.51154" lon="1.42522">
        <ele>285.17434599006</ele>
        <time>2018-03-12T14:28:20Z</time>
      </trkpt>
      <trkpt lat="44.51154" lon="1.42527">
        <ele>285.2782562876</ele>
        <time>2018-03-12T14:28:24Z</time>
      </trkpt>
      <trkpt lat="44.51156" lon="1.42534">
        <ele>285.66548951929</ele>
        <time>2018-03-12T14:28:29Z</time>
      </trkpt>
      <trkpt lat="44.51157" lon="1.42541">
        <ele>285.99397252429</ele>
        <time>2018-03-12T14:28:33Z</time>
      </trkpt>
      <trkpt lat="44.51158" lon="1.42548">
        <ele>286.25584152997</ele>
        <time>2018-03-12T14:28:38Z</time>
      </trkpt>
      <trkpt lat="44.51158" lon="1.42556">
        <ele>286.1177842564</ele>
        <time>2018-03-12T14:28:42Z</time>
      </trkpt>
      <trkpt lat="44.51159" lon="1.42563">
        <ele>286.12344922279</ele>
        <time>2018-03-12T14:28:46Z</time>
      </trkpt>
      <trkpt lat="44.5116" lon="1.4257">
        <ele>286.16131760868</ele>
        <time>2018-03-12T14:28:50Z</time>
      </trkpt>
      <trkpt lat="44.51161" lon="1.42575">
        <ele>286.10364818534</ele>
        <time>2018-03-12T14:28:54Z</time>
      </trkpt>
      <trkpt lat="44.51163" lon="1.42583">
        <ele>285.88929113164</ele>
        <time>2018-03-12T14:28:58Z</time>
      </trkpt>
      <trkpt lat="44.51161" lon="1.42588">
        <ele>285.60524457172</ele>
        <time>2018-03-12T14:29:02Z</time>
      </trkpt>
      <trkpt lat="44.51154" lon="1.42589">
        <ele>285.48759464355</ele>
        <time>2018-03-12T14:29:06Z</time>
      </trkpt>
      <trkpt lat="44.51148" lon="1.42588">
        <ele>285.20190336841</ele>
        <time>2018-03-12T14:29:10Z</time>
      </trkpt>
      <trkpt lat="44.51142" lon="1.42586">
        <ele>285.00942691995</ele>
        <time>2018-03-12T14:29:14Z</time>
      </trkpt>
      <trkpt lat="44.51136" lon="1.42585">
        <ele>284.98550276847</ele>
        <time>2018-03-12T14:29:18Z</time>
      </trkpt>
      <trkpt lat="44.5113" lon="1.42584">
        <ele>285.2652001348</ele>
        <time>2018-03-12T14:29:23Z</time>
      </trkpt>
      <trkpt lat="44.51126" lon="1.42585">
        <ele>285.06983784277</ele>
        <time>2018-03-12T14:29:27Z</time>
      </trkpt>
      <trkpt lat="44.51121" lon="1.42583">
        <ele>284.44127021131</ele>
        <time>2018-03-12T14:29:32Z</time>
      </trkpt>
      <trkpt lat="44.51115" lon="1.42583">
        <ele>283.94435044081</ele>
        <time>2018-03-12T14:29:37Z</time>
      </trkpt>
      <trkpt lat="44.51109" lon="1.42585">
        <ele>283.8375436705</ele>
        <time>2018-03-12T14:29:41Z</time>
      </trkpt>
      <trkpt lat="44.51103" lon="1.42585">
        <ele>283.79172913935</ele>
        <time>2018-03-12T14:29:45Z</time>
      </trkpt>
      <trkpt lat="44.51097" lon="1.42586">
        <ele>283.73333532205</ele>
        <time>2018-03-12T14:29:50Z</time>
      </trkpt>
      <trkpt lat="44.51093" lon="1.42587">
        <ele>283.59614238594</ele>
        <time>2018-03-12T14:29:54Z</time>
      </trkpt>
      <trkpt lat="44.51088" lon="1.42589">
        <ele>283.54995910315</ele>
        <time>2018-03-12T14:29:59Z</time>
      </trkpt>
      <trkpt lat="44.51082" lon="1.4259">
        <ele>283.24188287058</ele>
        <time>2018-03-12T14:30:04Z</time>
      </trkpt>
      <trkpt lat="44.51077" lon="1.42588">
        <ele>282.72153547669</ele>
        <time>2018-03-12T14:30:08Z</time>
      </trkpt>
      <trkpt lat="44.51071" lon="1.4259">
        <ele>282.32634685414</ele>
        <time>2018-03-12T14:30:13Z</time>
      </trkpt>
      <trkpt lat="44.51066" lon="1.42592">
        <ele>281.84582518703</ele>
        <time>2018-03-12T14:30:17Z</time>
      </trkpt>
      <trkpt lat="44.5106" lon="1.42592">
        <ele>281.35509064378</ele>
        <time>2018-03-12T14:30:21Z</time>
      </trkpt>
      <trkpt lat="44.51053" lon="1.42592">
        <ele>281.02360490473</ele>
        <time>2018-03-12T14:30:26Z</time>
      </trkpt>
      <trkpt lat="44.51048" lon="1.42591">
        <ele>280.59859694856</ele>
        <time>2018-03-12T14:30:31Z</time>
      </trkpt>
      <trkpt lat="44.51042" lon="1.42591">
        <ele>280.35808487574</ele>
        <time>2018-03-12T14:30:35Z</time>
      </trkpt>
      <trkpt lat="44.51038" lon="1.4259">
        <ele>280.00990532096</ele>
        <time>2018-03-12T14:30:39Z</time>
      </trkpt>
      <trkpt lat="44.51031" lon="1.42588">
        <ele>279.72912560371</ele>
        <time>2018-03-12T14:30:43Z</time>
      </trkpt>
      <trkpt lat="44.51026" lon="1.42587">
        <ele>279.62983907091</ele>
        <time>2018-03-12T14:30:48Z</time>
      </trkpt>
      <trkpt lat="44.5102" lon="1.42587">
        <ele>279.6567627103</ele>
        <time>2018-03-12T14:30:52Z</time>
      </trkpt>
      <trkpt lat="44.51013" lon="1.42586">
        <ele>279.44975941531</ele>
        <time>2018-03-12T14:30:57Z</time>
      </trkpt>
      <trkpt lat="44.51006" lon="1.42585">
        <ele>279.50498533406</ele>
        <time>2018-03-12T14:31:01Z</time>
      </trkpt>
      <trkpt lat="44.51" lon="1.42585">
        <ele>279.73964545405</ele>
        <time>2018-03-12T14:31:06Z</time>
      </trkpt>
      <trkpt lat="44.50995" lon="1.42585">
        <ele>279.48762397009</ele>
        <time>2018-03-12T14:31:11Z</time>
      </trkpt>
      <trkpt lat="44.50991" lon="1.42587">
        <ele>279.08813710001</ele>
        <time>2018-03-12T14:31:17Z</time>
      </trkpt>
      <trkpt lat="44.50985" lon="1.42589">
        <ele>278.78312801959</ele>
        <time>2018-03-12T14:31:21Z</time>
      </trkpt>
      <trkpt lat="44.5098" lon="1.4259">
        <ele>278.58065163261</ele>
        <time>2018-03-12T14:31:25Z</time>
      </trkpt>
      <trkpt lat="44.50975" lon="1.4259">
        <ele>278.09756929898</ele>
        <time>2018-03-12T14:31:30Z</time>
      </trkpt>
      <trkpt lat="44.5097" lon="1.4259">
        <ele>277.97726159041</ele>
        <time>2018-03-12T14:31:34Z</time>
      </trkpt>
      <trkpt lat="44.50965" lon="1.42587">
        <ele>277.80488052367</ele>
        <time>2018-03-12T14:31:38Z</time>
      </trkpt>
      <trkpt lat="44.5096" lon="1.42586">
        <ele>277.62593045389</ele>
        <time>2018-03-12T14:31:42Z</time>
      </trkpt>
      <trkpt lat="44.50954" lon="1.42584">
        <ele>277.3647567965</ele>
        <time>2018-03-12T14:31:47Z</time>
      </trkpt>
      <trkpt lat="44.50949" lon="1.42582">
        <ele>276.81548200821</ele>
        <time>2018-03-12T14:31:51Z</time>
      </trkpt>
      <trkpt lat="44.50944" lon="1.42577">
        <ele>276.21285738495</ele>
        <time>2018-03-12T14:31:56Z</time>
      </trkpt>
      <trkpt lat="44.50937" lon="1.42573">
        <ele>275.58063948719</ele>
        <time>2018-03-12T14:32:01Z</time>
      </trkpt>
      <trkpt lat="44.50933" lon="1.42567">
        <ele>275.27148398435</ele>
        <time>2018-03-12T14:32:06Z</time>
      </trkpt>
      <trkpt lat="44.50928" lon="1.42561">
        <ele>275.13725643866</ele>
        <time>2018-03-12T14:32:10Z</time>
      </trkpt>
      <trkpt lat="44.50925" lon="1.42557">
        <ele>274.92239724276</ele>
        <time>2018-03-12T14:32:15Z</time>
      </trkpt>
      <trkpt lat="44.50923" lon="1.42553">
        <ele>274.37830114445</ele>
        <time>2018-03-12T14:32:19Z</time>
      </trkpt>
      <trkpt lat="44.5092" lon="1.42549">
        <ele>273.61839228632</ele>
        <time>2018-03-12T14:32:24Z</time>
      </trkpt>
      <trkpt lat="44.50914" lon="1.42544">
        <ele>272.9271632237</ele>
        <time>2018-03-12T14:32:29Z</time>
      </trkpt>
      <trkpt lat="44.5091" lon="1.4254">
        <ele>272.36553382159</ele>
        <time>2018-03-12T14:32:33Z</time>
      </trkpt>
      <trkpt lat="44.50908" lon="1.42534">
        <ele>271.82433148433</ele>
        <time>2018-03-12T14:32:37Z</time>
      </trkpt>
      <trkpt lat="44.50911" lon="1.42537">
        <ele>271.49477423222</ele>
        <time>2018-03-12T14:32:48Z</time>
      </trkpt>
      <trkpt lat="44.50913" lon="1.42543">
        <ele>271.7340983177</ele>
        <time>2018-03-12T14:32:54Z</time>
      </trkpt>
      <trkpt lat="44.50909" lon="1.4254">
        <ele>270.26319733917</ele>
        <time>2018-03-12T14:33:18Z</time>
      </trkpt>
      <trkpt lat="44.50906" lon="1.42536">
        <ele>270.10216830273</ele>
        <time>2018-03-12T14:33:22Z</time>
      </trkpt>
      <trkpt lat="44.50899" lon="1.42528">
        <ele>270.14144341581</ele>
        <time>2018-03-12T14:33:26Z</time>
      </trkpt>
      <trkpt lat="44.50895" lon="1.42522">
        <ele>269.93448251087</ele>
        <time>2018-03-12T14:33:31Z</time>
      </trkpt>
      <trkpt lat="44.50891" lon="1.42518">
        <ele>269.65702111809</ele>
        <time>2018-03-12T14:33:35Z</time>
      </trkpt>
      <trkpt lat="44.50887" lon="1.42511">
        <ele>269.47596323204</ele>
        <time>2018-03-12T14:33:40Z</time>
      </trkpt>
      <trkpt lat="44.50885" lon="1.42507">
        <ele>269.38759872408</ele>
        <time>2018-03-12T14:33:44Z</time>
      </trkpt>
      <trkpt lat="44.50881" lon="1.42503">
        <ele>269.14936684603</ele>
        <time>2018-03-12T14:33:48Z</time>
      </trkpt>
      <trkpt lat="44.50876" lon="1.42498">
        <ele>268.51099437391</ele>
        <time>2018-03-12T14:33:53Z</time>
      </trkpt>
      <trkpt lat="44.50872" lon="1.42493">
        <ele>267.91233243804</ele>
        <time>2018-03-12T14:33:57Z</time>
      </trkpt>
      <trkpt lat="44.50868" lon="1.42489">
        <ele>267.23239931464</ele>
        <time>2018-03-12T14:34:01Z</time>
      </trkpt>
      <trkpt lat="44.50865" lon="1.42485">
        <ele>266.71846233472</ele>
        <time>2018-03-12T14:34:05Z</time>
      </trkpt>
      <trkpt lat="44.50862" lon="1.4248">
        <ele>266.25681530478</ele>
        <time>2018-03-12T14:34:09Z</time>
      </trkpt>
      <trkpt lat="44.50856" lon="1.42476">
        <ele>265.84049184245</ele>
        <time>2018-03-12T14:34:14Z</time>
      </trkpt>
      <trkpt lat="44.50851" lon="1.42473">
        <ele>265.45891132161</ele>
        <time>2018-03-12T14:34:18Z</time>
      </trkpt>
      <trkpt lat="44.50846" lon="1.42468">
        <ele>265.20677900325</ele>
        <time>2018-03-12T14:34:22Z</time>
      </trkpt>
      <trkpt lat="44.50843" lon="1.42464">
        <ele>264.66287998217</ele>
        <time>2018-03-12T14:34:26Z</time>
      </trkpt>
      <trkpt lat="44.50839" lon="1.42461">
        <ele>264.02728533721</ele>
        <time>2018-03-12T14:34:31Z</time>
      </trkpt>
      <trkpt lat="44.50834" lon="1.42458">
        <ele>263.72560448343</ele>
        <time>2018-03-12T14:34:35Z</time>
      </trkpt>
      <trkpt lat="44.50829" lon="1.42453">
        <ele>263.38079504273</ele>
        <time>2018-03-12T14:34:40Z</time>
      </trkpt>
      <trkpt lat="44.50823" lon="1.42447">
        <ele>263.05871038964</ele>
        <time>2018-03-12T14:34:45Z</time>
      </trkpt>
      <trkpt lat="44.5082" lon="1.42444">
        <ele>262.95955638548</ele>
        <time>2018-03-12T14:34:50Z</time>
      </trkpt>
      <trkpt lat="44.50815" lon="1.4244">
        <ele>262.69404927325</ele>
        <time>2018-03-12T14:34:55Z</time>
      </trkpt>
      <trkpt lat="44.5081" lon="1.42436">
        <ele>262.34839968306</ele>
        <time>2018-03-12T14:34:59Z</time>
      </trkpt>
      <trkpt lat="44.50806" lon="1.42434">
        <ele>261.96825209191</ele>
        <time>2018-03-12T14:35:03Z</time>
      </trkpt>
      <trkpt lat="44.50801" lon="1.42431">
        <ele>261.72854609604</ele>
        <time>2018-03-12T14:35:07Z</time>
      </trkpt>
      <trkpt lat="44.50796" lon="1.4243">
        <ele>261.26032430635</ele>
        <time>2018-03-12T14:35:12Z</time>
      </trkpt>
      <trkpt lat="44.50792" lon="1.42429">
        <ele>260.52460619368</ele>
        <time>2018-03-12T14:35:16Z</time>
      </trkpt>
      <trkpt lat="44.50786" lon="1.42427">
        <ele>259.91351674361</ele>
        <time>2018-03-12T14:35:20Z</time>
      </trkpt>
      <trkpt lat="44.50781" lon="1.42423">
        <ele>259.36735490604</ele>
        <time>2018-03-12T14:35:24Z</time>
      </trkpt>
      <trkpt lat="44.50777" lon="1.42419">
        <ele>258.73773307524</ele>
        <time>2018-03-12T14:35:28Z</time>
      </trkpt>
      <trkpt lat="44.50772" lon="1.42416">
        <ele>258.14504060096</ele>
        <time>2018-03-12T14:35:33Z</time>
      </trkpt>
      <trkpt lat="44.50768" lon="1.42413">
        <ele>257.9386248257</ele>
        <time>2018-03-12T14:35:37Z</time>
      </trkpt>
      <trkpt lat="44.50764" lon="1.42411">
        <ele>257.38225218337</ele>
        <time>2018-03-12T14:35:52Z</time>
      </trkpt>
      <trkpt lat="44.50758" lon="1.42408">
        <ele>256.71959442185</ele>
        <time>2018-03-12T14:35:56Z</time>
      </trkpt>
      <trkpt lat="44.50752" lon="1.42405">
        <ele>256.17772136278</ele>
        <time>2018-03-12T14:36:00Z</time>
      </trkpt>
      <trkpt lat="44.50746" lon="1.42401">
        <ele>255.73964119364</ele>
        <time>2018-03-12T14:36:05Z</time>
      </trkpt>
      <trkpt lat="44.50741" lon="1.42396">
        <ele>255.4186867163</ele>
        <time>2018-03-12T14:36:09Z</time>
      </trkpt>
      <trkpt lat="44.50736" lon="1.4239">
        <ele>254.79284775307</ele>
        <time>2018-03-12T14:36:14Z</time>
      </trkpt>
      <trkpt lat="44.50732" lon="1.42384">
        <ele>254.39655521435</ele>
        <time>2018-03-12T14:36:18Z</time>
      </trkpt>
      <trkpt lat="44.50728" lon="1.42379">
        <ele>253.67239440179</ele>
        <time>2018-03-12T14:36:23Z</time>
      </trkpt>
      <trkpt lat="44.50724" lon="1.42375">
        <ele>253.16059689312</ele>
        <time>2018-03-12T14:36:27Z</time>
      </trkpt>
      <trkpt lat="44.50719" lon="1.42371">
        <ele>252.6038473462</ele>
        <time>2018-03-12T14:36:32Z</time>
      </trkpt>
      <trkpt lat="44.50714" lon="1.42366">
        <ele>252.17956349679</ele>
        <time>2018-03-12T14:36:36Z</time>
      </trkpt>
      <trkpt lat="44.50708" lon="1.42361">
        <ele>251.77777201502</ele>
        <time>2018-03-12T14:36:41Z</time>
      </trkpt>
      <trkpt lat="44.50705" lon="1.42357">
        <ele>251.43038012156</ele>
        <time>2018-03-12T14:36:45Z</time>
      </trkpt>
      <trkpt lat="44.507" lon="1.42353">
        <ele>250.80971158772</ele>
        <time>2018-03-12T14:36:49Z</time>
      </trkpt>
      <trkpt lat="44.50695" lon="1.42349">
        <ele>250.32146324418</ele>
        <time>2018-03-12T14:36:53Z</time>
      </trkpt>
      <trkpt lat="44.50691" lon="1.42348">
        <ele>249.94082397854</ele>
        <time>2018-03-12T14:36:57Z</time>
      </trkpt>
      <trkpt lat="44.50687" lon="1.42344">
        <ele>249.47637977239</ele>
        <time>2018-03-12T14:37:01Z</time>
      </trkpt>
      <trkpt lat="44.50682" lon="1.42337">
        <ele>248.80283245653</ele>
        <time>2018-03-12T14:37:06Z</time>
      </trkpt>
      <trkpt lat="44.50678" lon="1.42333">
        <ele>248.28003067438</ele>
        <time>2018-03-12T14:37:11Z</time>
      </trkpt>
      <trkpt lat="44.50673" lon="1.42328">
        <ele>247.99508705113</ele>
        <time>2018-03-12T14:37:16Z</time>
      </trkpt>
      <trkpt lat="44.50669" lon="1.42324">
        <ele>247.33097272219</ele>
        <time>2018-03-12T14:37:20Z</time>
      </trkpt>
      <trkpt lat="44.50666" lon="1.42321">
        <ele>246.49945352802</ele>
        <time>2018-03-12T14:37:25Z</time>
      </trkpt>
      <trkpt lat="44.5066" lon="1.42317">
        <ele>245.51137764399</ele>
        <time>2018-03-12T14:37:30Z</time>
      </trkpt>
      <trkpt lat="44.50657" lon="1.42311">
        <ele>244.56863000821</ele>
        <time>2018-03-12T14:37:34Z</time>
      </trkpt>
      <trkpt lat="44.50654" lon="1.42307">
        <ele>243.64046748791</ele>
        <time>2018-03-12T14:37:38Z</time>
      </trkpt>
      <trkpt lat="44.5065" lon="1.42302">
        <ele>242.86503269645</ele>
        <time>2018-03-12T14:37:43Z</time>
      </trkpt>
      <trkpt lat="44.50646" lon="1.42298">
        <ele>242.16179118679</ele>
        <time>2018-03-12T14:37:47Z</time>
      </trkpt>
      <trkpt lat="44.50642" lon="1.42292">
        <ele>241.58942110628</ele>
        <time>2018-03-12T14:37:51Z</time>
      </trkpt>
      <trkpt lat="44.50638" lon="1.42287">
        <ele>241.21335674608</ele>
        <time>2018-03-12T14:37:55Z</time>
      </trkpt>
      <trkpt lat="44.50633" lon="1.42281">
        <ele>240.77952936438</ele>
        <time>2018-03-12T14:38:00Z</time>
      </trkpt>
      <trkpt lat="44.50628" lon="1.42277">
        <ele>240.57385466604</ele>
        <time>2018-03-12T14:38:04Z</time>
      </trkpt>
      <trkpt lat="44.50624" lon="1.42272">
        <ele>240.04280722021</ele>
        <time>2018-03-12T14:38:09Z</time>
      </trkpt>
      <trkpt lat="44.50619" lon="1.42267">
        <ele>239.4840762122</ele>
        <time>2018-03-12T14:38:14Z</time>
      </trkpt>
      <trkpt lat="44.50615" lon="1.42264">
        <ele>239.11540099729</ele>
        <time>2018-03-12T14:38:18Z</time>
      </trkpt>
      <trkpt lat="44.5061" lon="1.42259">
        <ele>238.71161118319</ele>
        <time>2018-03-12T14:38:22Z</time>
      </trkpt>
      <trkpt lat="44.50606" lon="1.42255">
        <ele>238.39841254417</ele>
        <time>2018-03-12T14:38:27Z</time>
      </trkpt>
      <trkpt lat="44.50601" lon="1.4225">
        <ele>238.07719117912</ele>
        <time>2018-03-12T14:38:31Z</time>
      </trkpt>
      <trkpt lat="44.50597" lon="1.42247">
        <ele>237.83463721195</ele>
        <time>2018-03-12T14:38:35Z</time>
      </trkpt>
      <trkpt lat="44.50591" lon="1.42241">
        <ele>237.46188884296</ele>
        <time>2018-03-12T14:38:40Z</time>
      </trkpt>
      <trkpt lat="44.50587" lon="1.42234">
        <ele>237.22795998702</ele>
        <time>2018-03-12T14:38:45Z</time>
      </trkpt>
      <trkpt lat="44.50583" lon="1.42232">
        <ele>237.1073819801</ele>
        <time>2018-03-12T14:38:49Z</time>
      </trkpt>
      <trkpt lat="44.5058" lon="1.42226">
        <ele>236.7983067271</ele>
        <time>2018-03-12T14:38:53Z</time>
      </trkpt>
      <trkpt lat="44.50576" lon="1.42222">
        <ele>236.87186462225</ele>
        <time>2018-03-12T14:38:58Z</time>
      </trkpt>
      <trkpt lat="44.50572" lon="1.42215">
        <ele>236.53296424567</ele>
        <time>2018-03-12T14:39:03Z</time>
      </trkpt>
      <trkpt lat="44.50573" lon="1.42208">
        <ele>236.00345876501</ele>
        <time>2018-03-12T14:39:07Z</time>
      </trkpt>
      <trkpt lat="44.50574" lon="1.42201">
        <ele>235.26169218285</ele>
        <time>2018-03-12T14:39:12Z</time>
      </trkpt>
      <trkpt lat="44.50572" lon="1.42192">
        <ele>234.68466522157</ele>
        <time>2018-03-12T14:39:17Z</time>
      </trkpt>
      <trkpt lat="44.50572" lon="1.42184">
        <ele>234.14154333144</ele>
        <time>2018-03-12T14:39:22Z</time>
      </trkpt>
      <trkpt lat="44.50573" lon="1.42177">
        <ele>233.41429739517</ele>
        <time>2018-03-12T14:39:27Z</time>
      </trkpt>
      <trkpt lat="44.50572" lon="1.42167">
        <ele>232.84952746531</ele>
        <time>2018-03-12T14:39:31Z</time>
      </trkpt>
      <trkpt lat="44.50572" lon="1.42159">
        <ele>232.19212853693</ele>
        <time>2018-03-12T14:39:35Z</time>
      </trkpt>
      <trkpt lat="44.50573" lon="1.42152">
        <ele>231.51746753811</ele>
        <time>2018-03-12T14:39:39Z</time>
      </trkpt>
      <trkpt lat="44.50574" lon="1.42144">
        <ele>231.14445799667</ele>
        <time>2018-03-12T14:39:43Z</time>
      </trkpt>
      <trkpt lat="44.50574" lon="1.42136">
        <ele>231.04210625918</ele>
        <time>2018-03-12T14:39:48Z</time>
      </trkpt>
      <trkpt lat="44.50572" lon="1.42129">
        <ele>230.51492085388</ele>
        <time>2018-03-12T14:39:52Z</time>
      </trkpt>
      <trkpt lat="44.50574" lon="1.42123">
        <ele>229.85099029861</ele>
        <time>2018-03-12T14:39:56Z</time>
      </trkpt>
      <trkpt lat="44.50576" lon="1.42117">
        <ele>229.13775004518</ele>
        <time>2018-03-12T14:40:00Z</time>
      </trkpt>
      <trkpt lat="44.50578" lon="1.4211">
        <ele>228.27293737626</ele>
        <time>2018-03-12T14:40:04Z</time>
      </trkpt>
      <trkpt lat="44.5058" lon="1.42106">
        <ele>227.19278456363</ele>
        <time>2018-03-12T14:40:08Z</time>
      </trkpt>
      <trkpt lat="44.50582" lon="1.42098">
        <ele>226.23671613534</ele>
        <time>2018-03-12T14:40:13Z</time>
      </trkpt>
      <trkpt lat="44.50583" lon="1.42092">
        <ele>225.66904961967</ele>
        <time>2018-03-12T14:40:18Z</time>
      </trkpt>
      <trkpt lat="44.50583" lon="1.42086">
        <ele>224.80430965289</ele>
        <time>2018-03-12T14:40:22Z</time>
      </trkpt>
      <trkpt lat="44.50586" lon="1.42078">
        <ele>223.65308880985</ele>
        <time>2018-03-12T14:40:27Z</time>
      </trkpt>
      <trkpt lat="44.50588" lon="1.42073">
        <ele>222.56388141217</ele>
        <time>2018-03-12T14:40:32Z</time>
      </trkpt>
      <trkpt lat="44.5059" lon="1.42064">
        <ele>221.19833732611</ele>
        <time>2018-03-12T14:40:37Z</time>
      </trkpt>
      <trkpt lat="44.50591" lon="1.42055">
        <ele>219.64565778939</ele>
        <time>2018-03-12T14:40:42Z</time>
      </trkpt>
      <trkpt lat="44.50592" lon="1.4205">
        <ele>218.88017725431</ele>
        <time>2018-03-12T14:40:46Z</time>
      </trkpt>
      <trkpt lat="44.50592" lon="1.42044">
        <ele>217.92141469783</ele>
        <time>2018-03-12T14:40:50Z</time>
      </trkpt>
      <trkpt lat="44.50592" lon="1.42036">
        <ele>216.98114591217</ele>
        <time>2018-03-12T14:40:54Z</time>
      </trkpt>
      <trkpt lat="44.5059" lon="1.42027">
        <ele>216.199834796</ele>
        <time>2018-03-12T14:40:58Z</time>
      </trkpt>
      <trkpt lat="44.5059" lon="1.42021">
        <ele>215.28338015221</ele>
        <time>2018-03-12T14:41:02Z</time>
      </trkpt>
      <trkpt lat="44.50589" lon="1.42016">
        <ele>214.25217567432</ele>
        <time>2018-03-12T14:41:06Z</time>
      </trkpt>
      <trkpt lat="44.50589" lon="1.42005">
        <ele>213.32943824001</ele>
        <time>2018-03-12T14:41:11Z</time>
      </trkpt>
      <trkpt lat="44.50589" lon="1.41993">
        <ele>212.8644217514</ele>
        <time>2018-03-12T14:41:16Z</time>
      </trkpt>
      <trkpt lat="44.50588" lon="1.41988">
        <ele>212.51015307989</ele>
        <time>2018-03-12T14:41:20Z</time>
      </trkpt>
      <trkpt lat="44.50588" lon="1.4198">
        <ele>212.37821274057</ele>
        <time>2018-03-12T14:41:24Z</time>
      </trkpt>
      <trkpt lat="44.50588" lon="1.41974">
        <ele>211.9726853629</ele>
        <time>2018-03-12T14:41:29Z</time>
      </trkpt>
      <trkpt lat="44.50588" lon="1.41967">
        <ele>211.61010442921</ele>
        <time>2018-03-12T14:41:34Z</time>
      </trkpt>
      <trkpt lat="44.50586" lon="1.41961">
        <ele>211.3589262933</ele>
        <time>2018-03-12T14:41:38Z</time>
      </trkpt>
      <trkpt lat="44.50585" lon="1.41955">
        <ele>210.74572433568</ele>
        <time>2018-03-12T14:41:42Z</time>
      </trkpt>
      <trkpt lat="44.50582" lon="1.41948">
        <ele>209.76062303082</ele>
        <time>2018-03-12T14:41:47Z</time>
      </trkpt>
      <trkpt lat="44.50578" lon="1.4194">
        <ele>209.40799353869</ele>
        <time>2018-03-12T14:41:51Z</time>
      </trkpt>
      <trkpt lat="44.50577" lon="1.41932">
        <ele>209.31011289305</ele>
        <time>2018-03-12T14:41:55Z</time>
      </trkpt>
      <trkpt lat="44.50574" lon="1.41924">
        <ele>209.35642673888</ele>
        <time>2018-03-12T14:42:00Z</time>
      </trkpt>
      <trkpt lat="44.5057" lon="1.41918">
        <ele>209.25451500764</ele>
        <time>2018-03-12T14:42:05Z</time>
      </trkpt>
      <trkpt lat="44.50568" lon="1.41913">
        <ele>208.83052577884</ele>
        <time>2018-03-12T14:42:09Z</time>
      </trkpt>
      <trkpt lat="44.50565" lon="1.41905">
        <ele>208.74927118048</ele>
        <time>2018-03-12T14:42:14Z</time>
      </trkpt>
      <trkpt lat="44.50561" lon="1.41896">
        <ele>208.75756920132</ele>
        <time>2018-03-12T14:42:19Z</time>
      </trkpt>
      <trkpt lat="44.50559" lon="1.41891">
        <ele>208.57009931545</ele>
        <time>2018-03-12T14:42:24Z</time>
      </trkpt>
      <trkpt lat="44.50555" lon="1.41885">
        <ele>208.42963853731</ele>
        <time>2018-03-12T14:42:28Z</time>
      </trkpt>
      <trkpt lat="44.50553" lon="1.41879">
        <ele>208.34770172173</ele>
        <time>2018-03-12T14:42:32Z</time>
      </trkpt>
      <trkpt lat="44.50551" lon="1.41872">
        <ele>208.44856043749</ele>
        <time>2018-03-12T14:42:37Z</time>
      </trkpt>
      <trkpt lat="44.50549" lon="1.41866">
        <ele>208.43723484108</ele>
        <time>2018-03-12T14:42:41Z</time>
      </trkpt>
      <trkpt lat="44.50547" lon="1.41861">
        <ele>208.09628899889</ele>
        <time>2018-03-12T14:42:45Z</time>
      </trkpt>
      <trkpt lat="44.50545" lon="1.41855">
        <ele>207.96318211174</ele>
        <time>2018-03-12T14:42:50Z</time>
      </trkpt>
      <trkpt lat="44.50544" lon="1.41849">
        <ele>207.85900816697</ele>
        <time>2018-03-12T14:42:54Z</time>
      </trkpt>
      <trkpt lat="44.5054" lon="1.41843">
        <ele>207.69419669499</ele>
        <time>2018-03-12T14:42:58Z</time>
      </trkpt>
      <trkpt lat="44.50535" lon="1.41829">
        <ele>206.96979833452</ele>
        <time>2018-03-12T14:43:03Z</time>
      </trkpt>
      <trkpt lat="44.50532" lon="1.41825">
        <ele>206.57190958414</ele>
        <time>2018-03-12T14:43:07Z</time>
      </trkpt>
      <trkpt lat="44.50528" lon="1.41816">
        <ele>206.74364046867</ele>
        <time>2018-03-12T14:43:11Z</time>
      </trkpt>
      <trkpt lat="44.50525" lon="1.41812">
        <ele>206.71589985857</ele>
        <time>2018-03-12T14:43:15Z</time>
      </trkpt>
      <trkpt lat="44.50519" lon="1.41806">
        <ele>206.65942574429</ele>
        <time>2018-03-12T14:43:19Z</time>
      </trkpt>
      <trkpt lat="44.50517" lon="1.41802">
        <ele>206.84166636277</ele>
        <time>2018-03-12T14:43:24Z</time>
      </trkpt>
      <trkpt lat="44.50512" lon="1.41797">
        <ele>207.34116941512</ele>
        <time>2018-03-12T14:43:29Z</time>
      </trkpt>
      <trkpt lat="44.50507" lon="1.41793">
        <ele>207.38140165686</ele>
        <time>2018-03-12T14:43:33Z</time>
      </trkpt>
      <trkpt lat="44.50504" lon="1.41789">
        <ele>207.31454034817</ele>
        <time>2018-03-12T14:43:38Z</time>
      </trkpt>
      <trkpt lat="44.50501" lon="1.41784">
        <ele>206.96631388982</ele>
        <time>2018-03-12T14:43:43Z</time>
      </trkpt>
      <trkpt lat="44.50496" lon="1.41783">
        <ele>206.46602169946</ele>
        <time>2018-03-12T14:43:47Z</time>
      </trkpt>
      <trkpt lat="44.50492" lon="1.4178">
        <ele>205.77646721272</ele>
        <time>2018-03-12T14:43:53Z</time>
      </trkpt>
      <trkpt lat="44.50488" lon="1.41778">
        <ele>204.9188696128</ele>
        <time>2018-03-12T14:43:58Z</time>
      </trkpt>
      <trkpt lat="44.50485" lon="1.41778">
        <ele>204.13154216109</ele>
        <time>2018-03-12T14:44:03Z</time>
      </trkpt>
      <trkpt lat="44.50476" lon="1.41773">
        <ele>203.25203682181</ele>
        <time>2018-03-12T14:44:08Z</time>
      </trkpt>
      <trkpt lat="44.50473" lon="1.4177">
        <ele>201.0578018432</ele>
        <time>2018-03-12T14:44:15Z</time>
      </trkpt>
      <trkpt lat="44.50468" lon="1.41768">
        <ele>198.65922903808</ele>
        <time>2018-03-12T14:44:20Z</time>
      </trkpt>
      <trkpt lat="44.5046" lon="1.41762">
        <ele>197.63123462918</ele>
        <time>2018-03-12T14:44:24Z</time>
      </trkpt>
      <trkpt lat="44.50458" lon="1.41762">
        <ele>197.2333254657</ele>
        <time>2018-03-12T14:44:29Z</time>
      </trkpt>
      <trkpt lat="44.50447" lon="1.41761">
        <ele>197.92640619086</ele>
        <time>2018-03-12T14:44:33Z</time>
      </trkpt>
      <trkpt lat="44.50436" lon="1.41755">
        <ele>199.21009235614</ele>
        <time>2018-03-12T14:44:38Z</time>
      </trkpt>
      <trkpt lat="44.50429" lon="1.41752">
        <ele>200.80628541613</ele>
        <time>2018-03-12T14:44:43Z</time>
      </trkpt>
      <trkpt lat="44.50419" lon="1.41747">
        <ele>201.72728384117</ele>
        <time>2018-03-12T14:44:47Z</time>
      </trkpt>
      <trkpt lat="44.50414" lon="1.41742">
        <ele>202.40174094284</ele>
        <time>2018-03-12T14:44:52Z</time>
      </trkpt>
      <trkpt lat="44.50413" lon="1.41741">
        <ele>203.00277041473</ele>
        <time>2018-03-12T14:44:56Z</time>
      </trkpt>
      <trkpt lat="44.50405" lon="1.41737">
        <ele>203.24838910696</ele>
        <time>2018-03-12T14:45:00Z</time>
      </trkpt>
      <trkpt lat="44.504" lon="1.41737">
        <ele>202.83748847948</ele>
        <time>2018-03-12T14:45:04Z</time>
      </trkpt>
      <trkpt lat="44.50396" lon="1.41736">
        <ele>202.2062049277</ele>
        <time>2018-03-12T14:45:08Z</time>
      </trkpt>
      <trkpt lat="44.50393" lon="1.41732">
        <ele>200.85416397658</ele>
        <time>2018-03-12T14:45:14Z</time>
      </trkpt>
      <trkpt lat="44.5038" lon="1.4173">
        <ele>199.85940209515</ele>
        <time>2018-03-12T14:45:19Z</time>
      </trkpt>
      <trkpt lat="44.50377" lon="1.4173">
        <ele>199.71121601843</ele>
        <time>2018-03-12T14:45:25Z</time>
      </trkpt>
      <trkpt lat="44.50372" lon="1.41728">
        <ele>200.12720096252</ele>
        <time>2018-03-12T14:45:30Z</time>
      </trkpt>
      <trkpt lat="44.5037" lon="1.41725">
        <ele>200.16231603066</ele>
        <time>2018-03-12T14:45:34Z</time>
      </trkpt>
      <trkpt lat="44.50367" lon="1.41719">
        <ele>199.9914554185</ele>
        <time>2018-03-12T14:45:39Z</time>
      </trkpt>
      <trkpt lat="44.50364" lon="1.41713">
        <ele>200.15469897833</ele>
        <time>2018-03-12T14:45:43Z</time>
      </trkpt>
      <trkpt lat="44.50366" lon="1.41705">
        <ele>199.95275737455</ele>
        <time>2018-03-12T14:45:47Z</time>
      </trkpt>
      <trkpt lat="44.50367" lon="1.41695">
        <ele>199.52330499836</ele>
        <time>2018-03-12T14:45:51Z</time>
      </trkpt>
      <trkpt lat="44.50367" lon="1.41689">
        <ele>199.31897993641</ele>
        <time>2018-03-12T14:45:55Z</time>
      </trkpt>
      <trkpt lat="44.50369" lon="1.41682">
        <ele>198.99499598825</ele>
        <time>2018-03-12T14:46:00Z</time>
      </trkpt>
      <trkpt lat="44.5037" lon="1.41675">
        <ele>198.76181963889</ele>
        <time>2018-03-12T14:46:04Z</time>
      </trkpt>
      <trkpt lat="44.50374" lon="1.41667">
        <ele>198.35313809652</ele>
        <time>2018-03-12T14:46:09Z</time>
      </trkpt>
      <trkpt lat="44.50377" lon="1.41662">
        <ele>198.37533902768</ele>
        <time>2018-03-12T14:46:13Z</time>
      </trkpt>
      <trkpt lat="44.50381" lon="1.41654">
        <ele>198.71524791382</ele>
        <time>2018-03-12T14:46:17Z</time>
      </trkpt>
      <trkpt lat="44.50387" lon="1.41646">
        <ele>199.34941384058</ele>
        <time>2018-03-12T14:46:21Z</time>
      </trkpt>
      <trkpt lat="44.50394" lon="1.41642">
        <ele>200.15273897133</ele>
        <time>2018-03-12T14:46:25Z</time>
      </trkpt>
      <trkpt lat="44.50397" lon="1.41638">
        <ele>200.75286789595</ele>
        <time>2018-03-12T14:46:29Z</time>
      </trkpt>
      <trkpt lat="44.50404" lon="1.41637">
        <ele>201.00121546807</ele>
        <time>2018-03-12T14:46:34Z</time>
      </trkpt>
      <trkpt lat="44.5041" lon="1.41636">
        <ele>200.97424351395</ele>
        <time>2018-03-12T14:46:38Z</time>
      </trkpt>
      <trkpt lat="44.50418" lon="1.41634">
        <ele>200.64566413519</ele>
        <time>2018-03-12T14:46:42Z</time>
      </trkpt>
      <trkpt lat="44.50421" lon="1.41631">
        <ele>200.5401500193</ele>
        <time>2018-03-12T14:46:46Z</time>
      </trkpt>
      <trkpt lat="44.50428" lon="1.41631">
        <ele>200.06968359251</ele>
        <time>2018-03-12T14:46:51Z</time>
      </trkpt>
      <trkpt lat="44.50431" lon="1.41629">
        <ele>199.32576076263</ele>
        <time>2018-03-12T14:46:56Z</time>
      </trkpt>
      <trkpt lat="44.50436" lon="1.4163">
        <ele>198.42851986306</ele>
        <time>2018-03-12T14:47:00Z</time>
      </trkpt>
      <trkpt lat="44.5044" lon="1.41628">
        <ele>197.01383429051</ele>
        <time>2018-03-12T14:47:06Z</time>
      </trkpt>
      <trkpt lat="44.50444" lon="1.41626">
        <ele>196.2310113881</ele>
        <time>2018-03-12T14:47:11Z</time>
      </trkpt>
      <trkpt lat="44.5045" lon="1.41623">
        <ele>195.77819122934</ele>
        <time>2018-03-12T14:47:15Z</time>
      </trkpt>
      <trkpt lat="44.50456" lon="1.41619">
        <ele>195.19129660034</ele>
        <time>2018-03-12T14:47:20Z</time>
      </trkpt>
      <trkpt lat="44.50461" lon="1.41616">
        <ele>194.99320458553</ele>
        <time>2018-03-12T14:47:24Z</time>
      </trkpt>
      <trkpt lat="44.50464" lon="1.41612">
        <ele>194.7519132428</ele>
        <time>2018-03-12T14:47:28Z</time>
      </trkpt>
      <trkpt lat="44.50466" lon="1.41605">
        <ele>194.4157653162</ele>
        <time>2018-03-12T14:47:32Z</time>
      </trkpt>
      <trkpt lat="44.50468" lon="1.41595">
        <ele>194.09235656805</ele>
        <time>2018-03-12T14:47:36Z</time>
      </trkpt>
      <trkpt lat="44.50468" lon="1.41587">
        <ele>193.77959577502</ele>
        <time>2018-03-12T14:47:40Z</time>
      </trkpt>
      <trkpt lat="44.50468" lon="1.41582">
        <ele>191.64722326102</ele>
        <time>2018-03-12T14:47:47Z</time>
      </trkpt>
      <trkpt lat="44.50467" lon="1.41576">
        <ele>189.99678214419</ele>
        <time>2018-03-12T14:47:51Z</time>
      </trkpt>
      <trkpt lat="44.50467" lon="1.41571">
        <ele>188.11970775425</ele>
        <time>2018-03-12T14:47:55Z</time>
      </trkpt>
      <trkpt lat="44.50467" lon="1.41564">
        <ele>186.48640464956</ele>
        <time>2018-03-12T14:47:59Z</time>
      </trkpt>
      <trkpt lat="44.50466" lon="1.41557">
        <ele>184.46334335459</ele>
        <time>2018-03-12T14:48:04Z</time>
      </trkpt>
      <trkpt lat="44.50466" lon="1.41552">
        <ele>183.06128099426</ele>
        <time>2018-03-12T14:48:08Z</time>
      </trkpt>
      <trkpt lat="44.50464" lon="1.4154">
        <ele>182.18300228225</ele>
        <time>2018-03-12T14:48:12Z</time>
      </trkpt>
      <trkpt lat="44.50461" lon="1.41531">
        <ele>181.08589167424</ele>
        <time>2018-03-12T14:48:17Z</time>
      </trkpt>
      <trkpt lat="44.50459" lon="1.41525">
        <ele>180.30416905331</ele>
        <time>2018-03-12T14:48:21Z</time>
      </trkpt>
      <trkpt lat="44.50456" lon="1.41518">
        <ele>179.58280121892</ele>
        <time>2018-03-12T14:48:26Z</time>
      </trkpt>
      <trkpt lat="44.50455" lon="1.41508">
        <ele>179.28129819265</ele>
        <time>2018-03-12T14:48:31Z</time>
      </trkpt>
      <trkpt lat="44.50454" lon="1.41499">
        <ele>178.96964284299</ele>
        <time>2018-03-12T14:48:36Z</time>
      </trkpt>
      <trkpt lat="44.50453" lon="1.4149">
        <ele>179.05206587498</ele>
        <time>2018-03-12T14:48:40Z</time>
      </trkpt>
      <trkpt lat="44.50453" lon="1.41484">
        <ele>179.1272185765</ele>
        <time>2018-03-12T14:48:44Z</time>
      </trkpt>
      <trkpt lat="44.50454" lon="1.41479">
        <ele>179.26757334994</ele>
        <time>2018-03-12T14:48:49Z</time>
      </trkpt>
      <trkpt lat="44.50451" lon="1.4147">
        <ele>180.0073887259</ele>
        <time>2018-03-12T14:48:54Z</time>
      </trkpt>
      <trkpt lat="44.50447" lon="1.41462">
        <ele>180.35098579233</ele>
        <time>2018-03-12T14:48:59Z</time>
      </trkpt>
      <trkpt lat="44.50443" lon="1.41458">
        <ele>180.43755757289</ele>
        <time>2018-03-12T14:49:03Z</time>
      </trkpt>
      <trkpt lat="44.50438" lon="1.41454">
        <ele>180.5599408883</ele>
        <time>2018-03-12T14:49:08Z</time>
      </trkpt>
      <trkpt lat="44.50433" lon="1.41451">
        <ele>180.95716069566</ele>
        <time>2018-03-12T14:49:12Z</time>
      </trkpt>
      <trkpt lat="44.50427" lon="1.41445">
        <ele>181.21409117002</ele>
        <time>2018-03-12T14:49:16Z</time>
      </trkpt>
      <trkpt lat="44.50424" lon="1.41441">
        <ele>181.33858768486</ele>
        <time>2018-03-12T14:49:20Z</time>
      </trkpt>
      <trkpt lat="44.50421" lon="1.41437">
        <ele>181.27641595936</ele>
        <time>2018-03-12T14:49:24Z</time>
      </trkpt>
      <trkpt lat="44.50416" lon="1.41434">
        <ele>180.99733951035</ele>
        <time>2018-03-12T14:49:28Z</time>
      </trkpt>
      <trkpt lat="44.50408" lon="1.41431">
        <ele>180.60845873354</ele>
        <time>2018-03-12T14:49:33Z</time>
      </trkpt>
      <trkpt lat="44.50403" lon="1.4143">
        <ele>179.92005130819</ele>
        <time>2018-03-12T14:49:38Z</time>
      </trkpt>
      <trkpt lat="44.50398" lon="1.41428">
        <ele>179.19308897081</ele>
        <time>2018-03-12T14:49:42Z</time>
      </trkpt>
      <trkpt lat="44.50395" lon="1.41426">
        <ele>178.53190541088</ele>
        <time>2018-03-12T14:49:46Z</time>
      </trkpt>
      <trkpt lat="44.50392" lon="1.41423">
        <ele>177.78233957803</ele>
        <time>2018-03-12T14:49:50Z</time>
      </trkpt>
      <trkpt lat="44.50388" lon="1.41422">
        <ele>176.93143274369</ele>
        <time>2018-03-12T14:49:54Z</time>
      </trkpt>
      <trkpt lat="44.50385" lon="1.41419">
        <ele>176.28993720893</ele>
        <time>2018-03-12T14:49:58Z</time>
      </trkpt>
      <trkpt lat="44.5038" lon="1.41418">
        <ele>175.45529844068</ele>
        <time>2018-03-12T14:50:03Z</time>
      </trkpt>
      <trkpt lat="44.50376" lon="1.41417">
        <ele>174.97548541239</ele>
        <time>2018-03-12T14:50:07Z</time>
      </trkpt>
      <trkpt lat="44.50371" lon="1.41415">
        <ele>174.59806173333</ele>
        <time>2018-03-12T14:50:11Z</time>
      </trkpt>
      <trkpt lat="44.50362" lon="1.41411">
        <ele>174.16095458886</ele>
        <time>2018-03-12T14:50:16Z</time>
      </trkpt>
      <trkpt lat="44.50355" lon="1.41409">
        <ele>173.75844673167</ele>
        <time>2018-03-12T14:50:21Z</time>
      </trkpt>
      <trkpt lat="44.50349" lon="1.41408">
        <ele>173.49387356599</ele>
        <time>2018-03-12T14:50:25Z</time>
      </trkpt>
      <trkpt lat="44.50343" lon="1.41406">
        <ele>173.39642734504</ele>
        <time>2018-03-12T14:50:29Z</time>
      </trkpt>
      <trkpt lat="44.50336" lon="1.41404">
        <ele>173.45670007136</ele>
        <time>2018-03-12T14:50:34Z</time>
      </trkpt>
      <trkpt lat="44.50329" lon="1.41403">
        <ele>173.72700544197</ele>
        <time>2018-03-12T14:50:39Z</time>
      </trkpt>
      <trkpt lat="44.50323" lon="1.41401">
        <ele>173.87851673147</ele>
        <time>2018-03-12T14:50:44Z</time>
      </trkpt>
      <trkpt lat="44.50317" lon="1.41397">
        <ele>173.78593761082</ele>
        <time>2018-03-12T14:50:49Z</time>
      </trkpt>
      <trkpt lat="44.5031" lon="1.41396">
        <ele>173.89653032979</ele>
        <time>2018-03-12T14:50:53Z</time>
      </trkpt>
      <trkpt lat="44.50304" lon="1.41393">
        <ele>174.15328520643</ele>
        <time>2018-03-12T14:50:58Z</time>
      </trkpt>
      <trkpt lat="44.50298" lon="1.41389">
        <ele>174.47266856451</ele>
        <time>2018-03-12T14:51:03Z</time>
      </trkpt>
      <trkpt lat="44.50293" lon="1.41386">
        <ele>174.62116781055</ele>
        <time>2018-03-12T14:51:07Z</time>
      </trkpt>
      <trkpt lat="44.50286" lon="1.41385">
        <ele>174.97289451362</ele>
        <time>2018-03-12T14:51:12Z</time>
      </trkpt>
      <trkpt lat="44.5028" lon="1.41383">
        <ele>175.31718437242</ele>
        <time>2018-03-12T14:51:16Z</time>
      </trkpt>
      <trkpt lat="44.50275" lon="1.41381">
        <ele>175.00185638494</ele>
        <time>2018-03-12T14:51:21Z</time>
      </trkpt>
      <trkpt lat="44.50272" lon="1.41379">
        <ele>174.26581095077</ele>
        <time>2018-03-12T14:51:26Z</time>
      </trkpt>
      <trkpt lat="44.50267" lon="1.41376">
        <ele>172.95701406015</ele>
        <time>2018-03-12T14:51:31Z</time>
      </trkpt>
      <trkpt lat="44.50263" lon="1.41373">
        <ele>171.79350109252</ele>
        <time>2018-03-12T14:51:36Z</time>
      </trkpt>
      <trkpt lat="44.5026" lon="1.41371">
        <ele>171.1536437014</ele>
        <time>2018-03-12T14:51:41Z</time>
      </trkpt>
      <trkpt lat="44.50257" lon="1.41368">
        <ele>170.20659084854</ele>
        <time>2018-03-12T14:51:45Z</time>
      </trkpt>
      <trkpt lat="44.50251" lon="1.41362">
        <ele>168.64695262509</ele>
        <time>2018-03-12T14:51:50Z</time>
      </trkpt>
      <trkpt lat="44.50249" lon="1.41358">
        <ele>167.6781161388</ele>
        <time>2018-03-12T14:51:54Z</time>
      </trkpt>
      <trkpt lat="44.50241" lon="1.4135">
        <ele>166.90979599275</ele>
        <time>2018-03-12T14:51:58Z</time>
      </trkpt>
      <trkpt lat="44.50234" lon="1.41346">
        <ele>166.18674615806</ele>
        <time>2018-03-12T14:52:02Z</time>
      </trkpt>
      <trkpt lat="44.50231" lon="1.41344">
        <ele>164.92872067165</ele>
        <time>2018-03-12T14:52:06Z</time>
      </trkpt>
      <trkpt lat="44.50224" lon="1.41342">
        <ele>163.5900125333</ele>
        <time>2018-03-12T14:52:10Z</time>
      </trkpt>
      <trkpt lat="44.5022" lon="1.41339">
        <ele>162.37166744637</ele>
        <time>2018-03-12T14:52:15Z</time>
      </trkpt>
      <trkpt lat="44.50216" lon="1.41331">
        <ele>161.29922176756</ele>
        <time>2018-03-12T14:52:20Z</time>
      </trkpt>
      <trkpt lat="44.50213" lon="1.41326">
        <ele>161.12810096131</ele>
        <time>2018-03-12T14:52:24Z</time>
      </trkpt>
      <trkpt lat="44.5021" lon="1.41322">
        <ele>160.53495487441</ele>
        <time>2018-03-12T14:52:28Z</time>
      </trkpt>
      <trkpt lat="44.50204" lon="1.41315">
        <ele>159.95517908159</ele>
        <time>2018-03-12T14:52:33Z</time>
      </trkpt>
      <trkpt lat="44.50201" lon="1.4131">
        <ele>159.44366463098</ele>
        <time>2018-03-12T14:52:37Z</time>
      </trkpt>
      <trkpt lat="44.50199" lon="1.41305">
        <ele>158.33898466697</ele>
        <time>2018-03-12T14:52:42Z</time>
      </trkpt>
      <trkpt lat="44.50194" lon="1.41299">
        <ele>157.5570900467</ele>
        <time>2018-03-12T14:52:46Z</time>
      </trkpt>
      <trkpt lat="44.50191" lon="1.41296">
        <ele>157.06799322658</ele>
        <time>2018-03-12T14:52:50Z</time>
      </trkpt>
      <trkpt lat="44.50187" lon="1.41295">
        <ele>156.73615881419</ele>
        <time>2018-03-12T14:52:54Z</time>
      </trkpt>
      <trkpt lat="44.50181" lon="1.41292">
        <ele>156.41667212486</ele>
        <time>2018-03-12T14:52:58Z</time>
      </trkpt>
      <trkpt lat="44.50176" lon="1.41286">
        <ele>156.09612515453</ele>
        <time>2018-03-12T14:53:03Z</time>
      </trkpt>
      <trkpt lat="44.50173" lon="1.41282">
        <ele>156.06054753689</ele>
        <time>2018-03-12T14:53:08Z</time>
      </trkpt>
      <trkpt lat="44.50166" lon="1.41278">
        <ele>156.073440632</ele>
        <time>2018-03-12T14:53:12Z</time>
      </trkpt>
      <trkpt lat="44.50161" lon="1.41275">
        <ele>156.28378500188</ele>
        <time>2018-03-12T14:53:17Z</time>
      </trkpt>
      <trkpt lat="44.50154" lon="1.41273">
        <ele>156.55858977306</ele>
        <time>2018-03-12T14:53:21Z</time>
      </trkpt>
      <trkpt lat="44.5015" lon="1.41269">
        <ele>156.69235183833</ele>
        <time>2018-03-12T14:53:25Z</time>
      </trkpt>
      <trkpt lat="44.50146" lon="1.41266">
        <ele>156.84244435527</ele>
        <time>2018-03-12T14:53:30Z</time>
      </trkpt>
      <trkpt lat="44.5014" lon="1.41262">
        <ele>156.5746956975</ele>
        <time>2018-03-12T14:53:35Z</time>
      </trkpt>
      <trkpt lat="44.50135" lon="1.4126">
        <ele>156.4705942471</ele>
        <time>2018-03-12T14:53:39Z</time>
      </trkpt>
      <trkpt lat="44.5013" lon="1.41257">
        <ele>156.38169004222</ele>
        <time>2018-03-12T14:53:44Z</time>
      </trkpt>
      <trkpt lat="44.50127" lon="1.41255">
        <ele>155.88724470594</ele>
        <time>2018-03-12T14:53:49Z</time>
      </trkpt>
      <trkpt lat="44.50121" lon="1.41253">
        <ele>155.33178955382</ele>
        <time>2018-03-12T14:53:53Z</time>
      </trkpt>
      <trkpt lat="44.50116" lon="1.4125">
        <ele>154.69907745294</ele>
        <time>2018-03-12T14:53:57Z</time>
      </trkpt>
      <trkpt lat="44.50111" lon="1.41248">
        <ele>154.2234605115</ele>
        <time>2018-03-12T14:54:01Z</time>
      </trkpt>
      <trkpt lat="44.50106" lon="1.41247">
        <ele>154.06590708319</ele>
        <time>2018-03-12T14:54:05Z</time>
      </trkpt>
      <trkpt lat="44.50101" lon="1.41246">
        <ele>154.22851075593</ele>
        <time>2018-03-12T14:54:09Z</time>
      </trkpt>
      <trkpt lat="44.50094" lon="1.41245">
        <ele>154.60151245982</ele>
        <time>2018-03-12T14:54:13Z</time>
      </trkpt>
      <trkpt lat="44.50088" lon="1.41242">
        <ele>154.92292862465</ele>
        <time>2018-03-12T14:54:17Z</time>
      </trkpt>
      <trkpt lat="44.50081" lon="1.4124">
        <ele>155.19417767645</ele>
        <time>2018-03-12T14:54:21Z</time>
      </trkpt>
      <trkpt lat="44.50076" lon="1.41237">
        <ele>155.27545197376</ele>
        <time>2018-03-12T14:54:25Z</time>
      </trkpt>
      <trkpt lat="44.50071" lon="1.41236">
        <ele>155.2019854291</ele>
        <time>2018-03-12T14:54:30Z</time>
      </trkpt>
      <trkpt lat="44.50066" lon="1.41234">
        <ele>155.31669257547</ele>
        <time>2018-03-12T14:54:35Z</time>
      </trkpt>
      <trkpt lat="44.50062" lon="1.41231">
        <ele>155.39708602037</ele>
        <time>2018-03-12T14:54:39Z</time>
      </trkpt>
      <trkpt lat="44.50056" lon="1.41229">
        <ele>155.08468237744</ele>
        <time>2018-03-12T14:54:44Z</time>
      </trkpt>
      <trkpt lat="44.50051" lon="1.41229">
        <ele>154.98157464286</ele>
        <time>2018-03-12T14:54:48Z</time>
      </trkpt>
      <trkpt lat="44.50046" lon="1.41229">
        <ele>154.88541722544</ele>
        <time>2018-03-12T14:54:53Z</time>
      </trkpt>
      <trkpt lat="44.50041" lon="1.41231">
        <ele>154.71252424184</ele>
        <time>2018-03-12T14:54:57Z</time>
      </trkpt>
      <trkpt lat="44.50035" lon="1.41232">
        <ele>154.59359623878</ele>
        <time>2018-03-12T14:55:01Z</time>
      </trkpt>
      <trkpt lat="44.50031" lon="1.4123">
        <ele>154.51427194887</ele>
        <time>2018-03-12T14:55:05Z</time>
      </trkpt>
      <trkpt lat="44.50026" lon="1.4123">
        <ele>154.18249662597</ele>
        <time>2018-03-12T14:55:09Z</time>
      </trkpt>
      <trkpt lat="44.50022" lon="1.41231">
        <ele>153.86845014209</ele>
        <time>2018-03-12T14:55:13Z</time>
      </trkpt>
      <trkpt lat="44.50015" lon="1.41233">
        <ele>153.42469936664</ele>
        <time>2018-03-12T14:55:18Z</time>
      </trkpt>
      <trkpt lat="44.50011" lon="1.41234">
        <ele>153.24527235418</ele>
        <time>2018-03-12T14:55:23Z</time>
      </trkpt>
      <trkpt lat="44.50007" lon="1.41234">
        <ele>152.99240268113</ele>
        <time>2018-03-12T14:55:27Z</time>
      </trkpt>
      <trkpt lat="44.50001" lon="1.41236">
        <ele>152.34118741985</ele>
        <time>2018-03-12T14:55:32Z</time>
      </trkpt>
      <trkpt lat="44.49996" lon="1.41237">
        <ele>151.85808558438</ele>
        <time>2018-03-12T14:55:36Z</time>
      </trkpt>
      <trkpt lat="44.4999" lon="1.41239">
        <ele>151.36021677613</ele>
        <time>2018-03-12T14:55:41Z</time>
      </trkpt>
      <trkpt lat="44.49984" lon="1.41241">
        <ele>151.12032405032</ele>
        <time>2018-03-12T14:55:45Z</time>
      </trkpt>
      <trkpt lat="44.49978" lon="1.41242">
        <ele>150.95263173806</ele>
        <time>2018-03-12T14:55:50Z</time>
      </trkpt>
      <trkpt lat="44.49975" lon="1.41242">
        <ele>150.74057437435</ele>
        <time>2018-03-12T14:55:55Z</time>
      </trkpt>
      <trkpt lat="44.49968" lon="1.41248">
        <ele>150.24024525477</ele>
        <time>2018-03-12T14:55:59Z</time>
      </trkpt>
      <trkpt lat="44.49961" lon="1.41251">
        <ele>149.29830205195</ele>
        <time>2018-03-12T14:56:04Z</time>
      </trkpt>
      <trkpt lat="44.49957" lon="1.41255">
        <ele>148.43775892078</ele>
        <time>2018-03-12T14:56:08Z</time>
      </trkpt>
      <trkpt lat="44.49952" lon="1.41258">
        <ele>147.7699094233</ele>
        <time>2018-03-12T14:56:13Z</time>
      </trkpt>
      <trkpt lat="44.49947" lon="1.41259">
        <ele>147.4262533028</ele>
        <time>2018-03-12T14:56:19Z</time>
      </trkpt>
      <trkpt lat="44.49936" lon="1.41262">
        <ele>146.78071782791</ele>
        <time>2018-03-12T14:56:24Z</time>
      </trkpt>
      <trkpt lat="44.4993" lon="1.41265">
        <ele>146.54482533183</ele>
        <time>2018-03-12T14:56:28Z</time>
      </trkpt>
      <trkpt lat="44.49925" lon="1.41269">
        <ele>146.69117098701</ele>
        <time>2018-03-12T14:56:33Z</time>
      </trkpt>
      <trkpt lat="44.49921" lon="1.41272">
        <ele>146.7497304526</ele>
        <time>2018-03-12T14:56:37Z</time>
      </trkpt>
      <trkpt lat="44.49918" lon="1.41275">
        <ele>146.43717071621</ele>
        <time>2018-03-12T14:56:42Z</time>
      </trkpt>
      <trkpt lat="44.49913" lon="1.4128">
        <ele>145.88265657101</ele>
        <time>2018-03-12T14:56:47Z</time>
      </trkpt>
      <trkpt lat="44.4991" lon="1.41283">
        <ele>145.17018741009</ele>
        <time>2018-03-12T14:56:53Z</time>
      </trkpt>
      <trkpt lat="44.49906" lon="1.41284">
        <ele>144.61085541169</ele>
        <time>2018-03-12T14:56:58Z</time>
      </trkpt>
      <trkpt lat="44.499" lon="1.41291">
        <ele>144.2745968868</ele>
        <time>2018-03-12T14:57:02Z</time>
      </trkpt>
      <trkpt lat="44.49893" lon="1.41303">
        <ele>143.96770284334</ele>
        <time>2018-03-12T14:57:06Z</time>
      </trkpt>
      <trkpt lat="44.4989" lon="1.41307">
        <ele>143.50248101362</ele>
        <time>2018-03-12T14:57:11Z</time>
      </trkpt>
      <trkpt lat="44.49886" lon="1.4131">
        <ele>142.35478580078</ele>
        <time>2018-03-12T14:57:16Z</time>
      </trkpt>
      <trkpt lat="44.49883" lon="1.41316">
        <ele>141.10641504549</ele>
        <time>2018-03-12T14:57:21Z</time>
      </trkpt>
      <trkpt lat="44.49878" lon="1.41314">
        <ele>139.02070328759</ele>
        <time>2018-03-12T14:57:29Z</time>
      </trkpt>
      <trkpt lat="44.49878" lon="1.41319">
        <ele>140.00517182554</ele>
        <time>2018-03-12T15:02:48Z</time>
      </trkpt>
      <trkpt lat="44.49875" lon="1.41316">
        <ele>139.88006580036</ele>
        <time>2018-03-12T15:05:06Z</time>
      </trkpt>
      <trkpt lat="44.49873" lon="1.4131">
        <ele>142.05419688291</ele>
        <time>2018-03-12T15:05:30Z</time>
      </trkpt>
      <trkpt lat="44.49872" lon="1.41305">
        <ele>143.79012577181</ele>
        <time>2018-03-12T15:07:04Z</time>
      </trkpt>
      <trkpt lat="44.49867" lon="1.41304">
        <ele>143.26377226995</ele>
        <time>2018-03-12T15:07:10Z</time>
      </trkpt>
      <trkpt lat="44.49864" lon="1.41304">
        <ele>142.78999504711</ele>
        <time>2018-03-12T15:07:15Z</time>
      </trkpt>
      <trkpt lat="44.4986" lon="1.41302">
        <ele>142.24357615324</ele>
        <time>2018-03-12T15:07:20Z</time>
      </trkpt>
      <trkpt lat="44.49856" lon="1.41297">
        <ele>141.33909350553</ele>
        <time>2018-03-12T15:07:25Z</time>
      </trkpt>
      <trkpt lat="44.49853" lon="1.41294">
        <ele>140.75629900928</ele>
        <time>2018-03-12T15:07:29Z</time>
      </trkpt>
      <trkpt lat="44.49849" lon="1.41287">
        <ele>140.18095656819</ele>
        <time>2018-03-12T15:07:33Z</time>
      </trkpt>
      <trkpt lat="44.49846" lon="1.41283">
        <ele>139.57472945977</ele>
        <time>2018-03-12T15:07:37Z</time>
      </trkpt>
      <trkpt lat="44.49844" lon="1.41277">
        <ele>139.08195646676</ele>
        <time>2018-03-12T15:07:41Z</time>
      </trkpt>
      <trkpt lat="44.4984" lon="1.41271">
        <ele>138.86045855786</ele>
        <time>2018-03-12T15:07:45Z</time>
      </trkpt>
      <trkpt lat="44.49837" lon="1.41268">
        <ele>138.30566654147</ele>
        <time>2018-03-12T15:07:49Z</time>
      </trkpt>
      <trkpt lat="44.49833" lon="1.41265">
        <ele>137.4071738878</ele>
        <time>2018-03-12T15:07:54Z</time>
      </trkpt>
      <trkpt lat="44.49829" lon="1.41262">
        <ele>136.73407140364</ele>
        <time>2018-03-12T15:07:59Z</time>
      </trkpt>
      <trkpt lat="44.49825" lon="1.41259">
        <ele>136.13900114771</ele>
        <time>2018-03-12T15:08:03Z</time>
      </trkpt>
      <trkpt lat="44.49821" lon="1.41257">
        <ele>135.50649170094</ele>
        <time>2018-03-12T15:08:07Z</time>
      </trkpt>
      <trkpt lat="44.49814" lon="1.41251">
        <ele>135.09277604003</ele>
        <time>2018-03-12T15:08:12Z</time>
      </trkpt>
      <trkpt lat="44.49806" lon="1.41244">
        <ele>134.93383235987</ele>
        <time>2018-03-12T15:08:16Z</time>
      </trkpt>
      <trkpt lat="44.49803" lon="1.41242">
        <ele>134.76935250222</ele>
        <time>2018-03-12T15:08:21Z</time>
      </trkpt>
      <trkpt lat="44.49797" lon="1.41239">
        <ele>135.3339681864</ele>
        <time>2018-03-12T15:08:26Z</time>
      </trkpt>
      <trkpt lat="44.49794" lon="1.41236">
        <ele>135.70709111467</ele>
        <time>2018-03-12T15:08:30Z</time>
      </trkpt>
      <trkpt lat="44.49789" lon="1.41231">
        <ele>135.99849271518</ele>
        <time>2018-03-12T15:08:35Z</time>
      </trkpt>
      <trkpt lat="44.49785" lon="1.41227">
        <ele>135.79652831002</ele>
        <time>2018-03-12T15:08:39Z</time>
      </trkpt>
      <trkpt lat="44.49781" lon="1.41225">
        <ele>135.37960555672</ele>
        <time>2018-03-12T15:08:43Z</time>
      </trkpt>
      <trkpt lat="44.49772" lon="1.41221">
        <ele>135.1353617985</ele>
        <time>2018-03-12T15:08:48Z</time>
      </trkpt>
      <trkpt lat="44.49766" lon="1.41215">
        <ele>134.45233183529</ele>
        <time>2018-03-12T15:08:53Z</time>
      </trkpt>
      <trkpt lat="44.49762" lon="1.4121">
        <ele>133.98504553851</ele>
        <time>2018-03-12T15:08:57Z</time>
      </trkpt>
      <trkpt lat="44.49758" lon="1.41204">
        <ele>133.56972534857</ele>
        <time>2018-03-12T15:09:01Z</time>
      </trkpt>
      <trkpt lat="44.49753" lon="1.41198">
        <ele>133.3051273752</ele>
        <time>2018-03-12T15:09:05Z</time>
      </trkpt>
      <trkpt lat="44.4975" lon="1.41191">
        <ele>133.0974620055</ele>
        <time>2018-03-12T15:09:10Z</time>
      </trkpt>
      <trkpt lat="44.49747" lon="1.41184">
        <ele>133.06799061055</ele>
        <time>2018-03-12T15:09:14Z</time>
      </trkpt>
      <trkpt lat="44.49743" lon="1.41174">
        <ele>133.35782649477</ele>
        <time>2018-03-12T15:09:18Z</time>
      </trkpt>
      <trkpt lat="44.49742" lon="1.41165">
        <ele>133.80742511646</ele>
        <time>2018-03-12T15:09:23Z</time>
      </trkpt>
      <trkpt lat="44.49741" lon="1.41159">
        <ele>134.54766725817</ele>
        <time>2018-03-12T15:09:27Z</time>
      </trkpt>
      <trkpt lat="44.4974" lon="1.41153">
        <ele>134.44335650626</ele>
        <time>2018-03-12T15:09:31Z</time>
      </trkpt>
      <trkpt lat="44.49737" lon="1.41146">
        <ele>133.50245750962</ele>
        <time>2018-03-12T15:09:36Z</time>
      </trkpt>
      <trkpt lat="44.49734" lon="1.41142">
        <ele>132.86719370331</ele>
        <time>2018-03-12T15:09:40Z</time>
      </trkpt>
      <trkpt lat="44.4973" lon="1.41135">
        <ele>131.81430969312</ele>
        <time>2018-03-12T15:09:45Z</time>
      </trkpt>
      <trkpt lat="44.49727" lon="1.41129">
        <ele>130.77985712042</ele>
        <time>2018-03-12T15:09:50Z</time>
      </trkpt>
      <trkpt lat="44.49725" lon="1.4112">
        <ele>130.31817061709</ele>
        <time>2018-03-12T15:09:55Z</time>
      </trkpt>
      <trkpt lat="44.49725" lon="1.41111">
        <ele>129.80680364848</ele>
        <time>2018-03-12T15:10:00Z</time>
      </trkpt>
      <trkpt lat="44.49723" lon="1.41104">
        <ele>129.5036692782</ele>
        <time>2018-03-12T15:10:04Z</time>
      </trkpt>
      <trkpt lat="44.49719" lon="1.41097">
        <ele>129.22675756805</ele>
        <time>2018-03-12T15:10:09Z</time>
      </trkpt>
      <trkpt lat="44.49717" lon="1.41089">
        <ele>129.08685315392</ele>
        <time>2018-03-12T15:10:14Z</time>
      </trkpt>
      <trkpt lat="44.49715" lon="1.41082">
        <ele>128.88111793721</ele>
        <time>2018-03-12T15:10:19Z</time>
      </trkpt>
      <trkpt lat="44.49714" lon="1.41076">
        <ele>128.55409178124</ele>
        <time>2018-03-12T15:10:23Z</time>
      </trkpt>
      <trkpt lat="44.49712" lon="1.41069">
        <ele>128.32502047007</ele>
        <time>2018-03-12T15:10:27Z</time>
      </trkpt>
      <trkpt lat="44.49709" lon="1.4106">
        <ele>127.67955354254</ele>
        <time>2018-03-12T15:10:32Z</time>
      </trkpt>
      <trkpt lat="44.49708" lon="1.41053">
        <ele>127.24859856018</ele>
        <time>2018-03-12T15:10:36Z</time>
      </trkpt>
      <trkpt lat="44.49706" lon="1.41047">
        <ele>126.72994519829</ele>
        <time>2018-03-12T15:10:41Z</time>
      </trkpt>
      <trkpt lat="44.49703" lon="1.4104">
        <ele>126.27199045584</ele>
        <time>2018-03-12T15:10:46Z</time>
      </trkpt>
      <trkpt lat="44.497" lon="1.41031">
        <ele>126.0011256306</ele>
        <time>2018-03-12T15:10:50Z</time>
      </trkpt>
      <trkpt lat="44.49698" lon="1.41025">
        <ele>125.69000959626</ele>
        <time>2018-03-12T15:10:54Z</time>
      </trkpt>
      <trkpt lat="44.49696" lon="1.41018">
        <ele>125.47470421372</ele>
        <time>2018-03-12T15:10:58Z</time>
      </trkpt>
      <trkpt lat="44.49693" lon="1.4101">
        <ele>125.66459236977</ele>
        <time>2018-03-12T15:11:03Z</time>
      </trkpt>
      <trkpt lat="44.49691" lon="1.41003">
        <ele>125.9470106005</ele>
        <time>2018-03-12T15:11:08Z</time>
      </trkpt>
      <trkpt lat="44.49688" lon="1.40997">
        <ele>125.92088105219</ele>
        <time>2018-03-12T15:11:13Z</time>
      </trkpt>
      <trkpt lat="44.49684" lon="1.4099">
        <ele>125.84064286155</ele>
        <time>2018-03-12T15:11:17Z</time>
      </trkpt>
      <trkpt lat="44.4968" lon="1.40981">
        <ele>125.45045197276</ele>
        <time>2018-03-12T15:11:22Z</time>
      </trkpt>
      <trkpt lat="44.49678" lon="1.40977">
        <ele>125.19629905213</ele>
        <time>2018-03-12T15:11:26Z</time>
      </trkpt>
      <trkpt lat="44.49674" lon="1.40969">
        <ele>124.80376801407</ele>
        <time>2018-03-12T15:11:31Z</time>
      </trkpt>
      <trkpt lat="44.49672" lon="1.40965">
        <ele>124.65805730373</ele>
        <time>2018-03-12T15:11:35Z</time>
      </trkpt>
      <trkpt lat="44.49669" lon="1.40958">
        <ele>124.66560694841</ele>
        <time>2018-03-12T15:11:39Z</time>
      </trkpt>
      <trkpt lat="44.49667" lon="1.40952">
        <ele>124.63672767736</ele>
        <time>2018-03-12T15:11:44Z</time>
      </trkpt>
      <trkpt lat="44.49666" lon="1.40945">
        <ele>124.65595905898</ele>
        <time>2018-03-12T15:11:48Z</time>
      </trkpt>
      <trkpt lat="44.49663" lon="1.40938">
        <ele>124.6004857513</ele>
        <time>2018-03-12T15:11:52Z</time>
      </trkpt>
      <trkpt lat="44.49661" lon="1.40928">
        <ele>124.32020235047</ele>
        <time>2018-03-12T15:11:57Z</time>
      </trkpt>
      <trkpt lat="44.4966" lon="1.40922">
        <ele>124.1479340912</ele>
        <time>2018-03-12T15:12:01Z</time>
      </trkpt>
      <trkpt lat="44.49659" lon="1.40914">
        <ele>123.88819510724</ele>
        <time>2018-03-12T15:12:05Z</time>
      </trkpt>
      <trkpt lat="44.4966" lon="1.40905">
        <ele>123.58760735859</ele>
        <time>2018-03-12T15:12:10Z</time>
      </trkpt>
      <trkpt lat="44.4966" lon="1.40898">
        <ele>122.80553903567</ele>
        <time>2018-03-12T15:12:15Z</time>
      </trkpt>
      <trkpt lat="44.49659" lon="1.40888">
        <ele>122.52388290796</ele>
        <time>2018-03-12T15:12:19Z</time>
      </trkpt>
      <trkpt lat="44.49658" lon="1.4088">
        <ele>122.64321287592</ele>
        <time>2018-03-12T15:12:24Z</time>
      </trkpt>
      <trkpt lat="44.49658" lon="1.40876">
        <ele>122.66310851306</ele>
        <time>2018-03-12T15:12:26Z</time>
      </trkpt>
      <trkpt lat="44.49661" lon="1.40868">
        <ele>122.80222562272</ele>
        <time>2018-03-12T15:12:30Z</time>
      </trkpt>
      <trkpt lat="44.49664" lon="1.40864">
        <ele>122.30168836644</ele>
        <time>2018-03-12T15:12:38Z</time>
      </trkpt>
      <trkpt lat="44.49664" lon="1.40858">
        <ele>121.14025399741</ele>
        <time>2018-03-12T15:12:42Z</time>
      </trkpt>
      <trkpt lat="44.49663" lon="1.40851">
        <ele>120.26755382923</ele>
        <time>2018-03-12T15:12:47Z</time>
      </trkpt>
      <trkpt lat="44.49658" lon="1.40835">
        <ele>119.82922324367</ele>
        <time>2018-03-12T15:12:52Z</time>
      </trkpt>
      <trkpt lat="44.49657" lon="1.40826">
        <ele>119.55954004831</ele>
        <time>2018-03-12T15:12:56Z</time>
      </trkpt>
      <trkpt lat="44.49655" lon="1.40824">
        <ele>119.89535934382</ele>
        <time>2018-03-12T15:13:02Z</time>
      </trkpt>
      <trkpt lat="44.49647" lon="1.40816">
        <ele>120.2947405756</ele>
        <time>2018-03-12T15:13:06Z</time>
      </trkpt>
      <trkpt lat="44.49641" lon="1.40804">
        <ele>120.73380608572</ele>
        <time>2018-03-12T15:13:10Z</time>
      </trkpt>
      <trkpt lat="44.49637" lon="1.40796">
        <ele>121.69216100873</ele>
        <time>2018-03-12T15:13:15Z</time>
      </trkpt>
      <trkpt lat="44.49633" lon="1.4079">
        <ele>122.47737989994</ele>
        <time>2018-03-12T15:13:20Z</time>
      </trkpt>
      <trkpt lat="44.49628" lon="1.40782">
        <ele>123.50727759808</ele>
        <time>2018-03-12T15:13:25Z</time>
      </trkpt>
      <trkpt lat="44.49623" lon="1.40783">
        <ele>123.27766448096</ele>
        <time>2018-03-12T15:13:29Z</time>
      </trkpt>
      <trkpt lat="44.49619" lon="1.40782">
        <ele>124.62833376488</ele>
        <time>2018-03-12T15:13:35Z</time>
      </trkpt>
      <trkpt lat="44.49615" lon="1.4078">
        <ele>125.43689896231</ele>
        <time>2018-03-12T15:13:40Z</time>
      </trkpt>
      <trkpt lat="44.49609" lon="1.40776">
        <ele>125.95827267294</ele>
        <time>2018-03-12T15:13:44Z</time>
      </trkpt>
      <trkpt lat="44.49604" lon="1.40771">
        <ele>126.32764896819</ele>
        <time>2018-03-12T15:13:48Z</time>
      </trkpt>
      <trkpt lat="44.49601" lon="1.40767">
        <ele>126.42131244917</ele>
        <time>2018-03-12T15:13:52Z</time>
      </trkpt>
      <trkpt lat="44.49598" lon="1.40761">
        <ele>126.65213229536</ele>
        <time>2018-03-12T15:13:56Z</time>
      </trkpt>
      <trkpt lat="44.49596" lon="1.40751">
        <ele>126.15397575324</ele>
        <time>2018-03-12T15:14:01Z</time>
      </trkpt>
      <trkpt lat="44.49594" lon="1.40743">
        <ele>126.20039088096</ele>
        <time>2018-03-12T15:14:05Z</time>
      </trkpt>
      <trkpt lat="44.49592" lon="1.40737">
        <ele>126.35829993212</ele>
        <time>2018-03-12T15:14:09Z</time>
      </trkpt>
      <trkpt lat="44.49588" lon="1.40731">
        <ele>126.42591230512</ele>
        <time>2018-03-12T15:14:13Z</time>
      </trkpt>
      <trkpt lat="44.49585" lon="1.40725">
        <ele>127.16969602113</ele>
        <time>2018-03-12T15:14:18Z</time>
      </trkpt>
      <trkpt lat="44.49581" lon="1.40717">
        <ele>127.96791140848</ele>
        <time>2018-03-12T15:14:22Z</time>
      </trkpt>
      <trkpt lat="44.49578" lon="1.4071">
        <ele>128.76162654767</ele>
        <time>2018-03-12T15:14:27Z</time>
      </trkpt>
      <trkpt lat="44.49571" lon="1.407">
        <ele>129.447369796</ele>
        <time>2018-03-12T15:14:31Z</time>
      </trkpt>
      <trkpt lat="44.49567" lon="1.40695">
        <ele>129.91553649017</ele>
        <time>2018-03-12T15:14:36Z</time>
      </trkpt>
      <trkpt lat="44.49562" lon="1.40692">
        <ele>129.87031557824</ele>
        <time>2018-03-12T15:14:40Z</time>
      </trkpt>
      <trkpt lat="44.49558" lon="1.40687">
        <ele>129.51396225448</ele>
        <time>2018-03-12T15:14:45Z</time>
      </trkpt>
      <trkpt lat="44.49554" lon="1.40685">
        <ele>129.08941487222</ele>
        <time>2018-03-12T15:14:49Z</time>
      </trkpt>
      <trkpt lat="44.49549" lon="1.40684">
        <ele>128.78620406472</ele>
        <time>2018-03-12T15:14:54Z</time>
      </trkpt>
      <trkpt lat="44.49546" lon="1.4068">
        <ele>128.66037139536</ele>
        <time>2018-03-12T15:14:58Z</time>
      </trkpt>
      <trkpt lat="44.4954" lon="1.40675">
        <ele>127.99730185169</ele>
        <time>2018-03-12T15:15:03Z</time>
      </trkpt>
      <trkpt lat="44.49536" lon="1.40671">
        <ele>127.39162829608</ele>
        <time>2018-03-12T15:15:07Z</time>
      </trkpt>
      <trkpt lat="44.49529" lon="1.40666">
        <ele>126.52469597617</ele>
        <time>2018-03-12T15:15:12Z</time>
      </trkpt>
      <trkpt lat="44.49525" lon="1.40662">
        <ele>125.96377030723</ele>
        <time>2018-03-12T15:15:16Z</time>
      </trkpt>
      <trkpt lat="44.49518" lon="1.40661">
        <ele>125.52375918502</ele>
        <time>2018-03-12T15:15:21Z</time>
      </trkpt>
      <trkpt lat="44.49514" lon="1.40659">
        <ele>124.78611806414</ele>
        <time>2018-03-12T15:15:25Z</time>
      </trkpt>
      <trkpt lat="44.49507" lon="1.40655">
        <ele>124.42707685963</ele>
        <time>2018-03-12T15:15:29Z</time>
      </trkpt>
      <trkpt lat="44.49501" lon="1.40653">
        <ele>124.96241301156</ele>
        <time>2018-03-12T15:15:33Z</time>
      </trkpt>
      <trkpt lat="44.49493" lon="1.40651">
        <ele>125.83928374386</ele>
        <time>2018-03-12T15:15:38Z</time>
      </trkpt>
      <trkpt lat="44.49488" lon="1.40649">
        <ele>126.24690925346</ele>
        <time>2018-03-12T15:15:43Z</time>
      </trkpt>
      <trkpt lat="44.49483" lon="1.40645">
        <ele>126.4420410044</ele>
        <time>2018-03-12T15:15:47Z</time>
      </trkpt>
      <trkpt lat="44.49478" lon="1.40644">
        <ele>126.16818628861</ele>
        <time>2018-03-12T15:15:51Z</time>
      </trkpt>
      <trkpt lat="44.49472" lon="1.4064">
        <ele>126.09420047061</ele>
        <time>2018-03-12T15:15:56Z</time>
      </trkpt>
      <trkpt lat="44.49468" lon="1.40639">
        <ele>126.01811321067</ele>
        <time>2018-03-12T15:16:00Z</time>
      </trkpt>
      <trkpt lat="44.49461" lon="1.40638">
        <ele>126.40525004992</ele>
        <time>2018-03-12T15:16:05Z</time>
      </trkpt>
      <trkpt lat="44.49457" lon="1.40636">
        <ele>126.60902019834</ele>
        <time>2018-03-12T15:16:09Z</time>
      </trkpt>
      <trkpt lat="44.49451" lon="1.40634">
        <ele>126.84225551355</ele>
        <time>2018-03-12T15:16:13Z</time>
      </trkpt>
      <trkpt lat="44.49446" lon="1.40632">
        <ele>126.6957570473</ele>
        <time>2018-03-12T15:16:17Z</time>
      </trkpt>
      <trkpt lat="44.49442" lon="1.40631">
        <ele>126.74759549104</ele>
        <time>2018-03-12T15:16:21Z</time>
      </trkpt>
      <trkpt lat="44.49438" lon="1.4063">
        <ele>126.73407374652</ele>
        <time>2018-03-12T15:16:25Z</time>
      </trkpt>
      <trkpt lat="44.49433" lon="1.40629">
        <ele>126.7075629687</ele>
        <time>2018-03-12T15:16:29Z</time>
      </trkpt>
      <trkpt lat="44.49428" lon="1.40627">
        <ele>126.66348091909</ele>
        <time>2018-03-12T15:16:33Z</time>
      </trkpt>
      <trkpt lat="44.49422" lon="1.40622">
        <ele>126.73383916363</ele>
        <time>2018-03-12T15:16:38Z</time>
      </trkpt>
      <trkpt lat="44.49417" lon="1.4062">
        <ele>126.78574307495</ele>
        <time>2018-03-12T15:16:42Z</time>
      </trkpt>
      <trkpt lat="44.49412" lon="1.40617">
        <ele>127.1662924986</ele>
        <time>2018-03-12T15:16:47Z</time>
      </trkpt>
      <trkpt lat="44.49408" lon="1.40612">
        <ele>127.59670568688</ele>
        <time>2018-03-12T15:16:51Z</time>
      </trkpt>
      <trkpt lat="44.49404" lon="1.40609">
        <ele>127.66711361869</ele>
        <time>2018-03-12T15:16:55Z</time>
      </trkpt>
      <trkpt lat="44.49399" lon="1.40606">
        <ele>127.56126797582</ele>
        <time>2018-03-12T15:16:59Z</time>
      </trkpt>
      <trkpt lat="44.49393" lon="1.40603">
        <ele>127.31042610346</ele>
        <time>2018-03-12T15:17:04Z</time>
      </trkpt>
      <trkpt lat="44.49386" lon="1.40601">
        <ele>127.09810211908</ele>
        <time>2018-03-12T15:17:08Z</time>
      </trkpt>
      <trkpt lat="44.49379" lon="1.40599">
        <ele>127.10028854913</ele>
        <time>2018-03-12T15:17:12Z</time>
      </trkpt>
      <trkpt lat="44.49373" lon="1.40597">
        <ele>127.01420592856</ele>
        <time>2018-03-12T15:17:17Z</time>
      </trkpt>
      <trkpt lat="44.49368" lon="1.40595">
        <ele>127.05360615392</ele>
        <time>2018-03-12T15:17:21Z</time>
      </trkpt>
      <trkpt lat="44.49362" lon="1.4059">
        <ele>127.01497669455</ele>
        <time>2018-03-12T15:17:26Z</time>
      </trkpt>
      <trkpt lat="44.49356" lon="1.40586">
        <ele>127.43306859971</ele>
        <time>2018-03-12T15:17:31Z</time>
      </trkpt>
      <trkpt lat="44.49348" lon="1.40582">
        <ele>127.89221546838</ele>
        <time>2018-03-12T15:17:35Z</time>
      </trkpt>
      <trkpt lat="44.49343" lon="1.40581">
        <ele>128.57069752682</ele>
        <time>2018-03-12T15:17:39Z</time>
      </trkpt>
      <trkpt lat="44.49337" lon="1.4058">
        <ele>129.26906710382</ele>
        <time>2018-03-12T15:17:44Z</time>
      </trkpt>
      <trkpt lat="44.49333" lon="1.40579">
        <ele>130.1406894539</ele>
        <time>2018-03-12T15:17:48Z</time>
      </trkpt>
      <trkpt lat="44.49327" lon="1.40576">
        <ele>131.63451822481</ele>
        <time>2018-03-12T15:17:53Z</time>
      </trkpt>
      <trkpt lat="44.4932" lon="1.40573">
        <ele>132.26388026461</ele>
        <time>2018-03-12T15:17:57Z</time>
      </trkpt>
      <trkpt lat="44.49317" lon="1.40571">
        <ele>132.45065873145</ele>
        <time>2018-03-12T15:18:01Z</time>
      </trkpt>
      <trkpt lat="44.49311" lon="1.40569">
        <ele>132.93140807857</ele>
        <time>2018-03-12T15:18:05Z</time>
      </trkpt>
      <trkpt lat="44.49306" lon="1.40568">
        <ele>132.68011879782</ele>
        <time>2018-03-12T15:18:10Z</time>
      </trkpt>
      <trkpt lat="44.49301" lon="1.40566">
        <ele>132.18993679136</ele>
        <time>2018-03-12T15:18:15Z</time>
      </trkpt>
      <trkpt lat="44.49297" lon="1.40563">
        <ele>131.69230996244</ele>
        <time>2018-03-12T15:18:19Z</time>
      </trkpt>
      <trkpt lat="44.49293" lon="1.40561">
        <ele>131.19271488164</ele>
        <time>2018-03-12T15:18:24Z</time>
      </trkpt>
      <trkpt lat="44.49288" lon="1.40559">
        <ele>130.58560870821</ele>
        <time>2018-03-12T15:18:29Z</time>
      </trkpt>
      <trkpt lat="44.49284" lon="1.40556">
        <ele>129.59592804315</ele>
        <time>2018-03-12T15:18:34Z</time>
      </trkpt>
      <trkpt lat="44.49287" lon="1.40552">
        <ele>128.29350164545</ele>
        <time>2018-03-12T15:18:42Z</time>
      </trkpt>
      <trkpt lat="44.49292" lon="1.40552">
        <ele>127.59170625159</ele>
        <time>2018-03-12T15:18:47Z</time>
      </trkpt>
      <trkpt lat="44.49296" lon="1.40551">
        <ele>126.89820778271</ele>
        <time>2018-03-12T15:18:52Z</time>
      </trkpt>
      <trkpt lat="44.49301" lon="1.4055">
        <ele>126.77165927976</ele>
        <time>2018-03-12T15:18:58Z</time>
      </trkpt>
      <trkpt lat="44.49304" lon="1.40551">
        <ele>127.03895882668</ele>
        <time>2018-03-12T15:19:03Z</time>
      </trkpt>
      <trkpt lat="44.49308" lon="1.40549">
        <ele>127.07323498601</ele>
        <time>2018-03-12T15:19:08Z</time>
      </trkpt>
      <trkpt lat="44.49313" lon="1.40549">
        <ele>126.8182594252</ele>
        <time>2018-03-12T15:19:13Z</time>
      </trkpt>
      <trkpt lat="44.49318" lon="1.4055">
        <ele>126.55955862946</ele>
        <time>2018-03-12T15:19:17Z</time>
      </trkpt>
      <trkpt lat="44.49323" lon="1.40549">
        <ele>126.26295190699</ele>
        <time>2018-03-12T15:19:22Z</time>
      </trkpt>
      <trkpt lat="44.49327" lon="1.40548">
        <ele>125.92778009698</ele>
        <time>2018-03-12T15:19:26Z</time>
      </trkpt>
      <trkpt lat="44.49333" lon="1.40546">
        <ele>125.80470094257</ele>
        <time>2018-03-12T15:19:30Z</time>
      </trkpt>
      <trkpt lat="44.49337" lon="1.40545">
        <ele>125.8287314394</ele>
        <time>2018-03-12T15:19:37Z</time>
      </trkpt>
      <trkpt lat="44.49341" lon="1.40545">
        <ele>125.5986218496</ele>
        <time>2018-03-12T15:19:41Z</time>
      </trkpt>
      <trkpt lat="44.49345" lon="1.40546">
        <ele>125.81639707154</ele>
        <time>2018-03-12T15:19:47Z</time>
      </trkpt>
      <trkpt lat="44.49349" lon="1.40547">
        <ele>126.16951048376</ele>
        <time>2018-03-12T15:19:52Z</time>
      </trkpt>
      <trkpt lat="44.49353" lon="1.40548">
        <ele>126.50238443053</ele>
        <time>2018-03-12T15:19:57Z</time>
      </trkpt>
      <trkpt lat="44.49357" lon="1.40549">
        <ele>127.17545023761</ele>
        <time>2018-03-12T15:20:05Z</time>
      </trkpt>
      <trkpt lat="44.4936" lon="1.40551">
        <ele>127.63083439882</ele>
        <time>2018-03-12T15:20:12Z</time>
      </trkpt>
      <trkpt lat="44.49365" lon="1.40553">
        <ele>127.93642429764</ele>
        <time>2018-03-12T15:20:17Z</time>
      </trkpt>
      <trkpt lat="44.4937" lon="1.40556">
        <ele>128.3640233668</ele>
        <time>2018-03-12T15:20:22Z</time>
      </trkpt>
      <trkpt lat="44.49375" lon="1.40556">
        <ele>128.61068907933</ele>
        <time>2018-03-12T15:20:26Z</time>
      </trkpt>
      <trkpt lat="44.49379" lon="1.40555">
        <ele>128.8850915026</ele>
        <time>2018-03-12T15:20:31Z</time>
      </trkpt>
      <trkpt lat="44.49383" lon="1.40554">
        <ele>129.10650512008</ele>
        <time>2018-03-12T15:20:37Z</time>
      </trkpt>
      <trkpt lat="44.49387" lon="1.40552">
        <ele>129.59541972914</ele>
        <time>2018-03-12T15:20:41Z</time>
      </trkpt>
      <trkpt lat="44.49392" lon="1.4055">
        <ele>130.03033412475</ele>
        <time>2018-03-12T15:20:45Z</time>
      </trkpt>
      <trkpt lat="44.49396" lon="1.40548">
        <ele>131.03353438233</ele>
        <time>2018-03-12T15:20:49Z</time>
      </trkpt>
      <trkpt lat="44.49398" lon="1.40543">
        <ele>131.69574268145</ele>
        <time>2018-03-12T15:20:53Z</time>
      </trkpt>
      <trkpt lat="44.494" lon="1.40536">
        <ele>132.37285914842</ele>
        <time>2018-03-12T15:20:58Z</time>
      </trkpt>
      <trkpt lat="44.49403" lon="1.40531">
        <ele>132.63967477396</ele>
        <time>2018-03-12T15:21:04Z</time>
      </trkpt>
      <trkpt lat="44.49406" lon="1.40526">
        <ele>133.16440546954</ele>
        <time>2018-03-12T15:21:10Z</time>
      </trkpt>
      <trkpt lat="44.49409" lon="1.40522">
        <ele>133.64821356455</ele>
        <time>2018-03-12T15:21:15Z</time>
      </trkpt>
      <trkpt lat="44.4941" lon="1.40517">
        <ele>134.04199463711</ele>
        <time>2018-03-12T15:21:20Z</time>
      </trkpt>
      <trkpt lat="44.49412" lon="1.4051">
        <ele>134.4511203854</ele>
        <time>2018-03-12T15:21:25Z</time>
      </trkpt>
      <trkpt lat="44.49414" lon="1.40504">
        <ele>135.06881441484</ele>
        <time>2018-03-12T15:21:29Z</time>
      </trkpt>
      <trkpt lat="44.49417" lon="1.40499">
        <ele>136.08936559018</ele>
        <time>2018-03-12T15:21:35Z</time>
      </trkpt>
      <trkpt lat="44.4942" lon="1.40494">
        <ele>137.18063214997</ele>
        <time>2018-03-12T15:21:41Z</time>
      </trkpt>
      <trkpt lat="44.49422" lon="1.40489">
        <ele>138.27797286755</ele>
        <time>2018-03-12T15:21:47Z</time>
      </trkpt>
      <trkpt lat="44.49424" lon="1.40484">
        <ele>139.85206496763</ele>
        <time>2018-03-12T15:21:57Z</time>
      </trkpt>
      <trkpt lat="44.49425" lon="1.40478">
        <ele>140.38838572391</ele>
        <time>2018-03-12T15:22:01Z</time>
      </trkpt>
      <trkpt lat="44.49426" lon="1.40473">
        <ele>140.76562042354</ele>
        <time>2018-03-12T15:22:05Z</time>
      </trkpt>
      <trkpt lat="44.49429" lon="1.40468">
        <ele>140.62820978406</ele>
        <time>2018-03-12T15:22:09Z</time>
      </trkpt>
      <trkpt lat="44.49432" lon="1.40461">
        <ele>140.63413735569</ele>
        <time>2018-03-12T15:22:13Z</time>
      </trkpt>
      <trkpt lat="44.49435" lon="1.40456">
        <ele>140.70172814435</ele>
        <time>2018-03-12T15:22:18Z</time>
      </trkpt>
      <trkpt lat="44.49437" lon="1.40453">
        <ele>141.04981270916</ele>
        <time>2018-03-12T15:22:23Z</time>
      </trkpt>
      <trkpt lat="44.49442" lon="1.40449">
        <ele>141.05156625953</ele>
        <time>2018-03-12T15:22:28Z</time>
      </trkpt>
      <trkpt lat="44.49444" lon="1.40444">
        <ele>141.29135384156</ele>
        <time>2018-03-12T15:22:37Z</time>
      </trkpt>
      <trkpt lat="44.49447" lon="1.4044">
        <ele>141.43396256375</ele>
        <time>2018-03-12T15:22:42Z</time>
      </trkpt>
      <trkpt lat="44.49447" lon="1.40435">
        <ele>141.85112387697</ele>
        <time>2018-03-12T15:22:46Z</time>
      </trkpt>
      <trkpt lat="44.49449" lon="1.40428">
        <ele>142.57810345614</ele>
        <time>2018-03-12T15:22:51Z</time>
      </trkpt>
      <trkpt lat="44.49451" lon="1.40423">
        <ele>143.50944507872</ele>
        <time>2018-03-12T15:22:56Z</time>
      </trkpt>
      <trkpt lat="44.49454" lon="1.4042">
        <ele>144.25559822382</ele>
        <time>2018-03-12T15:23:01Z</time>
      </trkpt>
      <trkpt lat="44.49457" lon="1.40416">
        <ele>144.70865252318</ele>
        <time>2018-03-12T15:23:08Z</time>
      </trkpt>
      <trkpt lat="44.4946" lon="1.40411">
        <ele>145.45805161467</ele>
        <time>2018-03-12T15:23:14Z</time>
      </trkpt>
      <trkpt lat="44.49463" lon="1.40406">
        <ele>146.17137189906</ele>
        <time>2018-03-12T15:23:18Z</time>
      </trkpt>
      <trkpt lat="44.49465" lon="1.40402">
        <ele>146.97762808238</ele>
        <time>2018-03-12T15:23:22Z</time>
      </trkpt>
      <trkpt lat="44.49467" lon="1.40396">
        <ele>148.06244956674</ele>
        <time>2018-03-12T15:23:27Z</time>
      </trkpt>
      <trkpt lat="44.4947" lon="1.40392">
        <ele>149.252730736</ele>
        <time>2018-03-12T15:23:32Z</time>
      </trkpt>
      <trkpt lat="44.49473" lon="1.40388">
        <ele>150.71674682254</ele>
        <time>2018-03-12T15:23:39Z</time>
      </trkpt>
      <trkpt lat="44.49477" lon="1.40383">
        <ele>151.64285600519</ele>
        <time>2018-03-12T15:23:44Z</time>
      </trkpt>
      <trkpt lat="44.49481" lon="1.4038">
        <ele>152.64279760049</ele>
        <time>2018-03-12T15:23:49Z</time>
      </trkpt>
      <trkpt lat="44.49486" lon="1.40379">
        <ele>153.70081972868</ele>
        <time>2018-03-12T15:23:55Z</time>
      </trkpt>
      <trkpt lat="44.49489" lon="1.40377">
        <ele>154.71117456342</ele>
        <time>2018-03-12T15:24:00Z</time>
      </trkpt>
      <trkpt lat="44.49493" lon="1.40374">
        <ele>155.49044328156</ele>
        <time>2018-03-12T15:24:04Z</time>
      </trkpt>
      <trkpt lat="44.49496" lon="1.40371">
        <ele>155.98235574704</ele>
        <time>2018-03-12T15:24:09Z</time>
      </trkpt>
      <trkpt lat="44.495" lon="1.40368">
        <ele>156.88492273889</ele>
        <time>2018-03-12T15:24:16Z</time>
      </trkpt>
      <trkpt lat="44.49504" lon="1.40368">
        <ele>158.00497688121</ele>
        <time>2018-03-12T15:24:21Z</time>
      </trkpt>
      <trkpt lat="44.49508" lon="1.4037">
        <ele>158.42285511751</ele>
        <time>2018-03-12T15:24:26Z</time>
      </trkpt>
      <trkpt lat="44.49512" lon="1.40372">
        <ele>158.69604057525</ele>
        <time>2018-03-12T15:24:31Z</time>
      </trkpt>
      <trkpt lat="44.49515" lon="1.40377">
        <ele>159.39948032848</ele>
        <time>2018-03-12T15:24:37Z</time>
      </trkpt>
      <trkpt lat="44.49515" lon="1.40382">
        <ele>160.07106042383</ele>
        <time>2018-03-12T15:24:41Z</time>
      </trkpt>
      <trkpt lat="44.49513" lon="1.40392">
        <ele>161.27011425281</ele>
        <time>2018-03-12T15:24:46Z</time>
      </trkpt>
      <trkpt lat="44.49513" lon="1.40398">
        <ele>162.03617475018</ele>
        <time>2018-03-12T15:24:50Z</time>
      </trkpt>
      <trkpt lat="44.49511" lon="1.40403">
        <ele>162.7216582797</ele>
        <time>2018-03-12T15:24:54Z</time>
      </trkpt>
      <trkpt lat="44.49511" lon="1.40412">
        <ele>163.04428546869</ele>
        <time>2018-03-12T15:24:59Z</time>
      </trkpt>
      <trkpt lat="44.4951" lon="1.40418">
        <ele>163.26118640449</ele>
        <time>2018-03-12T15:25:06Z</time>
      </trkpt>
      <trkpt lat="44.4951" lon="1.40423">
        <ele>163.53580728479</ele>
        <time>2018-03-12T15:25:11Z</time>
      </trkpt>
      <trkpt lat="44.49511" lon="1.40431">
        <ele>163.84911291031</ele>
        <time>2018-03-12T15:25:16Z</time>
      </trkpt>
      <trkpt lat="44.49511" lon="1.40438">
        <ele>164.15636809492</ele>
        <time>2018-03-12T15:25:20Z</time>
      </trkpt>
      <trkpt lat="44.49512" lon="1.40444">
        <ele>164.07967285741</ele>
        <time>2018-03-12T15:25:25Z</time>
      </trkpt>
      <trkpt lat="44.4951" lon="1.40449">
        <ele>164.07347541425</ele>
        <time>2018-03-12T15:25:30Z</time>
      </trkpt>
      <trkpt lat="44.4951" lon="1.40455">
        <ele>164.06185099179</ele>
        <time>2018-03-12T15:25:34Z</time>
      </trkpt>
      <trkpt lat="44.49509" lon="1.40461">
        <ele>164.2556843653</ele>
        <time>2018-03-12T15:25:39Z</time>
      </trkpt>
      <trkpt lat="44.49509" lon="1.40469">
        <ele>164.45207782048</ele>
        <time>2018-03-12T15:25:43Z</time>
      </trkpt>
      <trkpt lat="44.49507" lon="1.40475">
        <ele>164.66342823065</ele>
        <time>2018-03-12T15:25:48Z</time>
      </trkpt>
      <trkpt lat="44.49506" lon="1.4048">
        <ele>165.24574249621</ele>
        <time>2018-03-12T15:25:53Z</time>
      </trkpt>
      <trkpt lat="44.49505" lon="1.40486">
        <ele>165.34662306079</ele>
        <time>2018-03-12T15:25:58Z</time>
      </trkpt>
      <trkpt lat="44.49505" lon="1.40492">
        <ele>165.34649535918</ele>
        <time>2018-03-12T15:26:03Z</time>
      </trkpt>
      <trkpt lat="44.49505" lon="1.40497">
        <ele>165.60746423101</ele>
        <time>2018-03-12T15:26:08Z</time>
      </trkpt>
      <trkpt lat="44.49507" lon="1.40502">
        <ele>166.07732880458</ele>
        <time>2018-03-12T15:26:12Z</time>
      </trkpt>
      <trkpt lat="44.49508" lon="1.40509">
        <ele>166.53112668832</ele>
        <time>2018-03-12T15:26:17Z</time>
      </trkpt>
      <trkpt lat="44.49509" lon="1.40518">
        <ele>166.9758021078</ele>
        <time>2018-03-12T15:26:22Z</time>
      </trkpt>
      <trkpt lat="44.49509" lon="1.40524">
        <ele>168.58806424915</ele>
        <time>2018-03-12T15:26:31Z</time>
      </trkpt>
      <trkpt lat="44.49513" lon="1.40526">
        <ele>170.74663964786</ele>
        <time>2018-03-12T15:26:37Z</time>
      </trkpt>
      <trkpt lat="44.49517" lon="1.40527">
        <ele>171.61912444155</ele>
        <time>2018-03-12T15:26:44Z</time>
      </trkpt>
      <trkpt lat="44.4952" lon="1.40522">
        <ele>171.87871603775</ele>
        <time>2018-03-12T15:26:50Z</time>
      </trkpt>
      <trkpt lat="44.49518" lon="1.40517">
        <ele>172.09155273618</ele>
        <time>2018-03-12T15:26:54Z</time>
      </trkpt>
      <trkpt lat="44.49517" lon="1.4051">
        <ele>171.92311836684</ele>
        <time>2018-03-12T15:26:58Z</time>
      </trkpt>
      <trkpt lat="44.49517" lon="1.40504">
        <ele>171.38811784039</ele>
        <time>2018-03-12T15:27:02Z</time>
      </trkpt>
      <trkpt lat="44.49519" lon="1.40498">
        <ele>171.13402682128</ele>
        <time>2018-03-12T15:27:06Z</time>
      </trkpt>
      <trkpt lat="44.49521" lon="1.40493">
        <ele>170.51734866901</ele>
        <time>2018-03-12T15:27:11Z</time>
      </trkpt>
      <trkpt lat="44.49521" lon="1.40485">
        <ele>170.0096721503</ele>
        <time>2018-03-12T15:27:16Z</time>
      </trkpt>
      <trkpt lat="44.49523" lon="1.4048">
        <ele>169.6475060716</ele>
        <time>2018-03-12T15:27:21Z</time>
      </trkpt>
      <trkpt lat="44.49525" lon="1.40475">
        <ele>169.58583381163</ele>
        <time>2018-03-12T15:27:25Z</time>
      </trkpt>
      <trkpt lat="44.49527" lon="1.40469">
        <ele>169.52446096771</ele>
        <time>2018-03-12T15:27:30Z</time>
      </trkpt>
      <trkpt lat="44.49528" lon="1.40463">
        <ele>170.13441171821</ele>
        <time>2018-03-12T15:27:35Z</time>
      </trkpt>
      <trkpt lat="44.49529" lon="1.40457">
        <ele>171.20547805335</ele>
        <time>2018-03-12T15:27:41Z</time>
      </trkpt>
      <trkpt lat="44.49532" lon="1.40452">
        <ele>173.29374935367</ele>
        <time>2018-03-12T15:27:46Z</time>
      </trkpt>
      <trkpt lat="44.49533" lon="1.40446">
        <ele>174.40493807951</ele>
        <time>2018-03-12T15:27:51Z</time>
      </trkpt>
      <trkpt lat="44.49535" lon="1.4044">
        <ele>175.40116453067</ele>
        <time>2018-03-12T15:27:56Z</time>
      </trkpt>
      <trkpt lat="44.49538" lon="1.40434">
        <ele>175.96419570195</ele>
        <time>2018-03-12T15:28:01Z</time>
      </trkpt>
      <trkpt lat="44.49539" lon="1.40428">
        <ele>176.57283816631</ele>
        <time>2018-03-12T15:28:05Z</time>
      </trkpt>
      <trkpt lat="44.49541" lon="1.40423">
        <ele>177.51753496543</ele>
        <time>2018-03-12T15:28:09Z</time>
      </trkpt>
      <trkpt lat="44.49544" lon="1.40417">
        <ele>178.62362683007</ele>
        <time>2018-03-12T15:28:14Z</time>
      </trkpt>
      <trkpt lat="44.49544" lon="1.40411">
        <ele>179.07101624078</ele>
        <time>2018-03-12T15:28:29Z</time>
      </trkpt>
      <trkpt lat="44.49547" lon="1.40408">
        <ele>178.88187594306</ele>
        <time>2018-03-12T15:28:33Z</time>
      </trkpt>
      <trkpt lat="44.4955" lon="1.40404">
        <ele>179.592907221</ele>
        <time>2018-03-12T15:28:38Z</time>
      </trkpt>
      <trkpt lat="44.49556" lon="1.40399">
        <ele>179.64270032264</ele>
        <time>2018-03-12T15:28:42Z</time>
      </trkpt>
      <trkpt lat="44.4956" lon="1.40395">
        <ele>179.93751018571</ele>
        <time>2018-03-12T15:28:46Z</time>
      </trkpt>
      <trkpt lat="44.49564" lon="1.4039">
        <ele>180.4507955635</ele>
        <time>2018-03-12T15:28:51Z</time>
      </trkpt>
      <trkpt lat="44.49569" lon="1.40386">
        <ele>180.82253594079</ele>
        <time>2018-03-12T15:28:56Z</time>
      </trkpt>
      <trkpt lat="44.49573" lon="1.40382">
        <ele>181.41532370779</ele>
        <time>2018-03-12T15:29:01Z</time>
      </trkpt>
      <trkpt lat="44.49577" lon="1.40381">
        <ele>182.17385717159</ele>
        <time>2018-03-12T15:29:05Z</time>
      </trkpt>
      <trkpt lat="44.49581" lon="1.40379">
        <ele>182.58958895969</ele>
        <time>2018-03-12T15:29:09Z</time>
      </trkpt>
      <trkpt lat="44.49587" lon="1.40374">
        <ele>182.98251258905</ele>
        <time>2018-03-12T15:29:14Z</time>
      </trkpt>
      <trkpt lat="44.49591" lon="1.40367">
        <ele>183.32938720197</ele>
        <time>2018-03-12T15:29:19Z</time>
      </trkpt>
      <trkpt lat="44.49595" lon="1.40364">
        <ele>183.4736570799</ele>
        <time>2018-03-12T15:29:23Z</time>
      </trkpt>
      <trkpt lat="44.49597" lon="1.4036">
        <ele>183.86552760752</ele>
        <time>2018-03-12T15:29:29Z</time>
      </trkpt>
      <trkpt lat="44.49597" lon="1.40354">
        <ele>183.91838317699</ele>
        <time>2018-03-12T15:29:35Z</time>
      </trkpt>
      <trkpt lat="44.49594" lon="1.40349">
        <ele>184.46933223505</ele>
        <time>2018-03-12T15:29:39Z</time>
      </trkpt>
      <trkpt lat="44.49591" lon="1.40344">
        <ele>184.80187270079</ele>
        <time>2018-03-12T15:29:43Z</time>
      </trkpt>
      <trkpt lat="44.49588" lon="1.4034">
        <ele>185.26519531402</ele>
        <time>2018-03-12T15:29:47Z</time>
      </trkpt>
      <trkpt lat="44.49584" lon="1.40335">
        <ele>185.66122142234</ele>
        <time>2018-03-12T15:29:51Z</time>
      </trkpt>
      <trkpt lat="44.49581" lon="1.4033">
        <ele>186.14003061436</ele>
        <time>2018-03-12T15:29:55Z</time>
      </trkpt>
      <trkpt lat="44.49578" lon="1.40326">
        <ele>187.16774481985</ele>
        <time>2018-03-12T15:30:01Z</time>
      </trkpt>
      <trkpt lat="44.49577" lon="1.40321">
        <ele>187.61331085277</ele>
        <time>2018-03-12T15:30:06Z</time>
      </trkpt>
      <trkpt lat="44.49575" lon="1.40314">
        <ele>187.9244556904</ele>
        <time>2018-03-12T15:30:11Z</time>
      </trkpt>
      <trkpt lat="44.49574" lon="1.40308">
        <ele>188.26098549724</ele>
        <time>2018-03-12T15:30:15Z</time>
      </trkpt>
      <trkpt lat="44.49573" lon="1.40302">
        <ele>188.35830473857</ele>
        <time>2018-03-12T15:30:20Z</time>
      </trkpt>
      <trkpt lat="44.49572" lon="1.40296">
        <ele>188.60369435391</ele>
        <time>2018-03-12T15:30:24Z</time>
      </trkpt>
      <trkpt lat="44.4957" lon="1.40288">
        <ele>188.93110718432</ele>
        <time>2018-03-12T15:30:29Z</time>
      </trkpt>
      <trkpt lat="44.4957" lon="1.40283">
        <ele>189.18838886878</ele>
        <time>2018-03-12T15:30:33Z</time>
      </trkpt>
      <trkpt lat="44.49568" lon="1.40277">
        <ele>189.65674184873</ele>
        <time>2018-03-12T15:30:38Z</time>
      </trkpt>
      <trkpt lat="44.49565" lon="1.40272">
        <ele>190.14664880564</ele>
        <time>2018-03-12T15:30:43Z</time>
      </trkpt>
      <trkpt lat="44.49562" lon="1.40267">
        <ele>190.77202698249</ele>
        <time>2018-03-12T15:30:47Z</time>
      </trkpt>
      <trkpt lat="44.49559" lon="1.40263">
        <ele>192.31772804272</ele>
        <time>2018-03-12T15:30:53Z</time>
      </trkpt>
      <trkpt lat="44.49557" lon="1.40257">
        <ele>193.10031518467</ele>
        <time>2018-03-12T15:30:58Z</time>
      </trkpt>
      <trkpt lat="44.49556" lon="1.40252">
        <ele>193.83359918894</ele>
        <time>2018-03-12T15:31:03Z</time>
      </trkpt>
      <trkpt lat="44.49557" lon="1.40246">
        <ele>194.6162011137</ele>
        <time>2018-03-12T15:31:08Z</time>
      </trkpt>
      <trkpt lat="44.49559" lon="1.40242">
        <ele>195.69632584305</ele>
        <time>2018-03-12T15:31:16Z</time>
      </trkpt>
      <trkpt lat="44.49564" lon="1.4024">
        <ele>196.5414902844</ele>
        <time>2018-03-12T15:31:21Z</time>
      </trkpt>
      <trkpt lat="44.49566" lon="1.40242">
        <ele>197.17667000646</ele>
        <time>2018-03-12T15:31:26Z</time>
      </trkpt>
      <trkpt lat="44.49572" lon="1.4025">
        <ele>197.32514611723</ele>
        <time>2018-03-12T15:31:31Z</time>
      </trkpt>
      <trkpt lat="44.49574" lon="1.40254">
        <ele>197.08625349719</ele>
        <time>2018-03-12T15:31:35Z</time>
      </trkpt>
      <trkpt lat="44.49576" lon="1.40258">
        <ele>196.82766890219</ele>
        <time>2018-03-12T15:31:41Z</time>
      </trkpt>
      <trkpt lat="44.49578" lon="1.40265">
        <ele>196.79746326391</ele>
        <time>2018-03-12T15:31:45Z</time>
      </trkpt>
      <trkpt lat="44.49581" lon="1.40273">
        <ele>196.87097365856</ele>
        <time>2018-03-12T15:31:49Z</time>
      </trkpt>
      <trkpt lat="44.49583" lon="1.40278">
        <ele>196.82384972204</ele>
        <time>2018-03-12T15:31:53Z</time>
      </trkpt>
      <trkpt lat="44.49584" lon="1.40283">
        <ele>196.87545370939</ele>
        <time>2018-03-12T15:31:57Z</time>
      </trkpt>
      <trkpt lat="44.49587" lon="1.40288">
        <ele>196.71759653992</ele>
        <time>2018-03-12T15:32:01Z</time>
      </trkpt>
      <trkpt lat="44.49589" lon="1.40292">
        <ele>196.96803082012</ele>
        <time>2018-03-12T15:32:06Z</time>
      </trkpt>
      <trkpt lat="44.49592" lon="1.40295">
        <ele>197.28513730636</ele>
        <time>2018-03-12T15:32:10Z</time>
      </trkpt>
      <trkpt lat="44.49596" lon="1.40302">
        <ele>197.90976249491</ele>
        <time>2018-03-12T15:32:15Z</time>
      </trkpt>
      <trkpt lat="44.496" lon="1.40305">
        <ele>198.47077284765</ele>
        <time>2018-03-12T15:32:21Z</time>
      </trkpt>
      <trkpt lat="44.49604" lon="1.40308">
        <ele>198.66854708537</ele>
        <time>2018-03-12T15:32:25Z</time>
      </trkpt>
      <trkpt lat="44.49609" lon="1.4031">
        <ele>198.96723317507</ele>
        <time>2018-03-12T15:32:30Z</time>
      </trkpt>
      <trkpt lat="44.49612" lon="1.40314">
        <ele>199.71877028339</ele>
        <time>2018-03-12T15:32:35Z</time>
      </trkpt>
      <trkpt lat="44.49615" lon="1.40317">
        <ele>200.37340343332</ele>
        <time>2018-03-12T15:32:39Z</time>
      </trkpt>
      <trkpt lat="44.49619" lon="1.4032">
        <ele>200.69903373498</ele>
        <time>2018-03-12T15:32:44Z</time>
      </trkpt>
      <trkpt lat="44.49621" lon="1.40324">
        <ele>201.24590317278</ele>
        <time>2018-03-12T15:32:48Z</time>
      </trkpt>
      <trkpt lat="44.49626" lon="1.4033">
        <ele>201.68205275653</ele>
        <time>2018-03-12T15:32:52Z</time>
      </trkpt>
      <trkpt lat="44.49629" lon="1.40334">
        <ele>202.18399424691</ele>
        <time>2018-03-12T15:32:56Z</time>
      </trkpt>
      <trkpt lat="44.49632" lon="1.40339">
        <ele>202.67669520255</ele>
        <time>2018-03-12T15:33:01Z</time>
      </trkpt>
      <trkpt lat="44.49636" lon="1.40344">
        <ele>203.14048855547</ele>
        <time>2018-03-12T15:33:06Z</time>
      </trkpt>
      <trkpt lat="44.49639" lon="1.4035">
        <ele>203.35467538022</ele>
        <time>2018-03-12T15:33:11Z</time>
      </trkpt>
      <trkpt lat="44.4964" lon="1.40354">
        <ele>203.5910450234</ele>
        <time>2018-03-12T15:33:15Z</time>
      </trkpt>
      <trkpt lat="44.49641" lon="1.40363">
        <ele>203.46974045172</ele>
        <time>2018-03-12T15:33:19Z</time>
      </trkpt>
      <trkpt lat="44.49643" lon="1.40369">
        <ele>203.67903087413</ele>
        <time>2018-03-12T15:33:24Z</time>
      </trkpt>
      <trkpt lat="44.49646" lon="1.40372">
        <ele>204.36864578461</ele>
        <time>2018-03-12T15:33:30Z</time>
      </trkpt>
      <trkpt lat="44.49649" lon="1.40368">
        <ele>205.09485926051</ele>
        <time>2018-03-12T15:33:36Z</time>
      </trkpt>
      <trkpt lat="44.4965" lon="1.40362">
        <ele>206.16522721712</ele>
        <time>2018-03-12T15:33:43Z</time>
      </trkpt>
      <trkpt lat="44.49649" lon="1.40355">
        <ele>206.42007326895</ele>
        <time>2018-03-12T15:33:47Z</time>
      </trkpt>
      <trkpt lat="44.49648" lon="1.40349">
        <ele>206.67113712502</ele>
        <time>2018-03-12T15:33:52Z</time>
      </trkpt>
      <trkpt lat="44.49645" lon="1.40344">
        <ele>207.24725684739</ele>
        <time>2018-03-12T15:33:56Z</time>
      </trkpt>
      <trkpt lat="44.49644" lon="1.40339">
        <ele>207.84580541848</ele>
        <time>2018-03-12T15:34:01Z</time>
      </trkpt>
      <trkpt lat="44.49641" lon="1.40332">
        <ele>208.88476341974</ele>
        <time>2018-03-12T15:34:05Z</time>
      </trkpt>
      <trkpt lat="44.49637" lon="1.40325">
        <ele>210.32107198412</ele>
        <time>2018-03-12T15:34:10Z</time>
      </trkpt>
      <trkpt lat="44.49634" lon="1.40318">
        <ele>211.24036458169</ele>
        <time>2018-03-12T15:34:15Z</time>
      </trkpt>
      <trkpt lat="44.4963" lon="1.40315">
        <ele>211.99320413337</ele>
        <time>2018-03-12T15:34:19Z</time>
      </trkpt>
      <trkpt lat="44.49628" lon="1.4031">
        <ele>212.82274979578</ele>
        <time>2018-03-12T15:34:24Z</time>
      </trkpt>
      <trkpt lat="44.49625" lon="1.40305">
        <ele>213.34897614115</ele>
        <time>2018-03-12T15:34:29Z</time>
      </trkpt>
      <trkpt lat="44.49622" lon="1.40301">
        <ele>214.48109561419</ele>
        <time>2018-03-12T15:34:34Z</time>
      </trkpt>
      <trkpt lat="44.49619" lon="1.40295">
        <ele>215.26867252574</ele>
        <time>2018-03-12T15:34:39Z</time>
      </trkpt>
      <trkpt lat="44.49618" lon="1.40289">
        <ele>215.58879507406</ele>
        <time>2018-03-12T15:34:43Z</time>
      </trkpt>
      <trkpt lat="44.49616" lon="1.40283">
        <ele>215.93091806246</ele>
        <time>2018-03-12T15:34:47Z</time>
      </trkpt>
      <trkpt lat="44.49615" lon="1.40278">
        <ele>215.87460156307</ele>
        <time>2018-03-12T15:34:51Z</time>
      </trkpt>
      <trkpt lat="44.49614" lon="1.40271">
        <ele>215.94540219698</ele>
        <time>2018-03-12T15:34:56Z</time>
      </trkpt>
      <trkpt lat="44.49614" lon="1.40264">
        <ele>216.28871958298</ele>
        <time>2018-03-12T15:35:02Z</time>
      </trkpt>
      <trkpt lat="44.49613" lon="1.40258">
        <ele>216.6709977607</ele>
        <time>2018-03-12T15:35:06Z</time>
      </trkpt>
      <trkpt lat="44.49613" lon="1.40249">
        <ele>217.49512408362</ele>
        <time>2018-03-12T15:35:11Z</time>
      </trkpt>
      <trkpt lat="44.49612" lon="1.40243">
        <ele>217.69113725045</ele>
        <time>2018-03-12T15:35:15Z</time>
      </trkpt>
      <trkpt lat="44.49612" lon="1.40236">
        <ele>218.11068831127</ele>
        <time>2018-03-12T15:35:20Z</time>
      </trkpt>
      <trkpt lat="44.49609" lon="1.40231">
        <ele>218.25690459271</ele>
        <time>2018-03-12T15:35:25Z</time>
      </trkpt>
      <trkpt lat="44.49608" lon="1.40225">
        <ele>217.84058305441</ele>
        <time>2018-03-12T15:35:30Z</time>
      </trkpt>
      <trkpt lat="44.49606" lon="1.40218">
        <ele>217.45050958554</ele>
        <time>2018-03-12T15:35:35Z</time>
      </trkpt>
      <trkpt lat="44.49606" lon="1.4021">
        <ele>217.02551992663</ele>
        <time>2018-03-12T15:35:40Z</time>
      </trkpt>
      <trkpt lat="44.49603" lon="1.40203">
        <ele>216.55518106542</ele>
        <time>2018-03-12T15:35:45Z</time>
      </trkpt>
      <trkpt lat="44.496" lon="1.40198">
        <ele>216.25704119447</ele>
        <time>2018-03-12T15:35:50Z</time>
      </trkpt>
      <trkpt lat="44.49596" lon="1.40194">
        <ele>216.15187813954</ele>
        <time>2018-03-12T15:35:55Z</time>
      </trkpt>
      <trkpt lat="44.49593" lon="1.40191">
        <ele>216.52507353161</ele>
        <time>2018-03-12T15:35:59Z</time>
      </trkpt>
      <trkpt lat="44.4959" lon="1.40185">
        <ele>217.27288263457</ele>
        <time>2018-03-12T15:36:03Z</time>
      </trkpt>
      <trkpt lat="44.49588" lon="1.4018">
        <ele>217.85613517625</ele>
        <time>2018-03-12T15:36:07Z</time>
      </trkpt>
      <trkpt lat="44.49584" lon="1.40177">
        <ele>218.51495141589</ele>
        <time>2018-03-12T15:36:11Z</time>
      </trkpt>
      <trkpt lat="44.49581" lon="1.40171">
        <ele>218.99757169767</ele>
        <time>2018-03-12T15:36:16Z</time>
      </trkpt>
      <trkpt lat="44.49579" lon="1.40166">
        <ele>219.11595154319</ele>
        <time>2018-03-12T15:36:21Z</time>
      </trkpt>
      <trkpt lat="44.49575" lon="1.40158">
        <ele>219.56937951899</ele>
        <time>2018-03-12T15:36:26Z</time>
      </trkpt>
      <trkpt lat="44.49571" lon="1.40155">
        <ele>220.07002703705</ele>
        <time>2018-03-12T15:36:31Z</time>
      </trkpt>
      <trkpt lat="44.49566" lon="1.40151">
        <ele>220.54210725528</ele>
        <time>2018-03-12T15:36:35Z</time>
      </trkpt>
      <trkpt lat="44.49562" lon="1.4015">
        <ele>221.12243601299</ele>
        <time>2018-03-12T15:36:40Z</time>
      </trkpt>
      <trkpt lat="44.49558" lon="1.40147">
        <ele>221.53831618023</ele>
        <time>2018-03-12T15:36:44Z</time>
      </trkpt>
      <trkpt lat="44.49553" lon="1.40146">
        <ele>222.54758446772</ele>
        <time>2018-03-12T15:36:49Z</time>
      </trkpt>
      <trkpt lat="44.49549" lon="1.40146">
        <ele>223.60931499451</ele>
        <time>2018-03-12T15:36:55Z</time>
      </trkpt>
      <trkpt lat="44.49545" lon="1.40143">
        <ele>224.3721119031</ele>
        <time>2018-03-12T15:36:59Z</time>
      </trkpt>
      <trkpt lat="44.49539" lon="1.40141">
        <ele>225.04770233228</ele>
        <time>2018-03-12T15:37:04Z</time>
      </trkpt>
      <trkpt lat="44.49535" lon="1.40138">
        <ele>225.94888897088</ele>
        <time>2018-03-12T15:37:10Z</time>
      </trkpt>
      <trkpt lat="44.4953" lon="1.40138">
        <ele>226.52882212607</ele>
        <time>2018-03-12T15:37:14Z</time>
      </trkpt>
      <trkpt lat="44.49526" lon="1.40136">
        <ele>226.74299861071</ele>
        <time>2018-03-12T15:37:18Z</time>
      </trkpt>
      <trkpt lat="44.49523" lon="1.40134">
        <ele>227.04238309425</ele>
        <time>2018-03-12T15:37:22Z</time>
      </trkpt>
      <trkpt lat="44.49518" lon="1.4013">
        <ele>227.68878756768</ele>
        <time>2018-03-12T15:37:27Z</time>
      </trkpt>
      <trkpt lat="44.49514" lon="1.40128">
        <ele>228.07559090623</ele>
        <time>2018-03-12T15:37:34Z</time>
      </trkpt>
      <trkpt lat="44.49511" lon="1.40125">
        <ele>228.87761428804</ele>
        <time>2018-03-12T15:37:39Z</time>
      </trkpt>
      <trkpt lat="44.49512" lon="1.40119">
        <ele>229.4742166139</ele>
        <time>2018-03-12T15:37:45Z</time>
      </trkpt>
      <trkpt lat="44.49516" lon="1.40116">
        <ele>229.09112386215</ele>
        <time>2018-03-12T15:37:50Z</time>
      </trkpt>
      <trkpt lat="44.49516" lon="1.40109">
        <ele>227.52765700797</ele>
        <time>2018-03-12T15:37:58Z</time>
      </trkpt>
      <trkpt lat="44.49514" lon="1.40104">
        <ele>226.7711607813</ele>
        <time>2018-03-12T15:38:08Z</time>
      </trkpt>
      <trkpt lat="44.4951" lon="1.401">
        <ele>222.3574691588</ele>
        <time>2018-03-12T15:38:41Z</time>
      </trkpt>
      <trkpt lat="44.49507" lon="1.40097">
        <ele>224.18535318589</ele>
        <time>2018-03-12T15:39:14Z</time>
      </trkpt>
      <trkpt lat="44.49509" lon="1.40092">
        <ele>224.02186735002</ele>
        <time>2018-03-12T15:39:27Z</time>
      </trkpt>
      <trkpt lat="44.49515" lon="1.4009">
        <ele>223.32790509</ele>
        <time>2018-03-12T15:39:32Z</time>
      </trkpt>
      <trkpt lat="44.49518" lon="1.40093">
        <ele>221.70220229442</ele>
        <time>2018-03-12T15:39:44Z</time>
      </trkpt>
      <trkpt lat="44.49516" lon="1.40098">
        <ele>221.41858872505</ele>
        <time>2018-03-12T15:39:54Z</time>
      </trkpt>
      <trkpt lat="44.49514" lon="1.40103">
        <ele>221.97427606311</ele>
        <time>2018-03-12T15:39:59Z</time>
      </trkpt>
      <trkpt lat="44.49515" lon="1.40108">
        <ele>222.88600377993</ele>
        <time>2018-03-12T15:40:05Z</time>
      </trkpt>
      <trkpt lat="44.49517" lon="1.40107">
        <ele>221.92398375242</ele>
        <time>2018-03-12T15:40:22Z</time>
      </trkpt>
      <trkpt lat="44.49521" lon="1.40102">
        <ele>221.05722750214</ele>
        <time>2018-03-12T15:40:27Z</time>
      </trkpt>
      <trkpt lat="44.49524" lon="1.40097">
        <ele>220.5799470956</ele>
        <time>2018-03-12T15:40:31Z</time>
      </trkpt>
      <trkpt lat="44.49526" lon="1.40089">
        <ele>220.32678072316</ele>
        <time>2018-03-12T15:40:36Z</time>
      </trkpt>
      <trkpt lat="44.49528" lon="1.40082">
        <ele>220.08598775574</ele>
        <time>2018-03-12T15:40:41Z</time>
      </trkpt>
      <trkpt lat="44.49531" lon="1.40074">
        <ele>220.20355500222</ele>
        <time>2018-03-12T15:40:46Z</time>
      </trkpt>
      <trkpt lat="44.49533" lon="1.40068">
        <ele>220.20644774108</ele>
        <time>2018-03-12T15:40:50Z</time>
      </trkpt>
      <trkpt lat="44.49536" lon="1.40063">
        <ele>220.23783504283</ele>
        <time>2018-03-12T15:40:54Z</time>
      </trkpt>
      <trkpt lat="44.49538" lon="1.40059">
        <ele>220.47821413594</ele>
        <time>2018-03-12T15:40:59Z</time>
      </trkpt>
      <trkpt lat="44.49539" lon="1.40053">
        <ele>220.70233778416</ele>
        <time>2018-03-12T15:41:03Z</time>
      </trkpt>
      <trkpt lat="44.49541" lon="1.40046">
        <ele>221.03345251728</ele>
        <time>2018-03-12T15:41:08Z</time>
      </trkpt>
      <trkpt lat="44.49543" lon="1.40035">
        <ele>221.18340216067</ele>
        <time>2018-03-12T15:41:12Z</time>
      </trkpt>
      <trkpt lat="44.49545" lon="1.40029">
        <ele>221.1384544148</ele>
        <time>2018-03-12T15:41:17Z</time>
      </trkpt>
      <trkpt lat="44.49547" lon="1.40023">
        <ele>221.10230168509</ele>
        <time>2018-03-12T15:41:21Z</time>
      </trkpt>
      <trkpt lat="44.49548" lon="1.40018">
        <ele>221.12748127741</ele>
        <time>2018-03-12T15:41:26Z</time>
      </trkpt>
      <trkpt lat="44.4955" lon="1.40013">
        <ele>221.03042101354</ele>
        <time>2018-03-12T15:41:30Z</time>
      </trkpt>
      <trkpt lat="44.49552" lon="1.40004">
        <ele>220.71609244074</ele>
        <time>2018-03-12T15:41:35Z</time>
      </trkpt>
      <trkpt lat="44.49554" lon="1.4">
        <ele>220.37563562259</ele>
        <time>2018-03-12T15:41:39Z</time>
      </trkpt>
      <trkpt lat="44.49555" lon="1.39991">
        <ele>219.97155345768</ele>
        <time>2018-03-12T15:41:44Z</time>
      </trkpt>
      <trkpt lat="44.49555" lon="1.39985">
        <ele>219.67170177905</ele>
        <time>2018-03-12T15:41:48Z</time>
      </trkpt>
      <trkpt lat="44.49557" lon="1.3998">
        <ele>219.19266047099</ele>
        <time>2018-03-12T15:41:55Z</time>
      </trkpt>
      <trkpt lat="44.4956" lon="1.39974">
        <ele>218.91538555262</ele>
        <time>2018-03-12T15:41:59Z</time>
      </trkpt>
      <trkpt lat="44.49563" lon="1.39969">
        <ele>218.50226655981</ele>
        <time>2018-03-12T15:42:03Z</time>
      </trkpt>
      <trkpt lat="44.49565" lon="1.39962">
        <ele>217.68927332744</ele>
        <time>2018-03-12T15:42:08Z</time>
      </trkpt>
      <trkpt lat="44.49571" lon="1.39955">
        <ele>217.05740119038</ele>
        <time>2018-03-12T15:42:13Z</time>
      </trkpt>
      <trkpt lat="44.49573" lon="1.39949">
        <ele>216.53693435637</ele>
        <time>2018-03-12T15:42:17Z</time>
      </trkpt>
      <trkpt lat="44.49575" lon="1.39945">
        <ele>216.24192809483</ele>
        <time>2018-03-12T15:42:21Z</time>
      </trkpt>
      <trkpt lat="44.49579" lon="1.39939">
        <ele>215.89863377355</ele>
        <time>2018-03-12T15:42:26Z</time>
      </trkpt>
      <trkpt lat="44.49583" lon="1.39934">
        <ele>215.46925373924</ele>
        <time>2018-03-12T15:42:30Z</time>
      </trkpt>
      <trkpt lat="44.49585" lon="1.3993">
        <ele>215.27871374555</ele>
        <time>2018-03-12T15:42:34Z</time>
      </trkpt>
      <trkpt lat="44.4959" lon="1.39925">
        <ele>214.87319129738</ele>
        <time>2018-03-12T15:42:39Z</time>
      </trkpt>
      <trkpt lat="44.49593" lon="1.3992">
        <ele>214.45775323844</ele>
        <time>2018-03-12T15:42:44Z</time>
      </trkpt>
      <trkpt lat="44.49599" lon="1.39917">
        <ele>214.41303087708</ele>
        <time>2018-03-12T15:42:49Z</time>
      </trkpt>
      <trkpt lat="44.49606" lon="1.39913">
        <ele>213.81391210566</ele>
        <time>2018-03-12T15:42:54Z</time>
      </trkpt>
      <trkpt lat="44.49609" lon="1.39906">
        <ele>213.19183200041</ele>
        <time>2018-03-12T15:42:59Z</time>
      </trkpt>
      <trkpt lat="44.49613" lon="1.39901">
        <ele>212.67789872694</ele>
        <time>2018-03-12T15:43:03Z</time>
      </trkpt>
      <trkpt lat="44.49616" lon="1.39899">
        <ele>212.45192648162</ele>
        <time>2018-03-12T15:43:09Z</time>
      </trkpt>
      <trkpt lat="44.49621" lon="1.39897">
        <ele>212.12552094018</ele>
        <time>2018-03-12T15:43:13Z</time>
      </trkpt>
      <trkpt lat="44.49629" lon="1.39894">
        <ele>212.01676217688</ele>
        <time>2018-03-12T15:43:18Z</time>
      </trkpt>
      <trkpt lat="44.49632" lon="1.39889">
        <ele>211.5204738151</ele>
        <time>2018-03-12T15:43:23Z</time>
      </trkpt>
      <trkpt lat="44.49627" lon="1.39887">
        <ele>210.42400914962</ele>
        <time>2018-03-12T15:43:28Z</time>
      </trkpt>
      <trkpt lat="44.49623" lon="1.39889">
        <ele>209.62800054206</ele>
        <time>2018-03-12T15:43:33Z</time>
      </trkpt>
      <trkpt lat="44.49617" lon="1.39889">
        <ele>208.80508860539</ele>
        <time>2018-03-12T15:43:38Z</time>
      </trkpt>
      <trkpt lat="44.49612" lon="1.39889">
        <ele>208.15903150838</ele>
        <time>2018-03-12T15:43:42Z</time>
      </trkpt>
      <trkpt lat="44.49608" lon="1.39892">
        <ele>207.34609767265</ele>
        <time>2018-03-12T15:43:46Z</time>
      </trkpt>
      <trkpt lat="44.49602" lon="1.3989">
        <ele>206.31051639937</ele>
        <time>2018-03-12T15:43:51Z</time>
      </trkpt>
      <trkpt lat="44.49598" lon="1.39888">
        <ele>205.36926150265</ele>
        <time>2018-03-12T15:43:55Z</time>
      </trkpt>
      <trkpt lat="44.49593" lon="1.39888">
        <ele>204.31235748056</ele>
        <time>2018-03-12T15:44:00Z</time>
      </trkpt>
      <trkpt lat="44.49589" lon="1.39886">
        <ele>203.47130926428</ele>
        <time>2018-03-12T15:44:04Z</time>
      </trkpt>
      <trkpt lat="44.49582" lon="1.39885">
        <ele>202.87284265139</ele>
        <time>2018-03-12T15:44:08Z</time>
      </trkpt>
      <trkpt lat="44.49578" lon="1.39884">
        <ele>202.2647160829</ele>
        <time>2018-03-12T15:44:13Z</time>
      </trkpt>
      <trkpt lat="44.49575" lon="1.3988">
        <ele>202.02467913744</ele>
        <time>2018-03-12T15:44:17Z</time>
      </trkpt>
      <trkpt lat="44.49572" lon="1.39875">
        <ele>201.14054708501</ele>
        <time>2018-03-12T15:44:22Z</time>
      </trkpt>
      <trkpt lat="44.49567" lon="1.39868">
        <ele>199.56452280292</ele>
        <time>2018-03-12T15:44:27Z</time>
      </trkpt>
      <trkpt lat="44.49565" lon="1.39863">
        <ele>198.52863087316</ele>
        <time>2018-03-12T15:44:31Z</time>
      </trkpt>
      <trkpt lat="44.49564" lon="1.39856">
        <ele>198.16618604829</ele>
        <time>2018-03-12T15:44:35Z</time>
      </trkpt>
      <trkpt lat="44.49566" lon="1.39845">
        <ele>197.75200249016</ele>
        <time>2018-03-12T15:44:40Z</time>
      </trkpt>
      <trkpt lat="44.49568" lon="1.39841">
        <ele>197.33917710797</ele>
        <time>2018-03-12T15:44:44Z</time>
      </trkpt>
      <trkpt lat="44.4957" lon="1.39837">
        <ele>197.25113390007</ele>
        <time>2018-03-12T15:44:49Z</time>
      </trkpt>
      <trkpt lat="44.49573" lon="1.39833">
        <ele>197.21258472339</ele>
        <time>2018-03-12T15:44:54Z</time>
      </trkpt>
      <trkpt lat="44.49578" lon="1.39826">
        <ele>196.83412467351</ele>
        <time>2018-03-12T15:44:59Z</time>
      </trkpt>
      <trkpt lat="44.4958" lon="1.3982">
        <ele>196.29291475125</ele>
        <time>2018-03-12T15:45:03Z</time>
      </trkpt>
      <trkpt lat="44.49582" lon="1.39814">
        <ele>196.20573661149</ele>
        <time>2018-03-12T15:45:07Z</time>
      </trkpt>
      <trkpt lat="44.49585" lon="1.39807">
        <ele>195.94604514687</ele>
        <time>2018-03-12T15:45:12Z</time>
      </trkpt>
      <trkpt lat="44.49587" lon="1.39803">
        <ele>195.27538088993</ele>
        <time>2018-03-12T15:45:18Z</time>
      </trkpt>
      <trkpt lat="44.49589" lon="1.39798">
        <ele>194.62698018857</ele>
        <time>2018-03-12T15:45:23Z</time>
      </trkpt>
      <trkpt lat="44.49591" lon="1.39793">
        <ele>194.13421293276</ele>
        <time>2018-03-12T15:45:27Z</time>
      </trkpt>
      <trkpt lat="44.49594" lon="1.39791">
        <ele>193.6173844637</ele>
        <time>2018-03-12T15:45:32Z</time>
      </trkpt>
      <trkpt lat="44.49599" lon="1.39783">
        <ele>193.38478096572</ele>
        <time>2018-03-12T15:45:37Z</time>
      </trkpt>
      <trkpt lat="44.496" lon="1.39778">
        <ele>193.42386837213</ele>
        <time>2018-03-12T15:45:41Z</time>
      </trkpt>
      <trkpt lat="44.49606" lon="1.39768">
        <ele>193.07022884611</ele>
        <time>2018-03-12T15:45:45Z</time>
      </trkpt>
      <trkpt lat="44.49608" lon="1.39761">
        <ele>192.4872591327</ele>
        <time>2018-03-12T15:45:49Z</time>
      </trkpt>
      <trkpt lat="44.49611" lon="1.39756">
        <ele>191.89480760149</ele>
        <time>2018-03-12T15:45:54Z</time>
      </trkpt>
      <trkpt lat="44.49613" lon="1.39753">
        <ele>191.64127344036</ele>
        <time>2018-03-12T15:45:59Z</time>
      </trkpt>
      <trkpt lat="44.49617" lon="1.39751">
        <ele>191.42438656846</ele>
        <time>2018-03-12T15:46:05Z</time>
      </trkpt>
      <trkpt lat="44.49619" lon="1.39747">
        <ele>191.3698915369</ele>
        <time>2018-03-12T15:46:09Z</time>
      </trkpt>
      <trkpt lat="44.49623" lon="1.39742">
        <ele>191.50737560545</ele>
        <time>2018-03-12T15:46:13Z</time>
      </trkpt>
      <trkpt lat="44.49628" lon="1.39734">
        <ele>191.33111988691</ele>
        <time>2018-03-12T15:46:17Z</time>
      </trkpt>
      <trkpt lat="44.49632" lon="1.3973">
        <ele>190.98552109279</ele>
        <time>2018-03-12T15:46:23Z</time>
      </trkpt>
      <trkpt lat="44.49634" lon="1.39727">
        <ele>190.57791609743</ele>
        <time>2018-03-12T15:46:28Z</time>
      </trkpt>
      <trkpt lat="44.49638" lon="1.39721">
        <ele>190.43201265891</ele>
        <time>2018-03-12T15:46:32Z</time>
      </trkpt>
      <trkpt lat="44.49642" lon="1.39717">
        <ele>190.46463391491</ele>
        <time>2018-03-12T15:46:37Z</time>
      </trkpt>
      <trkpt lat="44.49646" lon="1.39715">
        <ele>190.91109225617</ele>
        <time>2018-03-12T15:46:41Z</time>
      </trkpt>
      <trkpt lat="44.4965" lon="1.39711">
        <ele>191.17720655778</ele>
        <time>2018-03-12T15:46:46Z</time>
      </trkpt>
      <trkpt lat="44.49655" lon="1.39705">
        <ele>191.62561088171</ele>
        <time>2018-03-12T15:46:51Z</time>
      </trkpt>
      <trkpt lat="44.49658" lon="1.39701">
        <ele>192.13637620779</ele>
        <time>2018-03-12T15:46:56Z</time>
      </trkpt>
      <trkpt lat="44.49662" lon="1.39696">
        <ele>192.40269672124</ele>
        <time>2018-03-12T15:47:00Z</time>
      </trkpt>
      <trkpt lat="44.49666" lon="1.39693">
        <ele>192.30776833748</ele>
        <time>2018-03-12T15:47:04Z</time>
      </trkpt>
      <trkpt lat="44.49669" lon="1.39689">
        <ele>192.27688089588</ele>
        <time>2018-03-12T15:47:09Z</time>
      </trkpt>
      <trkpt lat="44.49674" lon="1.39682">
        <ele>192.86729342455</ele>
        <time>2018-03-12T15:47:14Z</time>
      </trkpt>
      <trkpt lat="44.49677" lon="1.39678">
        <ele>193.16061082275</ele>
        <time>2018-03-12T15:47:18Z</time>
      </trkpt>
      <trkpt lat="44.4968" lon="1.39674">
        <ele>193.55566201362</ele>
        <time>2018-03-12T15:47:23Z</time>
      </trkpt>
      <trkpt lat="44.49685" lon="1.39672">
        <ele>193.7543713752</ele>
        <time>2018-03-12T15:47:27Z</time>
      </trkpt>
      <trkpt lat="44.49689" lon="1.39667">
        <ele>193.90149693288</ele>
        <time>2018-03-12T15:47:31Z</time>
      </trkpt>
      <trkpt lat="44.49693" lon="1.39658">
        <ele>194.11772301554</ele>
        <time>2018-03-12T15:47:35Z</time>
      </trkpt>
      <trkpt lat="44.49696" lon="1.39654">
        <ele>194.19880552419</ele>
        <time>2018-03-12T15:47:44Z</time>
      </trkpt>
      <trkpt lat="44.49699" lon="1.39651">
        <ele>193.8866056717</ele>
        <time>2018-03-12T15:47:48Z</time>
      </trkpt>
      <trkpt lat="44.49703" lon="1.39644">
        <ele>193.76170159349</ele>
        <time>2018-03-12T15:47:53Z</time>
      </trkpt>
      <trkpt lat="44.49709" lon="1.3964">
        <ele>193.50801195319</ele>
        <time>2018-03-12T15:47:57Z</time>
      </trkpt>
      <trkpt lat="44.49713" lon="1.39636">
        <ele>193.12249799573</ele>
        <time>2018-03-12T15:48:01Z</time>
      </trkpt>
      <trkpt lat="44.49715" lon="1.3963">
        <ele>192.64277464881</ele>
        <time>2018-03-12T15:48:06Z</time>
      </trkpt>
      <trkpt lat="44.49717" lon="1.39626">
        <ele>190.84290514359</ele>
        <time>2018-03-12T15:48:27Z</time>
      </trkpt>
      <trkpt lat="44.4972" lon="1.39621">
        <ele>190.26243489069</ele>
        <time>2018-03-12T15:48:32Z</time>
      </trkpt>
      <trkpt lat="44.49723" lon="1.39617">
        <ele>189.86262627464</ele>
        <time>2018-03-12T15:48:37Z</time>
      </trkpt>
      <trkpt lat="44.49725" lon="1.39611">
        <ele>189.69326692696</ele>
        <time>2018-03-12T15:48:41Z</time>
      </trkpt>
      <trkpt lat="44.49725" lon="1.39606">
        <ele>188.93514395057</ele>
        <time>2018-03-12T15:48:47Z</time>
      </trkpt>
      <trkpt lat="44.49726" lon="1.396">
        <ele>188.29082145748</ele>
        <time>2018-03-12T15:48:52Z</time>
      </trkpt>
      <trkpt lat="44.49728" lon="1.39595">
        <ele>187.27558470967</ele>
        <time>2018-03-12T15:48:57Z</time>
      </trkpt>
      <trkpt lat="44.49733" lon="1.39589">
        <ele>186.84926106624</ele>
        <time>2018-03-12T15:49:01Z</time>
      </trkpt>
      <trkpt lat="44.49736" lon="1.39586">
        <ele>186.79000970557</ele>
        <time>2018-03-12T15:49:06Z</time>
      </trkpt>
      <trkpt lat="44.49737" lon="1.39576">
        <ele>186.81250624418</ele>
        <time>2018-03-12T15:49:10Z</time>
      </trkpt>
      <trkpt lat="44.49739" lon="1.39571">
        <ele>186.77952512958</ele>
        <time>2018-03-12T15:49:18Z</time>
      </trkpt>
      <trkpt lat="44.49739" lon="1.39566">
        <ele>186.71825070994</ele>
        <time>2018-03-12T15:49:22Z</time>
      </trkpt>
      <trkpt lat="44.4974" lon="1.39557">
        <ele>187.20334494364</ele>
        <time>2018-03-12T15:49:27Z</time>
      </trkpt>
      <trkpt lat="44.49741" lon="1.39551">
        <ele>187.51979489124</ele>
        <time>2018-03-12T15:49:31Z</time>
      </trkpt>
      <trkpt lat="44.49742" lon="1.39544">
        <ele>188.0440201838</ele>
        <time>2018-03-12T15:49:36Z</time>
      </trkpt>
      <trkpt lat="44.49743" lon="1.39539">
        <ele>188.26600071301</ele>
        <time>2018-03-12T15:49:41Z</time>
      </trkpt>
      <trkpt lat="44.49744" lon="1.39531">
        <ele>188.52303413273</ele>
        <time>2018-03-12T15:49:45Z</time>
      </trkpt>
      <trkpt lat="44.49744" lon="1.39525">
        <ele>188.67570990913</ele>
        <time>2018-03-12T15:49:49Z</time>
      </trkpt>
      <trkpt lat="44.49743" lon="1.39516">
        <ele>188.43709016659</ele>
        <time>2018-03-12T15:49:54Z</time>
      </trkpt>
      <trkpt lat="44.49743" lon="1.39508">
        <ele>188.35182694253</ele>
        <time>2018-03-12T15:49:58Z</time>
      </trkpt>
      <trkpt lat="44.49743" lon="1.39502">
        <ele>188.15979367436</ele>
        <time>2018-03-12T15:50:05Z</time>
      </trkpt>
      <trkpt lat="44.49739" lon="1.3949">
        <ele>187.88456284353</ele>
        <time>2018-03-12T15:50:10Z</time>
      </trkpt>
      <trkpt lat="44.49735" lon="1.39482">
        <ele>187.56744775455</ele>
        <time>2018-03-12T15:50:14Z</time>
      </trkpt>
      <trkpt lat="44.49733" lon="1.39474">
        <ele>187.25621536622</ele>
        <time>2018-03-12T15:50:18Z</time>
      </trkpt>
      <trkpt lat="44.49731" lon="1.39469">
        <ele>187.01664285861</ele>
        <time>2018-03-12T15:50:22Z</time>
      </trkpt>
      <trkpt lat="44.49729" lon="1.39461">
        <ele>186.73837847645</ele>
        <time>2018-03-12T15:50:27Z</time>
      </trkpt>
      <trkpt lat="44.49727" lon="1.39456">
        <ele>185.91016119934</ele>
        <time>2018-03-12T15:50:32Z</time>
      </trkpt>
      <trkpt lat="44.49724" lon="1.39452">
        <ele>185.60508726828</ele>
        <time>2018-03-12T15:50:37Z</time>
      </trkpt>
      <trkpt lat="44.4972" lon="1.39444">
        <ele>185.40145914631</ele>
        <time>2018-03-12T15:50:41Z</time>
      </trkpt>
      <trkpt lat="44.49716" lon="1.39437">
        <ele>185.53011276682</ele>
        <time>2018-03-12T15:50:46Z</time>
      </trkpt>
      <trkpt lat="44.49714" lon="1.39427">
        <ele>186.06054598726</ele>
        <time>2018-03-12T15:50:51Z</time>
      </trkpt>
      <trkpt lat="44.49714" lon="1.39423">
        <ele>186.65362618167</ele>
        <time>2018-03-12T15:50:55Z</time>
      </trkpt>
      <trkpt lat="44.49712" lon="1.39415">
        <ele>186.93312404107</ele>
        <time>2018-03-12T15:50:59Z</time>
      </trkpt>
      <trkpt lat="44.49712" lon="1.39409">
        <ele>187.22646235238</ele>
        <time>2018-03-12T15:51:03Z</time>
      </trkpt>
      <trkpt lat="44.49711" lon="1.39404">
        <ele>187.72196636893</ele>
        <time>2018-03-12T15:51:08Z</time>
      </trkpt>
      <trkpt lat="44.49708" lon="1.39398">
        <ele>188.64518469711</ele>
        <time>2018-03-12T15:51:12Z</time>
      </trkpt>
      <trkpt lat="44.49705" lon="1.39393">
        <ele>189.33898193292</ele>
        <time>2018-03-12T15:51:17Z</time>
      </trkpt>
      <trkpt lat="44.49702" lon="1.39384">
        <ele>189.30863152572</ele>
        <time>2018-03-12T15:51:22Z</time>
      </trkpt>
      <trkpt lat="44.49699" lon="1.39375">
        <ele>189.08437645883</ele>
        <time>2018-03-12T15:51:27Z</time>
      </trkpt>
      <trkpt lat="44.49697" lon="1.3937">
        <ele>188.96889284473</ele>
        <time>2018-03-12T15:51:31Z</time>
      </trkpt>
      <trkpt lat="44.49694" lon="1.39362">
        <ele>188.82614088934</ele>
        <time>2018-03-12T15:51:35Z</time>
      </trkpt>
      <trkpt lat="44.49692" lon="1.39358">
        <ele>188.64379880199</ele>
        <time>2018-03-12T15:51:41Z</time>
      </trkpt>
      <trkpt lat="44.4969" lon="1.39353">
        <ele>188.67522962392</ele>
        <time>2018-03-12T15:51:46Z</time>
      </trkpt>
      <trkpt lat="44.49687" lon="1.39348">
        <ele>188.97785793469</ele>
        <time>2018-03-12T15:51:51Z</time>
      </trkpt>
      <trkpt lat="44.49685" lon="1.39338">
        <ele>189.6661572858</ele>
        <time>2018-03-12T15:51:55Z</time>
      </trkpt>
      <trkpt lat="44.49681" lon="1.39329">
        <ele>190.15717571138</ele>
        <time>2018-03-12T15:51:59Z</time>
      </trkpt>
      <trkpt lat="44.49679" lon="1.3932">
        <ele>190.06509461951</ele>
        <time>2018-03-12T15:52:03Z</time>
      </trkpt>
      <trkpt lat="44.49679" lon="1.39315">
        <ele>189.67001895705</ele>
        <time>2018-03-12T15:52:07Z</time>
      </trkpt>
      <trkpt lat="44.49676" lon="1.39309">
        <ele>189.34608438407</ele>
        <time>2018-03-12T15:52:11Z</time>
      </trkpt>
      <trkpt lat="44.49673" lon="1.39304">
        <ele>189.08289301475</ele>
        <time>2018-03-12T15:52:16Z</time>
      </trkpt>
      <trkpt lat="44.49671" lon="1.393">
        <ele>189.02194339045</ele>
        <time>2018-03-12T15:52:20Z</time>
      </trkpt>
      <trkpt lat="44.4967" lon="1.39294">
        <ele>189.02630915446</ele>
        <time>2018-03-12T15:52:25Z</time>
      </trkpt>
      <trkpt lat="44.49668" lon="1.39289">
        <ele>188.87230877985</ele>
        <time>2018-03-12T15:52:30Z</time>
      </trkpt>
      <trkpt lat="44.49662" lon="1.3928">
        <ele>188.86910001423</ele>
        <time>2018-03-12T15:52:34Z</time>
      </trkpt>
      <trkpt lat="44.49658" lon="1.39275">
        <ele>188.59146863602</ele>
        <time>2018-03-12T15:52:39Z</time>
      </trkpt>
      <trkpt lat="44.49655" lon="1.3927">
        <ele>187.23054069134</ele>
        <time>2018-03-12T15:52:47Z</time>
      </trkpt>
      <trkpt lat="44.49651" lon="1.39265">
        <ele>186.1100838203</ele>
        <time>2018-03-12T15:52:52Z</time>
      </trkpt>
      <trkpt lat="44.49648" lon="1.39261">
        <ele>185.1924166322</ele>
        <time>2018-03-12T15:52:56Z</time>
      </trkpt>
      <trkpt lat="44.49645" lon="1.39256">
        <ele>184.36432394261</ele>
        <time>2018-03-12T15:53:01Z</time>
      </trkpt>
      <trkpt lat="44.49641" lon="1.39253">
        <ele>183.77399975289</ele>
        <time>2018-03-12T15:53:05Z</time>
      </trkpt>
      <trkpt lat="44.49638" lon="1.39246">
        <ele>183.07759376244</ele>
        <time>2018-03-12T15:53:09Z</time>
      </trkpt>
      <trkpt lat="44.49636" lon="1.39241">
        <ele>181.52759066971</ele>
        <time>2018-03-12T15:53:15Z</time>
      </trkpt>
      <trkpt lat="44.49633" lon="1.39238">
        <ele>179.91209590302</ele>
        <time>2018-03-12T15:53:20Z</time>
      </trkpt>
      <trkpt lat="44.4963" lon="1.39235">
        <ele>179.1496178002</ele>
        <time>2018-03-12T15:53:25Z</time>
      </trkpt>
      <trkpt lat="44.49626" lon="1.39232">
        <ele>178.08074840891</ele>
        <time>2018-03-12T15:53:33Z</time>
      </trkpt>
      <trkpt lat="44.49622" lon="1.3923">
        <ele>176.98149345245</ele>
        <time>2018-03-12T15:53:41Z</time>
      </trkpt>
      <trkpt lat="44.4962" lon="1.39226">
        <ele>176.46280956177</ele>
        <time>2018-03-12T15:53:47Z</time>
      </trkpt>
      <trkpt lat="44.49616" lon="1.39223">
        <ele>175.70920925554</ele>
        <time>2018-03-12T15:53:55Z</time>
      </trkpt>
      <trkpt lat="44.49617" lon="1.39217">
        <ele>175.18800955097</ele>
        <time>2018-03-12T15:54:00Z</time>
      </trkpt>
      <trkpt lat="44.49616" lon="1.39212">
        <ele>174.74959992272</ele>
        <time>2018-03-12T15:54:04Z</time>
      </trkpt>
      <trkpt lat="44.49615" lon="1.39206">
        <ele>174.5710653669</ele>
        <time>2018-03-12T15:54:09Z</time>
      </trkpt>
      <trkpt lat="44.49613" lon="1.39211">
        <ele>174.58234607162</ele>
        <time>2018-03-12T15:54:33Z</time>
      </trkpt>
      <trkpt lat="44.49611" lon="1.39216">
        <ele>176.74758653017</ele>
        <time>2018-03-12T15:54:48Z</time>
      </trkpt>
      <trkpt lat="44.49613" lon="1.39211">
        <ele>178.11308175323</ele>
        <time>2018-03-12T15:55:12Z</time>
      </trkpt>
      <trkpt lat="44.49614" lon="1.39206">
        <ele>177.02024222969</ele>
        <time>2018-03-12T15:55:43Z</time>
      </trkpt>
      <trkpt lat="44.49616" lon="1.39199">
        <ele>176.42682436614</ele>
        <time>2018-03-12T15:55:47Z</time>
      </trkpt>
      <trkpt lat="44.49617" lon="1.39193">
        <ele>175.1103302416</ele>
        <time>2018-03-12T15:55:52Z</time>
      </trkpt>
      <trkpt lat="44.49618" lon="1.39187">
        <ele>174.02176281431</ele>
        <time>2018-03-12T15:55:56Z</time>
      </trkpt>
      <trkpt lat="44.49619" lon="1.3918">
        <ele>172.84779087842</ele>
        <time>2018-03-12T15:56:00Z</time>
      </trkpt>
      <trkpt lat="44.49621" lon="1.39169">
        <ele>171.81431745577</ele>
        <time>2018-03-12T15:56:05Z</time>
      </trkpt>
      <trkpt lat="44.49623" lon="1.39162">
        <ele>170.7904036628</ele>
        <time>2018-03-12T15:56:09Z</time>
      </trkpt>
      <trkpt lat="44.49625" lon="1.39155">
        <ele>170.05744798254</ele>
        <time>2018-03-12T15:56:14Z</time>
      </trkpt>
      <trkpt lat="44.49627" lon="1.39149">
        <ele>169.1305398677</ele>
        <time>2018-03-12T15:56:19Z</time>
      </trkpt>
      <trkpt lat="44.49628" lon="1.39141">
        <ele>167.91010593413</ele>
        <time>2018-03-12T15:56:24Z</time>
      </trkpt>
      <trkpt lat="44.4963" lon="1.39134">
        <ele>166.6999380687</ele>
        <time>2018-03-12T15:56:28Z</time>
      </trkpt>
      <trkpt lat="44.49631" lon="1.39124">
        <ele>165.71017706023</ele>
        <time>2018-03-12T15:56:32Z</time>
      </trkpt>
      <trkpt lat="44.49633" lon="1.39117">
        <ele>165.07195458422</ele>
        <time>2018-03-12T15:56:36Z</time>
      </trkpt>
      <trkpt lat="44.49633" lon="1.39111">
        <ele>164.54810689351</ele>
        <time>2018-03-12T15:56:41Z</time>
      </trkpt>
      <trkpt lat="44.49634" lon="1.39104">
        <ele>164.13877174148</ele>
        <time>2018-03-12T15:56:46Z</time>
      </trkpt>
      <trkpt lat="44.49635" lon="1.39098">
        <ele>163.70683952777</ele>
        <time>2018-03-12T15:56:50Z</time>
      </trkpt>
      <trkpt lat="44.49637" lon="1.39088">
        <ele>163.16158189243</ele>
        <time>2018-03-12T15:56:55Z</time>
      </trkpt>
      <trkpt lat="44.49638" lon="1.39083">
        <ele>162.85683770735</ele>
        <time>2018-03-12T15:56:59Z</time>
      </trkpt>
      <trkpt lat="44.49641" lon="1.39078">
        <ele>162.22912800885</ele>
        <time>2018-03-12T15:57:03Z</time>
      </trkpt>
      <trkpt lat="44.49643" lon="1.39072">
        <ele>161.85347013733</ele>
        <time>2018-03-12T15:57:07Z</time>
      </trkpt>
      <trkpt lat="44.49645" lon="1.39064">
        <ele>161.41322151857</ele>
        <time>2018-03-12T15:57:12Z</time>
      </trkpt>
      <trkpt lat="44.49647" lon="1.39057">
        <ele>160.98143329698</ele>
        <time>2018-03-12T15:57:17Z</time>
      </trkpt>
      <trkpt lat="44.49649" lon="1.39048">
        <ele>160.45232428583</ele>
        <time>2018-03-12T15:57:21Z</time>
      </trkpt>
      <trkpt lat="44.4965" lon="1.39043">
        <ele>159.75938866403</ele>
        <time>2018-03-12T15:57:25Z</time>
      </trkpt>
      <trkpt lat="44.49651" lon="1.39036">
        <ele>159.10017455127</ele>
        <time>2018-03-12T15:57:29Z</time>
      </trkpt>
      <trkpt lat="44.49652" lon="1.39029">
        <ele>158.48198440707</ele>
        <time>2018-03-12T15:57:33Z</time>
      </trkpt>
      <trkpt lat="44.49654" lon="1.39022">
        <ele>157.79244608615</ele>
        <time>2018-03-12T15:57:38Z</time>
      </trkpt>
      <trkpt lat="44.49657" lon="1.39017">
        <ele>156.62303689007</ele>
        <time>2018-03-12T15:57:44Z</time>
      </trkpt>
      <trkpt lat="44.49658" lon="1.39007">
        <ele>155.8588204082</ele>
        <time>2018-03-12T15:57:49Z</time>
      </trkpt>
      <trkpt lat="44.4966" lon="1.38996">
        <ele>155.1328369494</ele>
        <time>2018-03-12T15:57:54Z</time>
      </trkpt>
      <trkpt lat="44.49662" lon="1.3899">
        <ele>154.72241462363</ele>
        <time>2018-03-12T15:57:58Z</time>
      </trkpt>
      <trkpt lat="44.49663" lon="1.38983">
        <ele>154.45157137371</ele>
        <time>2018-03-12T15:58:02Z</time>
      </trkpt>
      <trkpt lat="44.49664" lon="1.38977">
        <ele>154.2068844441</ele>
        <time>2018-03-12T15:58:06Z</time>
      </trkpt>
      <trkpt lat="44.49665" lon="1.38968">
        <ele>153.85430863822</ele>
        <time>2018-03-12T15:58:11Z</time>
      </trkpt>
      <trkpt lat="44.49666" lon="1.38959">
        <ele>153.54442890287</ele>
        <time>2018-03-12T15:58:15Z</time>
      </trkpt>
      <trkpt lat="44.49667" lon="1.38952">
        <ele>152.94044378978</ele>
        <time>2018-03-12T15:58:19Z</time>
      </trkpt>
      <trkpt lat="44.49669" lon="1.38946">
        <ele>152.52317221642</ele>
        <time>2018-03-12T15:58:23Z</time>
      </trkpt>
      <trkpt lat="44.49671" lon="1.3894">
        <ele>152.24420290057</ele>
        <time>2018-03-12T15:58:27Z</time>
      </trkpt>
      <trkpt lat="44.49673" lon="1.38929">
        <ele>151.98370718904</ele>
        <time>2018-03-12T15:58:32Z</time>
      </trkpt>
      <trkpt lat="44.49674" lon="1.38923">
        <ele>151.84148862047</ele>
        <time>2018-03-12T15:58:36Z</time>
      </trkpt>
      <trkpt lat="44.49675" lon="1.38912">
        <ele>151.71494204448</ele>
        <time>2018-03-12T15:58:41Z</time>
      </trkpt>
      <trkpt lat="44.49675" lon="1.38905">
        <ele>151.56677337778</ele>
        <time>2018-03-12T15:58:45Z</time>
      </trkpt>
      <trkpt lat="44.49675" lon="1.38898">
        <ele>151.37267078898</ele>
        <time>2018-03-12T15:58:49Z</time>
      </trkpt>
      <trkpt lat="44.49676" lon="1.38893">
        <ele>151.15034903225</ele>
        <time>2018-03-12T15:58:53Z</time>
      </trkpt>
      <trkpt lat="44.49677" lon="1.38885">
        <ele>151.31360103137</ele>
        <time>2018-03-12T15:58:58Z</time>
      </trkpt>
      <trkpt lat="44.49678" lon="1.38877">
        <ele>151.03481958409</ele>
        <time>2018-03-12T15:59:02Z</time>
      </trkpt>
      <trkpt lat="44.49679" lon="1.38869">
        <ele>150.56350060386</ele>
        <time>2018-03-12T15:59:06Z</time>
      </trkpt>
      <trkpt lat="44.49681" lon="1.38863">
        <ele>150.4946365535</ele>
        <time>2018-03-12T15:59:10Z</time>
      </trkpt>
      <trkpt lat="44.49682" lon="1.38857">
        <ele>150.32529900266</ele>
        <time>2018-03-12T15:59:16Z</time>
      </trkpt>
      <trkpt lat="44.49681" lon="1.38849">
        <ele>150.21670759954</ele>
        <time>2018-03-12T15:59:21Z</time>
      </trkpt>
      <trkpt lat="44.49683" lon="1.38842">
        <ele>149.89433320535</ele>
        <time>2018-03-12T15:59:25Z</time>
      </trkpt>
      <trkpt lat="44.49684" lon="1.38837">
        <ele>149.7080165838</ele>
        <time>2018-03-12T15:59:29Z</time>
      </trkpt>
      <trkpt lat="44.49684" lon="1.38828">
        <ele>149.70231513551</ele>
        <time>2018-03-12T15:59:34Z</time>
      </trkpt>
      <trkpt lat="44.49684" lon="1.38822">
        <ele>149.63560111894</ele>
        <time>2018-03-12T15:59:38Z</time>
      </trkpt>
      <trkpt lat="44.49687" lon="1.38813">
        <ele>149.49590049034</ele>
        <time>2018-03-12T15:59:43Z</time>
      </trkpt>
      <trkpt lat="44.49689" lon="1.38807">
        <ele>149.48847127635</ele>
        <time>2018-03-12T15:59:49Z</time>
      </trkpt>
      <trkpt lat="44.49688" lon="1.38797">
        <ele>149.43119331189</ele>
        <time>2018-03-12T15:59:53Z</time>
      </trkpt>
      <trkpt lat="44.49689" lon="1.3879">
        <ele>148.97528762951</ele>
        <time>2018-03-12T15:59:58Z</time>
      </trkpt>
      <trkpt lat="44.49692" lon="1.38783">
        <ele>148.54845758368</ele>
        <time>2018-03-12T16:00:02Z</time>
      </trkpt>
      <trkpt lat="44.49695" lon="1.38773">
        <ele>148.39650811818</ele>
        <time>2018-03-12T16:00:07Z</time>
      </trkpt>
      <trkpt lat="44.49694" lon="1.38766">
        <ele>148.52110074517</ele>
        <time>2018-03-12T16:00:11Z</time>
      </trkpt>
      <trkpt lat="44.49695" lon="1.38757">
        <ele>148.78016175514</ele>
        <time>2018-03-12T16:00:16Z</time>
      </trkpt>
      <trkpt lat="44.49696" lon="1.38751">
        <ele>149.10552719119</ele>
        <time>2018-03-12T16:00:24Z</time>
      </trkpt>
      <trkpt lat="44.49696" lon="1.38739">
        <ele>148.99420208508</ele>
        <time>2018-03-12T16:00:29Z</time>
      </trkpt>
      <trkpt lat="44.49696" lon="1.38733">
        <ele>148.75347762679</ele>
        <time>2018-03-12T16:00:34Z</time>
      </trkpt>
      <trkpt lat="44.49698" lon="1.38728">
        <ele>148.30874536708</ele>
        <time>2018-03-12T16:00:38Z</time>
      </trkpt>
      <trkpt lat="44.497" lon="1.38728">
        <ele>147.29897145497</ele>
        <time>2018-03-12T16:00:47Z</time>
      </trkpt>
      <trkpt lat="44.497" lon="1.38728">
        <ele>147.29897145497</ele>
        <time>2018-03-12T16:00:48Z</time>
      </trkpt>
    </trkseg>
  </trk>
</gpx>